[[{"header":{"parameterUnit":"m.s-1","parameterCategory":1,"la1":31.0,"la2":29.5877,"lo1":-88.7671,"lo2":-86.6584,"dx":0.0162,"dy":0.0185,"nx":115,"ny":88,"refTime":"2023-01-28T18:00:00:Z","depth":0,"parameterNumber":2,"parameterNumberName":"U-component_of_WINDS"},"data":[0.0,0.0,0.0,0.0,0.0,0.0,0.0,0.0,0.0,0.0,0.0,0.0,0.0,0.0,0.0,0.0,0.0,0.0,0.0,0.0,0.0,0.0,0.0,0.0,0.0,0.0,0.0,0.0,0.0,0.0,0.0,0.0,0.0,0.0,0.0,0.0,0.0,0.0,0.0,0.0,0.0,0.0,0.0,0.0,0.0,0.0,0.0,0.0,0.0,0.0,0.0,0.0,0.0,0.0,0.0,0.0,0.0,0.0,0.0,0.0,0.0,0.0,0.0,0.0,0.0,0.0,0.0,0.0,0.0,0.0,0.0,0.0,0.0,0.0,0.0,0.0,0.0,0.0,0.0,0.0,0.0,0.0,0.0,0.0,0.0,0.0,0.0,0.0,0.0,0.0,0.0,0.0,0.0,0.0,0.0,0.0,0.0,0.0,0.0,0.0,0.0,0.0,0.0,0.0,0.0,0.0,0.0,0.0,0.0,0.0,0.0,0.0,0.0,0.0,0.0,0.0,0.0,0.0,0.0,0.0,0.0,0.0,0.0,0.0,0.0,0.0,0.0,0.0,0.0,0.0,0.0,0.0,0.0,0.0,0.0,0.0,0.0,0.0,0.0,0.0,0.0,0.0,0.0,0.0,0.0,0.0,0.0,0.0,0.0,0.0,0.0,0.0,0.0,0.0,0.0,0.0,0.0,0.0,0.0,0.0,0.0,0.0,0.0,0.0,0.0,0.0,0.0,0.0,0.0,0.0,0.0,0.0,0.0,0.0,0.0,0.0,0.0,0.0,0.0,0.0,0.0,0.0,0.0,0.0,0.0,0.0,0.0,0.0,0.0,0.0,0.0,0.0,0.0,0.0,0.0,0.0,0.0,0.0,0.0,0.0,0.0,0.0,0.0,0.0,0.0,0.0,0.0,0.0,0.0,0.0,0.0,0.0,0.0,0.0,0.0,0.0,0.0,0.0,0.0,0.0,0.0,0.0,0.0,0.0,0.0,0.0,0.0,0.0,0.0,0.0,0.0,0.0,0.0,0.0,0.0,0.0,0.0,0.0,0.0,0.0,0.0,0.0,0.0,0.0,0.0,0.0,0.0,0.0,0.0,0.0,0.0,0.0,0.0,0.0,0.0,0.0,0.0,0.0,0.0,0.0,0.0,0.0,0.0,0.0,0.0,0.0,0.0,0.0,0.0,0.0,0.0,0.0,0.0,0.0,0.0,0.0,0.0,0.0,0.0,0.0,0.0,0.0,0.0,0.0,0.0,0.0,0.0,0.0,0.0,0.0,0.0,0.0,0.0,0.0,0.0,0.0,0.0,0.0,0.0,0.0,0.0,0.0,0.0,0.0,0.0,0.0,0.0,0.0,0.0,0.0,0.0,0.0,0.0,0.0,0.0,0.0,0.0,0.0,0.0,0.0,0.0,0.0,0.0,0.0,0.0,0.0,0.0,0.0,0.0,0.0,0.0,0.0,0.0,0.0,0.0,0.0,0.0,0.0,0.0,0.0,0.0,0.0,0.0,0.0,0.0,0.0,0.0,0.0,0.0,0.0,0.0,0.0,0.0,0.0,0.0,0.0,0.0,0.0,0.0,0.0,0.0,0.0,0.0,0.0,0.0,0.0,0.0,0.0,0.0,0.0,0.0,0.0,0.0,0.0,0.0,0.0,0.0,0.0,0.0,0.0,0.0,0.0,0.0,0.0,0.0,0.0,0.0,0.0,0.0,0.0,0.0,0.0,0.0,0.0,0.0,0.0,0.0,0.0,0.0,0.0,0.0,0.0,0.0,0.0,0.0,0.0,0.0,0.0,0.0,0.0,0.0,0.0,0.0,0.0,0.0,0.0,0.0,0.0,0.0,0.0,0.0,0.0,0.0,0.0,0.0,0.0,0.0,0.0,0.0,0.0,0.0,0.0,0.0,0.0,0.0,0.0,0.0,0.0,0.0,0.0,0.0,0.0,0.0,0.0,0.0,0.0,0.0,0.0,0.0,0.0,0.0,0.0,0.0,0.0,0.0,0.0,0.0,0.0,0.0,0.0,0.0,0.0,0.0,0.0,0.0,0.0,0.0,0.0,0.0,0.0,0.0,0.0,0.0,0.0,0.0,0.0,0.0,0.0,0.0,0.0,0.0,0.0,0.0,0.0,0.0,0.0,0.0,0.0,0.0,0.0,0.0,0.0,0.0,0.0,0.0,0.0,0.0,0.0,0.0,0.0,0.0,0.0,0.0,0.0,0.0,0.0,0.0,0.0,0.0,0.0,0.0,0.0,0.0,0.0,0.0,0.0,0.0,0.0,0.0,0.0,0.0,0.0,0.0,0.0,0.0,0.0,0.0,0.0,0.0,0.0,0.0,0.0,0.0,0.0,0.0,0.0,0.0,0.0,0.0,0.0,0.0,0.0,0.0,0.0,0.0,0.0,0.0,0.0,0.0,0.0,0.0,0.0,0.0,0.0,0.0,0.0,0.0,0.0,0.0,0.0,0.0,0.0,0.0,0.0,0.0,0.0,0.0,0.0,0.0,0.0,0.0,0.0,0.0,0.0,0.0,0.0,0.0,0.0,0.0,0.0,0.0,0.0,0.0,0.0,0.0,0.0,0.0,0.0,0.0,0.0,0.0,0.0,0.0,0.0,0.0,0.0,0.0,0.0,0.0,0.0,0.0,0.0,0.0,0.0,0.0,0.0,0.0,0.0,0.0,0.0,0.0,0.0,0.0,0.0,0.0,0.0,0.0,0.0,0.0,0.0,0.0,0.0,0.0,0.0,0.0,0.0,0.0,0.0,0.0,0.0,0.0,0.0,0.0,0.0,0.0,0.0,0.0,0.0,0.0,0.0,0.0,0.0,0.0,0.0,0.0,0.0,0.0,0.0,0.0,0.0,0.0,0.0,0.0,0.0,0.0,0.0,0.0,0.0,0.0,0.0,0.0,0.0,0.0,0.0,0.0,0.0,0.0,0.0,0.0,0.0,0.0,0.0,0.0,0.0,0.0,0.0,0.0,0.0,0.0,0.0,0.0,0.0,0.0,0.0,0.0,0.0,0.0,0.0,0.0,0.0,0.0,0.0,0.0,0.0,0.0,0.0,0.0,0.0,0.0,0.0,0.0,0.0,0.0,0.0,0.0,0.0,0.0,0.0,0.0,0.0,0.0,0.0,0.0,0.0,0.0,0.0,0.0,0.0,0.0,0.0,0.0,0.0,0.0,0.0,0.0,0.0,0.0,0.0,0.0,0.0,0.0,0.0,0.0,0.0,0.0,0.0,0.0,0.0,0.0,0.0,0.0,0.0,0.0,0.0,0.0,0.0,0.0,0.0,0.0,0.0,0.0,0.0,0.0,0.0,0.0,0.0,0.0,0.0,0.0,0.0,0.0,0.0,0.0,0.0,0.0,0.0,0.0,0.0,0.0,0.0,0.0,0.0,0.0,0.0,0.0,0.0,0.0,0.0,0.0,0.0,0.0,0.0,0.0,0.0,0.0,0.0,0.0,0.0,0.0,0.0,0.0,0.0,0.0,0.0,0.0,0.0,0.0,0.0,0.0,0.0,0.0,0.0,0.0,0.0,0.0,0.0,0.0,0.0,0.0,0.0,0.0,0.0,0.0,0.0,0.0,0.0,0.0,0.0,0.0,0.0,0.0,0.0,0.0,0.0,0.0,0.0,0.0,0.0,0.0,0.0,0.0,0.0,0.0,0.0,0.0,0.0,0.0,0.0,0.0,0.0,0.0,0.0,0.0,0.0,0.0,0.0,0.0,0.0,0.0,0.0,0.0,0.0,0.0,0.0,0.0,0.0,0.0,0.0,0.0,0.0,0.0,0.0,0.0,0.0,0.0,0.0,0.0,0.0,0.0,0.0,0.0,0.0,0.0,0.0,0.0,0.0,0.0,0.0,0.0,0.0,0.0,0.0,0.0,0.0,0.0,0.0,0.0,0.0,0.0,0.0,0.0,0.0,0.0,0.0,0.0,0.0,0.0,0.0,0.0,0.0,0.0,0.0,0.0,0.0,0.0,0.0,0.0,0.0,0.0,0.0,0.0,0.0,0.0,0.0,0.0,0.0,0.0,0.0,0.0,0.0,0.0,0.0,0.0,0.0,0.0,0.0,0.0,0.0,0.0,0.0,0.0,0.0,0.0,0.0,0.0,0.0,0.0,0.0,0.0,0.0,0.0,0.0,0.0,0.0,0.0,0.0,0.0,0.0,0.0,0.0,0.0,0.0,0.0,0.0,0.0,0.0,0.0,0.0,0.0,0.0,0.0,0.0,0.0,0.0,0.0,0.0,-0.9277,0.0,0.0,0.0,0.0,0.0,0.0,0.0,0.0,0.0,0.0,0.0,0.0,0.0,0.0,0.0,0.0,0.0,0.0,0.0,0.0,0.0,0.0,0.0,0.0,0.0,0.0,0.0,0.0,0.0,0.0,0.0,0.0,0.0,0.0,0.0,0.0,0.0,0.0,0.0,0.0,0.0,0.0,0.0,0.0,0.0,0.0,0.0,0.0,0.0,0.0,0.0,0.0,0.0,0.0,0.0,0.0,0.0,0.0,0.0,0.0,0.0,0.0,0.0,0.0,0.0,0.0,0.0,0.0,0.0,0.0,0.0,0.0,0.0,0.0,0.0,0.0,0.0,0.0,0.0,0.0,0.0,0.0,0.0,0.0,0.0,0.0,0.0,0.0,0.0,0.0,0.0,0.0,0.0,0.0,0.0,0.0,0.0,0.0,0.0,0.0,0.0,0.0,0.0,0.0,0.0,0.0,0.0,0.0,0.0,0.0,-0.8275,-0.8566,-0.8844,-0.9028,-0.9171,0.0,0.0,0.0,0.0,0.0,0.0,0.0,0.0,0.0,0.0,0.0,0.0,0.0,0.0,0.0,0.0,0.0,0.0,0.0,0.0,0.0,0.0,0.0,0.0,0.0,0.0,0.0,0.0,0.0,0.0,0.0,0.0,0.0,0.0,0.0,0.0,0.0,0.0,0.0,0.0,0.0,0.0,0.0,0.0,0.0,0.0,0.0,0.0,0.0,0.0,0.0,0.0,0.0,0.0,0.0,0.0,0.0,0.0,0.0,0.0,0.0,0.0,0.0,0.0,0.0,0.0,0.0,0.0,0.0,0.0,0.0,0.0,0.0,0.0,0.0,0.0,0.0,0.0,0.0,0.0,0.0,0.0,0.0,0.0,0.0,0.0,0.0,0.0,0.0,0.0,0.0,0.0,0.0,0.0,0.0,0.0,0.0,0.0,0.0,0.0,0.0,0.0,0.0,0.0,0.0,0.0,0.0,0.0,0.0,0.0,0.0,0.0,-0.8646,-0.8857,-0.9028,0.0,0.0,0.0,0.0,0.0,0.0,0.0,0.0,0.0,0.0,0.0,0.0,0.0,0.0,0.0,0.0,0.0,0.0,0.0,0.0,0.0,0.0,0.0,0.0,0.0,0.0,0.0,0.0,0.0,0.0,0.0,0.0,0.0,0.0,0.0,0.0,0.0,0.0,0.0,0.0,0.0,0.0,0.0,0.0,0.0,0.0,0.0,0.0,0.0,0.0,0.0,0.0,0.0,0.0,0.0,0.0,0.0,0.0,0.0,0.0,0.0,0.0,0.0,0.0,0.0,0.0,0.0,0.0,0.0,0.0,0.0,0.0,0.0,0.0,0.0,0.0,0.0,0.0,0.0,0.0,0.0,0.0,0.0,0.0,0.0,0.0,0.0,0.0,0.0,0.0,0.0,0.0,0.0,0.0,0.0,0.0,0.0,0.0,0.0,0.0,0.0,0.0,0.0,0.0,0.0,0.0,0.0,0.0,0.0,0.0,-0.8049,-0.8395,-0.8672,0.0,-0.9145,0.0,0.0,0.0,0.0,0.0,0.0,0.0,0.0,0.0,0.0,0.0,0.0,0.0,0.0,0.0,0.0,0.0,0.0,0.0,0.0,0.0,0.0,0.0,0.0,0.0,0.0,0.0,0.0,0.0,0.0,0.0,0.0,0.0,0.0,0.0,0.0,0.0,0.0,0.0,0.0,0.0,0.0,0.0,0.0,0.0,0.0,0.0,0.0,0.0,0.0,0.0,0.0,0.0,0.0,0.0,0.0,0.0,0.0,0.0,0.0,0.0,0.0,0.0,0.0,0.0,0.0,0.0,0.0,0.0,0.0,0.0,0.0,0.0,0.0,0.0,0.0,0.0,0.0,0.0,0.0,0.0,0.0,0.0,0.0,0.0,0.0,0.0,0.0,0.0,0.0,0.0,0.0,0.0,0.0,0.0,0.0,0.0,0.0,0.0,0.0,0.0,0.0,0.0,0.0,0.0,0.0,0.0,0.0,0.0,0.0,-0.7863,-0.8275,-0.8553,-0.8765,0.0,0.0,0.0,0.0,0.0,0.0,0.0,0.0,0.0,0.0,0.0,0.0,0.0,0.0,0.0,0.0,0.0,0.0,0.0,0.0,0.0,0.0,0.0,0.0,0.0,0.0,0.0,0.0,0.0,0.0,0.0,0.0,0.0,0.0,0.0,0.0,0.0,0.0,0.0,0.0,0.0,0.0,0.0,0.0,0.0,0.0,0.0,0.0,0.0,0.0,0.0,0.0,0.0,0.0,0.0,0.0,0.0,0.0,0.0,0.0,0.0,0.0,0.0,0.0,0.0,0.0,0.0,0.0,0.0,0.0,0.0,0.0,0.0,0.0,0.0,0.0,0.0,0.0,0.0,0.0,0.0,0.0,0.0,0.0,0.0,0.0,0.0,0.0,0.0,0.0,0.0,0.0,0.0,0.0,0.0,0.0,0.0,0.0,0.0,0.0,0.0,0.0,0.0,0.0,0.0,0.0,0.0,0.0,0.0,0.0,-0.7515,-0.7729,-0.8168,-0.8421,-0.858,-0.8699,0.0,0.0,0.0,0.0,0.0,0.0,0.0,0.0,0.0,0.0,0.0,0.0,0.0,0.0,0.0,0.0,0.0,0.0,0.0,0.0,0.0,0.0,0.0,0.0,0.0,0.0,0.0,0.0,0.0,0.0,0.0,0.0,0.0,0.0,0.0,0.0,0.0,0.0,0.0,0.0,0.0,0.0,0.0,0.0,0.0,0.0,0.0,0.0,0.0,0.0,0.0,0.0,0.0,0.0,0.0,0.0,0.0,0.0,0.0,0.0,0.0,0.0,0.0,0.0,0.0,0.0,0.0,0.0,0.0,0.0,0.0,0.0,0.0,0.0,0.0,0.0,0.0,0.0,0.0,0.0,0.0,0.0,0.0,0.0,0.0,0.0,0.0,0.0,0.0,0.0,0.0,0.0,0.0,0.0,0.0,0.0,0.0,0.0,0.0,0.0,0.0,0.0,0.0,0.0,0.0,0.0,0.0,0.0,-0.7488,-0.7515,-0.7702,-0.8195,-0.8315,-0.8395,0.0,0.0,0.0,0.0,0.0,0.0,0.0,0.0,0.0,0.0,0.0,0.0,0.0,0.0,0.0,0.0,0.0,0.0,0.0,0.0,0.0,0.0,0.0,0.0,0.0,0.0,0.0,0.0,0.0,0.0,0.0,0.0,0.0,0.0,0.0,0.0,0.0,0.0,0.0,0.0,0.0,0.0,0.0,0.0,0.0,0.0,0.0,0.0,0.0,0.0,0.0,0.0,0.0,0.0,0.0,0.0,0.0,0.0,0.0,0.0,0.0,0.0,0.0,0.0,0.0,0.0,0.0,0.0,0.0,0.0,0.0,0.0,0.0,0.0,0.0,0.0,0.0,0.0,0.0,0.0,0.0,0.0,0.0,0.0,0.0,0.0,0.0,0.0,0.0,0.0,0.0,0.0,0.0,0.0,0.0,0.0,0.0,0.0,0.0,0.0,0.0,0.0,0.0,0.0,0.0,0.0,0.0,0.0,0.0,-0.7622,-0.7702,-0.7901,-0.8195,-0.8248,-0.8275,0.0,0.0,0.0,0.0,0.0,0.0,0.0,0.0,0.0,0.0,0.0,0.0,0.0,0.0,0.0,0.0,0.0,0.0,0.0,0.0,0.0,0.0,0.0,0.0,0.0,0.0,0.0,0.0,0.0,0.0,0.0,0.0,0.0,0.0,0.0,0.0,0.0,0.0,0.0,0.0,0.0,0.0,0.0,0.0,0.0,0.0,0.0,0.0,0.0,0.0,0.0,0.0,0.0,0.0,0.0,0.0,0.0,0.0,0.0,0.0,0.0,0.0,0.0,0.0,0.0,0.0,0.0,0.0,0.0,0.0,0.0,0.0,0.0,0.0,0.0,0.0,0.0,0.0,0.0,0.0,0.0,0.0,0.0,0.0,0.0,0.0,0.0,0.0,0.0,0.0,0.0,0.0,0.0,0.0,0.0,0.0,0.0,0.0,0.0,0.0,0.0,0.0,0.0,0.0,0.0,0.0,0.0,0.0,0.0,-0.7702,0.0,-0.7981,-0.8088,-0.8115,-0.8088,0.0,0.0,0.0,0.0,0.0,0.0,0.0,0.0,0.0,0.0,0.0,0.0,0.0,0.0,0.0,0.0,0.0,0.0,0.0,0.0,0.0,0.0,0.0,0.0,0.0,0.0,0.0,0.0,0.0,0.0,0.0,0.0,0.0,0.0,0.0,0.0,0.0,0.0,0.0,0.0,0.0,0.0,0.0,0.0,0.0,0.0,0.0,0.0,0.0,0.0,0.0,0.0,0.0,0.0,0.0,0.0,0.0,0.0,0.0,0.0,0.0,0.0,0.0,0.0,0.0,0.0,0.0,0.0,0.0,0.0,0.0,0.0,0.0,0.0,0.0,0.0,0.0,0.0,0.0,0.0,0.0,0.0,0.0,0.0,0.0,0.0,0.0,0.0,0.0,0.0,0.0,0.0,0.0,0.0,0.0,0.0,0.0,0.0,0.0,0.0,0.0,0.0,0.0,0.0,0.0,0.0,0.0,0.0,-0.7729,-0.7729,-0.7821,-0.7952,-0.7913,-0.7952,-0.7913,0.0,0.0,0.0,0.0,0.0,0.0,0.0,0.0,0.0,0.0,0.0,0.0,0.0,0.0,0.0,0.0,0.0,0.0,0.0,0.0,0.0,0.0,0.0,0.0,0.0,0.0,0.0,0.0,0.0,0.0,0.0,0.0,0.0,0.0,0.0,0.0,0.0,0.0,0.0,0.0,0.0,0.0,0.0,0.0,0.0,0.0,0.0,0.0,0.0,0.0,0.0,0.0,0.0,0.0,0.0,0.0,0.0,0.0,0.0,0.0,0.0,0.0,0.0,0.0,0.0,0.0,0.0,0.0,0.0,0.0,0.0,0.0,0.0,0.0,0.0,0.0,0.0,0.0,0.0,0.0,0.0,0.0,0.0,0.0,0.0,0.0,0.0,0.0,0.0,0.0,0.0,0.0,0.0,0.0,0.0,0.0,0.0,0.0,0.0,0.0,0.0,0.0,0.0,0.0,0.0,0.0,0.0,0.0,0.0,-0.7875,-0.8206,-0.8386,-0.8386,-0.8248,-0.8165,0.0,0.0,0.0,0.0,0.0,0.0,0.0,0.0,0.0,0.0,0.0,0.0,0.0,0.0,0.0,0.0,0.0,0.0,0.0,0.0,0.0,0.0,0.0,0.0,0.0,0.0,0.0,0.0,0.0,0.0,0.0,0.0,0.0,0.0,0.0,0.0,0.0,0.0,0.0,0.0,0.0,0.0,0.0,0.0,0.0,0.0,0.0,0.0,0.0,0.0,0.0,0.0,0.0,0.0,0.0,0.0,0.0,0.0,0.0,0.0,0.0,0.0,0.0,0.0,0.0,0.0,0.0,0.0,0.0,0.0,0.0,0.0,0.0,0.0,0.0,0.0,0.0,0.0,0.0,0.0,0.0,0.0,0.0,0.0,0.0,0.0,0.0,0.0,0.0,0.0,0.0,0.0,0.0,0.0,0.0,0.0,0.0,0.0,0.0,0.0,0.0,0.0,0.0,0.0,0.0,0.0,0.0,0.0,0.0,-0.8951,-0.893,-0.894,-0.894,-0.8697,-0.8506,-0.8397,0.0,0.0,0.0,0.0,0.0,0.0,0.0,0.0,0.0,0.0,0.0,0.0,0.0,0.0,0.0,0.0,0.0,0.0,0.0,0.0,0.0,0.0,0.0,0.0,0.0,0.0,0.0,0.0,0.0,0.0,0.0,0.0,0.0,0.0,0.0,0.0,0.0,0.0,0.0,0.0,0.0,0.0,0.0,0.0,0.0,0.0,0.0,0.0,0.0,0.0,0.0,0.0,0.0,0.0,0.0,0.0,0.0,0.0,0.0,0.0,0.0,0.0,0.0,0.0,0.0,0.0,0.0,0.0,0.0,0.0,0.0,0.0,0.0,0.0,0.0,0.0,0.0,0.0,0.0,0.0,0.0,0.0,0.0,0.0,0.0,0.0,0.0,0.0,0.0,0.0,0.0,0.0,0.0,0.0,0.0,0.0,0.0,0.0,0.0,0.0,0.0,0.0,0.0,0.0,0.0,0.0,0.0,0.0,-1.0776,-1.0064,-0.9665,-0.9567,-0.9288,-0.8945,0.0,0.0,0.0,0.0,0.0,0.0,0.0,0.0,0.0,0.0,0.0,0.0,0.0,0.0,0.0,0.0,0.0,0.0,0.0,0.0,0.0,0.0,0.0,0.0,0.0,0.0,0.0,0.0,0.0,0.0,0.0,0.0,0.0,0.0,0.0,0.0,0.0,0.0,0.0,0.0,0.0,0.0,0.0,0.0,0.0,0.0,0.0,0.0,0.0,0.0,0.0,0.0,0.0,0.0,0.0,0.0,0.0,0.0,0.0,0.0,0.0,0.0,0.0,0.0,0.0,0.0,0.0,0.0,0.0,0.0,0.0,0.0,0.0,0.0,0.0,0.0,0.0,0.0,0.0,0.0,0.0,0.0,0.0,0.0,0.0,0.0,0.0,0.0,0.0,0.0,0.0,0.0,0.0,0.0,0.0,0.0,0.0,0.0,0.0,0.0,0.0,0.0,0.0,0.0,0.0,0.0,0.0,0.0,0.0,-1.1716,-1.1779,-1.1379,-1.0571,-1.0203,-0.9765,0.0,0.0,0.0,0.0,0.0,0.0,0.0,0.0,0.0,0.0,0.0,0.0,0.0,0.0,0.0,0.0,0.0,0.0,0.0,0.0,0.0,0.0,0.0,0.0,0.0,0.0,0.0,0.0,0.0,0.0,0.0,0.0,0.0,0.0,0.0,0.0,0.0,0.0,0.0,0.0,0.0,0.0,0.0,0.0,0.0,0.0,0.0,0.0,0.0,0.0,0.0,0.0,0.0,0.0,0.0,0.0,0.0,0.0,0.0,0.0,0.0,0.0,0.0,0.0,0.0,0.0,0.0,0.0,0.0,0.0,0.0,0.0,0.0,0.0,0.0,0.0,0.0,0.0,0.0,0.0,0.0,0.0,0.0,0.0,0.0,0.0,0.0,0.0,0.0,0.0,0.0,0.0,0.0,0.0,0.0,0.0,0.0,0.0,0.0,0.0,0.0,0.0,0.0,0.0,0.0,0.0,0.0,0.0,-1.2022,-1.2512,-1.2807,-1.2589,-1.1793,-1.1038,-1.0417,0.0,0.0,0.0,0.0,0.0,0.0,0.0,0.0,0.0,0.0,0.0,0.0,0.0,0.0,0.0,0.0,0.0,0.0,0.0,0.0,0.0,0.0,0.0,0.0,0.0,0.0,0.0,0.0,0.0,0.0,0.0,0.0,0.0,0.0,0.0,0.0,0.0,0.0,0.0,0.0,0.0,0.0,0.0,0.0,0.0,0.0,0.0,0.0,0.0,0.0,0.0,0.0,0.0,0.0,0.0,0.0,0.0,0.0,0.0,0.0,0.0,0.0,0.0,0.0,0.0,0.0,0.0,0.0,0.0,0.0,0.0,0.0,0.0,0.0,0.0,0.0,0.0,0.0,0.0,0.0,0.0,0.0,0.0,0.0,0.0,0.0,0.0,0.0,0.0,0.0,0.0,0.0,0.0,0.0,0.0,0.0,0.0,0.0,0.0,0.0,0.0,0.0,0.0,0.0,0.0,0.0,0.0,0.0,-1.2596,-1.308,-1.3397,-1.3404,-1.3073,-1.1825,-1.0909,0.0,0.0,0.0,0.0,0.0,0.0,0.0,0.0,0.0,0.0,0.0,0.0,0.0,0.0,0.0,0.0,0.0,0.0,0.0,0.0,0.0,0.0,0.0,0.0,0.0,0.0,0.0,0.0,0.0,0.0,0.0,0.0,0.0,0.0,0.0,0.0,0.0,0.0,0.0,0.0,0.0,0.0,0.0,0.0,0.0,0.0,0.0,0.0,0.0,0.0,0.0,0.0,0.0,0.0,0.0,0.0,0.0,0.0,0.0,0.0,0.0,0.0,0.0,0.0,0.0,0.0,0.0,0.0,0.0,0.0,0.0,0.0,0.0,0.0,0.0,0.0,0.0,0.0,0.0,0.0,0.0,0.0,0.0,0.0,0.0,0.0,0.0,0.0,0.0,0.0,0.0,0.0,0.0,0.0,0.0,0.0,0.0,0.0,0.0,0.0,0.0,0.0,0.0,0.0,0.0,0.0,0.0,0.0,-1.2904,-1.3114,-1.368,-1.3843,-1.3621,-1.2551,-1.1484,0.0,0.0,0.0,0.0,0.0,0.0,0.0,0.0,0.0,0.0,0.0,0.0,0.0,0.0,0.0,0.0,0.0,0.0,0.0,0.0,0.0,0.0,0.0,0.0,0.0,0.0,0.0,0.0,0.0,0.0,0.0,0.0,0.0,0.0,0.0,0.0,0.0,0.0,0.0,0.0,0.0,0.0,0.0,0.0,0.0,0.0,0.0,0.0,-0.7661,0.0,0.0,0.0,0.0,0.0,0.0,0.0,0.0,0.0,0.0,0.0,0.0,0.0,0.0,0.0,0.0,0.0,0.0,0.0,0.0,0.0,0.0,0.0,0.0,0.0,0.0,0.0,0.0,0.0,0.0,0.0,0.0,0.0,0.0,0.0,0.0,0.0,0.0,0.0,0.0,0.0,0.0,0.0,0.0,0.0,0.0,0.0,0.0,0.0,0.0,0.0,0.0,0.0,0.0,0.0,0.0,0.0,0.0,0.0,-1.3157,-1.348,-1.3869,-1.3964,-1.3622,-1.2706,-1.1768,0.0,0.0,0.0,0.0,0.0,0.0,0.0,0.0,0.0,0.0,0.0,0.0,0.0,0.0,0.0,0.0,0.0,0.0,0.0,0.0,0.0,0.0,0.0,0.0,0.0,0.0,0.0,0.0,0.0,0.0,0.0,0.0,0.0,0.0,0.0,0.0,0.0,0.0,0.0,0.0,0.0,0.0,0.0,0.0,0.0,0.0,0.0,0.0,0.0,0.0,0.0,0.0,0.0,0.0,0.0,0.0,0.0,0.0,0.0,0.0,0.0,0.0,0.0,0.0,0.0,0.0,0.0,0.0,0.0,0.0,0.0,0.0,0.0,0.0,0.0,0.0,0.0,0.0,0.0,0.0,0.0,0.0,0.0,0.0,0.0,0.0,0.0,0.0,0.0,0.0,0.0,0.0,0.0,0.0,0.0,0.0,0.0,0.0,0.0,0.0,0.0,0.0,0.0,0.0,0.0,0.0,0.0,-1.278,-1.3369,-1.3866,-1.4032,-1.3928,-1.3528,-1.267,-1.1871,-1.1243,0.0,0.0,0.0,0.0,0.0,0.0,0.0,0.0,0.0,0.0,0.0,0.0,0.0,0.0,0.0,0.0,0.0,0.0,0.0,0.0,0.0,0.0,0.0,0.0,0.0,0.0,0.0,0.0,0.0,0.0,0.0,0.0,0.0,0.0,0.0,0.0,0.0,0.0,-0.9347,-0.9888,0.0,0.0,0.0,0.0,0.0,0.0,0.0,0.0,-0.851,0.0,0.0,0.0,0.0,0.0,0.0,0.0,0.0,0.0,0.0,0.0,0.0,0.0,0.0,0.0,0.0,0.0,0.0,0.0,0.0,0.0,0.0,0.0,0.0,0.0,0.0,0.0,0.0,0.0,0.0,0.0,0.0,0.0,0.0,0.0,0.0,0.0,0.0,0.0,0.0,0.0,0.0,0.0,0.0,0.0,0.0,0.0,0.0,0.0,0.0,0.0,0.0,0.0,0.0,0.0,0.0,-1.2108,-1.278,-1.3335,-1.3866,-1.4032,-1.4,-1.3746,-1.2742,-1.1871,-1.1209,0.0,0.0,0.0,0.0,0.0,0.0,0.0,0.0,0.0,0.0,0.0,0.0,0.0,0.0,0.0,0.0,0.0,0.0,0.0,0.0,0.0,0.0,0.0,0.0,0.0,0.0,0.0,0.0,0.0,0.0,0.0,0.0,0.0,0.0,0.0,0.0,0.0,0.0,0.0,-1.1553,-1.1662,0.0,0.0,0.0,0.0,0.0,0.0,0.0,0.0,-0.9271,0.0,0.0,0.0,0.0,0.0,0.0,0.0,0.0,0.0,0.0,0.0,0.0,0.0,0.0,0.0,0.0,0.0,0.0,0.0,0.0,0.0,0.0,0.0,0.0,0.0,0.0,0.0,0.0,0.0,0.0,0.0,0.0,0.0,0.0,0.0,0.0,0.0,0.0,0.0,0.0,0.0,0.0,0.0,0.0,0.0,0.0,0.0,0.0,0.0,0.0,0.0,0.0,0.0,0.0,0.0,-1.274,-1.3104,-1.3598,-1.4222,-1.4268,-1.4017,-1.3543,-1.2676,-1.1881,0.0,0.0,0.0,0.0,0.0,0.0,0.0,0.0,0.0,0.0,0.0,0.0,0.0,0.0,0.0,0.0,0.0,0.0,0.0,0.0,0.0,0.0,0.0,0.0,0.0,0.0,0.0,0.0,0.0,0.0,0.0,0.0,0.0,0.0,0.0,0.0,0.0,0.0,0.0,0.0,-1.3375,-1.3443,-1.3419,0.0,0.0,0.0,0.0,0.0,0.0,-1.0846,-1.0412,0.0,0.0,0.0,0.0,0.0,0.0,0.0,0.0,0.0,0.0,0.0,0.0,0.0,0.0,0.0,0.0,0.0,0.0,0.0,0.0,0.0,0.0,0.0,0.0,0.0,0.0,0.0,0.0,0.0,0.0,0.0,0.0,0.0,0.0,0.0,0.0,0.0,0.0,0.0,0.0,0.0,0.0,0.0,0.0,0.0,0.0,0.0,0.0,0.0,0.0,0.0,0.0,0.0,0.0,0.0,-1.3384,-1.3483,-1.3881,-1.4601,-1.4505,-1.4119,-1.3444,-1.2736,-1.1977,0.0,0.0,0.0,0.0,0.0,0.0,0.0,0.0,0.0,0.0,0.0,0.0,0.0,0.0,0.0,0.0,0.0,0.0,0.0,0.0,0.0,0.0,0.0,0.0,0.0,0.0,0.0,0.0,0.0,0.0,0.0,0.0,0.0,0.0,0.0,0.0,0.0,0.0,0.0,0.0,0.0,-1.56,-1.5659,-1.5225,0.0,0.0,0.0,0.0,-1.3293,-1.265,0.0,0.0,0.0,0.0,0.0,0.0,0.0,0.0,0.0,0.0,0.0,0.0,0.0,0.0,0.0,0.0,0.0,0.0,0.0,0.0,0.0,0.0,0.0,0.0,0.0,0.0,0.0,0.0,0.0,0.0,0.0,0.0,0.0,0.0,0.0,0.0,0.0,0.0,0.0,0.0,0.0,0.0,0.0,0.0,0.0,0.0,0.0,0.0,0.0,0.0,0.0,0.0,0.0,0.0,0.0,0.0,-1.3553,-1.3767,-1.4172,-1.4832,-1.4685,-1.4281,-1.3762,-1.296,-1.2212,0.0,0.0,0.0,0.0,0.0,0.0,0.0,0.0,0.0,0.0,0.0,0.0,0.0,0.0,0.0,0.0,0.0,0.0,0.0,0.0,0.0,0.0,0.0,0.0,0.0,0.0,0.0,0.0,0.0,0.0,0.0,0.0,0.0,0.0,0.0,0.0,0.0,0.0,0.0,0.0,0.0,-1.8554,-1.8374,-1.799,-1.7733,0.0,0.0,0.0,-1.5992,-1.5411,0.0,0.0,0.0,0.0,0.0,0.0,0.0,0.0,0.0,0.0,0.0,0.0,0.0,0.0,0.0,0.0,0.0,0.0,0.0,0.0,0.0,0.0,0.0,0.0,0.0,0.0,0.0,0.0,0.0,0.0,0.0,0.0,0.0,0.0,0.0,0.0,0.0,0.0,0.0,0.0,0.0,0.0,0.0,0.0,0.0,0.0,0.0,0.0,0.0,0.0,0.0,0.0,0.0,0.0,0.0,-1.3091,-1.3851,-1.3966,-1.4376,-1.5029,-1.4991,-1.4539,-1.3721,-1.3261,-1.2575,0.0,0.0,0.0,0.0,0.0,0.0,0.0,0.0,0.0,0.0,0.0,0.0,0.0,0.0,0.0,0.0,0.0,0.0,0.0,0.0,0.0,0.0,0.0,0.0,0.0,0.0,0.0,0.0,0.0,0.0,0.0,0.0,0.0,0.0,0.0,0.0,0.0,0.0,0.0,0.0,0.0,0.0,-2.0741,-2.0839,0.0,0.0,0.0,-1.9392,-1.9012,0.0,0.0,0.0,0.0,0.0,0.0,0.0,0.0,0.0,0.0,0.0,0.0,0.0,0.0,0.0,0.0,0.0,0.0,0.0,0.0,0.0,0.0,0.0,0.0,0.0,0.0,0.0,0.0,0.0,0.0,0.0,0.0,0.0,0.0,0.0,0.0,0.0,0.0,0.0,0.0,0.0,0.0,0.0,0.0,0.0,0.0,0.0,0.0,0.0,0.0,0.0,0.0,0.0,0.0,0.0,0.0,0.0,-1.4313,-1.4446,-1.4832,-1.5384,-1.5417,-1.4892,-1.3849,-1.3618,0.0,0.0,0.0,0.0,0.0,0.0,0.0,0.0,0.0,0.0,0.0,0.0,0.0,0.0,0.0,0.0,0.0,0.0,0.0,0.0,0.0,0.0,0.0,0.0,0.0,0.0,0.0,-0.9649,0.0,0.0,0.0,0.0,0.0,0.0,0.0,0.0,0.0,0.0,0.0,0.0,0.0,0.0,-2.3595,-2.3419,-2.3748,-2.3824,0.0,0.0,-2.2408,-2.193,-2.1088,-2.0159,0.0,0.0,0.0,0.0,0.0,0.0,0.0,0.0,0.0,0.0,0.0,0.0,0.0,0.0,0.0,0.0,0.0,0.0,0.0,0.0,0.0,0.0,0.0,0.0,0.0,0.0,0.0,0.0,0.0,0.0,0.0,0.0,0.0,0.0,0.0,0.0,0.0,0.0,0.0,0.0,0.0,0.0,0.0,0.0,0.0,0.0,0.0,0.0,0.0,0.0,0.0,0.0,0.0,0.0,0.0,-1.4837,-1.5384,-1.5771,-1.6035,-1.6035,-1.5532,-1.4396,-1.4065,-1.3364,0.0,0.0,0.0,0.0,0.0,0.0,0.0,0.0,0.0,0.0,0.0,0.0,0.0,0.0,0.0,0.0,0.0,0.0,0.0,0.0,0.0,0.0,0.0,0.0,0.0,0.0,0.0,0.0,0.0,0.0,0.0,0.0,0.0,0.0,0.0,0.0,0.0,0.0,0.0,0.0,0.0,-2.6142,-2.6609,-2.6719,-2.6607,0.0,0.0,-2.5279,-2.4659,-2.4028,-2.3295,-2.2453,0.0,0.0,0.0,0.0,0.0,0.0,0.0,0.0,0.0,0.0,0.0,0.0,0.0,0.0,0.0,0.0,0.0,0.0,0.0,0.0,0.0,0.0,0.0,0.0,0.0,0.0,0.0,0.0,0.0,0.0,0.0,0.0,0.0,0.0,0.0,0.0,0.0,0.0,0.0,0.0,0.0,0.0,0.0,0.0,0.0,0.0,0.0,0.0,0.0,0.0,0.0,0.0,0.0,-1.4946,-1.5635,-1.5945,-1.6283,-1.6577,-1.6473,-1.6033,-1.5286,-1.4679,-1.3981,0.0,0.0,0.0,0.0,0.0,0.0,0.0,0.0,0.0,0.0,0.0,0.0,0.0,0.0,0.0,0.0,0.0,0.0,0.0,0.0,0.0,0.0,0.0,0.0,0.0,0.0,0.0,0.0,-1.4642,-1.5528,-1.6398,0.0,0.0,0.0,0.0,0.0,0.0,0.0,0.0,0.0,0.0,-2.8828,-2.9362,-2.9744,0.0,0.0,-2.9544,-2.9107,-2.8562,-2.7415,-2.632,-2.5451,-2.4083,0.0,0.0,0.0,0.0,0.0,0.0,0.0,0.0,0.0,0.0,0.0,0.0,0.0,0.0,0.0,0.0,0.0,0.0,0.0,0.0,0.0,0.0,0.0,0.0,0.0,0.0,0.0,0.0,0.0,0.0,0.0,0.0,0.0,0.0,0.0,0.0,0.0,0.0,0.0,0.0,0.0,0.0,0.0,0.0,0.0,0.0,0.0,0.0,0.0,0.0,0.0,0.0,-1.5702,-1.6337,-1.6548,-1.6819,-1.7081,-1.6925,-1.6604,-1.6035,-1.5449,-1.4752,0.0,0.0,0.0,0.0,0.0,0.0,0.0,0.0,0.0,0.0,0.0,0.0,0.0,0.0,0.0,0.0,0.0,0.0,0.0,0.0,0.0,0.0,0.0,0.0,0.0,0.0,0.0,0.0,-1.6626,-1.7665,-1.9049,0.0,0.0,0.0,0.0,0.0,0.0,0.0,0.0,0.0,0.0,-3.1017,-3.1601,-3.225,-3.2629,-3.2515,-3.2275,-3.1888,-3.1361,-3.0202,-2.9084,-2.8332,0.0,0.0,0.0,0.0,0.0,0.0,0.0,0.0,0.0,0.0,0.0,0.0,0.0,0.0,0.0,0.0,0.0,0.0,0.0,0.0,0.0,0.0,0.0,0.0,0.0,0.0,0.0,0.0,0.0,0.0,0.0,0.0,0.0,0.0,0.0,0.0,0.0,0.0,0.0,0.0,0.0,0.0,0.0,0.0,0.0,0.0,0.0,0.0,0.0,0.0,0.0,0.0,0.0,-1.6651,-1.6874,-1.7252,-1.7495,-1.7514,-1.7461,-1.7203,-1.6589,-1.6233,-1.5587,-1.4595,0.0,0.0,0.0,0.0,0.0,0.0,0.0,0.0,0.0,0.0,0.0,0.0,0.0,0.0,0.0,0.0,0.0,0.0,0.0,0.0,0.0,0.0,0.0,0.0,0.0,0.0,-1.7304,-1.8582,-1.998,0.0,0.0,0.0,0.0,0.0,0.0,0.0,0.0,0.0,0.0,-3.1685,-3.2645,-3.3174,-3.3963,-3.4251,-3.351,-3.342,-3.3158,-3.25,-3.2008,-3.1554,0.0,0.0,0.0,0.0,0.0,0.0,0.0,0.0,0.0,0.0,0.0,0.0,0.0,0.0,0.0,0.0,0.0,0.0,0.0,0.0,0.0,0.0,0.0,0.0,0.0,0.0,0.0,-1.7214,-1.729,0.0,0.0,0.0,0.0,0.0,0.0,0.0,0.0,0.0,0.0,0.0,-1.9198,-1.8972,0.0,0.0,0.0,0.0,0.0,0.0,0.0,0.0,0.0,0.0,0.0,0.0,-1.7168,-1.7625,-1.7915,-1.8076,-1.8144,-1.8076,-1.7862,-1.7557,-1.6935,-1.6063,-1.4849,0.0,0.0,0.0,0.0,0.0,0.0,0.0,0.0,0.0,0.0,0.0,0.0,0.0,0.0,0.0,0.0,0.0,0.0,0.0,0.0,0.0,0.0,0.0,0.0,0.0,-1.9447,0.0,0.0,0.0,0.0,0.0,0.0,0.0,0.0,0.0,0.0,0.0,-3.0744,-3.2113,-3.3211,-3.4253,-3.5404,-3.5592,-3.5645,0.0,0.0,0.0,0.0,0.0,0.0,0.0,0.0,0.0,0.0,0.0,0.0,0.0,0.0,-2.6889,-2.4506,-2.3815,-2.359,-2.3613,0.0,0.0,0.0,0.0,0.0,0.0,0.0,0.0,0.0,0.0,0.0,0.0,0.0,0.0,0.0,0.0,-1.8838,0.0,0.0,0.0,0.0,0.0,0.0,0.0,0.0,-2.0156,-2.0446,-2.0664,-2.0679,-2.0594,0.0,-2.0159,-1.9298,0.0,0.0,0.0,0.0,0.0,0.0,0.0,0.0,-1.786,-1.8394,-1.8532,-1.8748,-1.8957,-1.8748,-1.8551,-1.8394,-1.7589,-1.6701,-1.5724,-1.5431,-1.5151,0.0,0.0,0.0,0.0,0.0,0.0,0.0,0.0,0.0,0.0,0.0,0.0,0.0,0.0,0.0,0.0,0.0,0.0,0.0,0.0,0.0,0.0,0.0,-2.1732,0.0,0.0,0.0,0.0,0.0,0.0,0.0,0.0,0.0,-2.975,-3.1065,-3.2459,-3.3522,-3.4668,-3.5703,-3.6642,0.0,0.0,0.0,0.0,0.0,0.0,0.0,-3.6101,-3.5921,-3.5478,-3.5051,-3.4719,-3.4419,-3.4015,-3.3297,0.0,0.0,-2.8455,-2.7518,-2.7336,-2.7396,-2.765,-2.7946,-2.8173,-2.8566,-2.8871,0.0,0.0,0.0,0.0,0.0,0.0,0.0,0.0,-1.9825,-1.9989,0.0,-2.0137,0.0,0.0,0.0,0.0,0.0,0.0,0.0,0.0,-2.1566,-2.1749,-2.1608,-2.2045,-2.2122,-2.1911,-2.1308,-2.1102,-2.1167,-1.9803,0.0,0.0,0.0,0.0,0.0,0.0,-1.8777,-1.9213,-1.9233,-1.947,-1.9869,-1.949,-1.9233,-1.9193,-1.8235,-1.7579,-1.7232,-1.6805,-1.6383,-1.6115,-1.6083,0.0,0.0,0.0,0.0,0.0,0.0,0.0,0.0,0.0,0.0,0.0,0.0,0.0,0.0,0.0,0.0,0.0,0.0,0.0,0.0,-2.3003,0.0,0.0,0.0,0.0,0.0,0.0,0.0,0.0,0.0,0.0,-3.1235,-3.2798,-3.4253,-3.4818,0.0,0.0,0.0,0.0,-3.8036,-3.8246,-3.832,-3.8387,-3.8585,-3.8449,-3.82,-3.8046,0.0,0.0,-3.7555,-3.7844,-3.7821,-3.7108,-3.6917,-3.568,-3.1612,-3.0762,-3.0719,-3.0928,-3.1159,-3.1646,-3.2239,-3.2492,-3.2773,-2.1282,0.0,0.0,0.0,0.0,-2.056,-2.0964,-2.155,-2.1585,-2.1689,-2.1745,-2.165,0.0,0.0,0.0,0.0,0.0,0.0,-2.1933,-2.2241,-2.2622,-2.293,-2.3211,-2.3278,-2.3303,-2.3263,-2.3058,-2.3034,-2.3069,-2.1991,-2.0902,-1.987,0.0,0.0,0.0,0.0,-1.9626,-1.989,-1.991,-2.0022,-2.0232,-2.0129,-1.9924,-1.963,-1.9021,-1.8484,-1.808,-1.7841,-1.7664,-1.7556,-1.7459,0.0,0.0,0.0,0.0,0.0,0.0,0.0,0.0,0.0,0.0,0.0,0.0,0.0,0.0,0.0,0.0,0.0,0.0,0.0,-2.4563,-2.5683,-2.6515,0.0,0.0,0.0,0.0,0.0,0.0,0.0,0.0,0.0,-3.4317,-3.4504,-3.5003,0.0,0.0,-3.7374,-3.7808,-3.8265,-3.8639,-3.8695,0.0,0.0,0.0,-3.9841,-4.0238,-4.0224,-4.0451,-4.0601,-4.0377,-4.0248,-4.0033,-3.9474,-3.938,-3.8815,-3.7347,-3.5459,-3.4335,-3.4315,-3.439,-3.4508,-3.472,-3.5127,-3.5437,-2.3248,-2.2314,-2.1821,-2.1647,-2.1771,-2.2128,-2.2446,-2.2784,-2.3093,-2.321,-2.3176,-2.3176,-2.2914,-2.2433,-2.2433,0.0,0.0,0.0,-2.3156,-2.3421,-2.382,-2.4147,-2.4406,-2.4559,-2.4645,-2.4624,-2.4371,-2.4304,-2.4406,-2.3513,-2.2679,-2.1786,0.0,0.0,-2.0339,-2.0339,-2.0478,-2.0772,-2.0793,-2.0948,-2.1188,-2.1072,-2.0744,-2.0168,-1.9919,-1.9592,-1.9072,-1.8986,-1.8943,-1.8866,-1.8769,-1.8799,0.0,0.0,0.0,0.0,0.0,0.0,0.0,0.0,0.0,0.0,0.0,-2.0896,0.0,0.0,0.0,0.0,-2.4236,-2.5403,-2.677,-2.7587,0.0,0.0,0.0,0.0,0.0,0.0,0.0,-3.3467,-3.4256,-3.5099,-3.6098,-3.6057,-3.6223,-3.7003,-3.7664,-3.8202,-3.8551,0.0,-3.9497,-3.9729,-4.0216,-4.0584,-4.0761,-4.1495,-4.2067,-4.201,-4.2455,-4.267,-4.2361,-4.2325,-4.2211,-4.1693,-4.1551,-4.1361,-4.0834,-3.9336,-3.8023,-3.7556,-3.7468,-3.7491,-3.7713,-3.8103,-3.8344,-2.5508,-2.5423,-2.4577,-2.3909,-2.3473,-2.426,-2.4361,-2.4102,-2.4505,-2.4661,-2.4596,-2.4618,-2.4312,-2.3749,-2.3749,0.0,0.0,-2.4312,-2.453,-2.4552,-2.5051,-2.527,-2.5292,-2.5688,-2.5906,-2.5884,-2.5283,-2.5107,-2.5248,-2.4607,-2.435,-2.4245,-2.2305,-2.1318,-2.1247,-2.1282,-2.1474,-2.188,-2.188,-2.2072,-2.2494,-2.2228,-2.1666,-2.0843,-2.0938,-2.0775,-2.0249,-2.0215,-2.015,-2.0085,-2.0053,-2.027,-2.0704,0.0,0.0,0.0,0.0,0.0,0.0,0.0,0.0,0.0,0.0,0.0,0.0,0.0,0.0,0.0,-2.6834,0.0,-2.88,-2.8924,0.0,0.0,0.0,-3.2081,-3.2418,-3.3762,-3.4854,-3.5319,0.0,0.0,0.0,0.0,-3.7645,-3.7521,-3.8501,-3.9257,-3.9315,-3.9877,-4.0419,-4.1011,-4.1698,-4.2254,-4.252,-4.3156,-4.3588,-4.3484,-4.3926,-4.4072,-4.3719,-4.3993,-4.4106,-4.3491,-4.3403,-4.3184,-4.2679,-4.2252,-4.1834,-4.0543,-4.0233,-4.0312,-4.0717,-4.1014,-4.0924,-2.7347,-2.7173,-2.7283,-2.641,-2.5038,-2.5293,-2.5592,-2.5956,-2.6282,-2.6107,-2.5579,-2.5579,-2.5098,-2.4312,-2.4312,-2.4312,-2.4334,-2.4792,-2.5051,-2.5033,-2.5513,-2.5732,-2.5732,-2.5841,-2.5906,-2.5884,-2.5922,-2.5898,-2.5959,-2.5595,-2.5414,-2.5369,-2.4548,-2.3897,-2.3474,-2.359,-2.3575,-2.3464,-2.3464,-2.3429,-2.3298,-2.3064,-2.2812,-2.2587,-2.1992,-2.1605,-2.1469,-2.1128,-2.1105,-2.1381,-2.1403,-2.1597,-2.2026,-2.2117,0.0,0.0,0.0,0.0,0.0,0.0,0.0,0.0,0.0,-2.4472,-2.4974,0.0,-2.7103,0.0,-2.8591,-2.9611,-3.019,-3.1029,0.0,0.0,-3.3338,-3.4075,-3.4482,-3.5074,-3.5809,-3.6728,-3.7005,-3.7456,-3.8253,-3.8451,-3.8694,-3.9119,-3.9471,-3.9824,-4.0332,-4.094,-4.138,-4.1576,-4.2012,-4.2502,-4.3118,-4.3993,-4.4689,-4.494,-4.5096,-4.5092,-4.4772,-4.484,-4.4815,-4.449,-4.4256,-4.4049,-4.3717,-4.3307,-4.3009,-4.2785,-4.2023,-4.1492,-4.2059,-4.208,-4.1892,-2.8634,-2.8567,-2.8925,-2.8454,-2.7522,-2.7298,-2.7275,-2.7431,-2.7677,-2.7459,-2.6882,-2.6882,-2.6594,-2.6108,-2.6086,-2.6086,-2.6108,-2.6393,-2.6484,-2.6526,-2.6749,-2.6882,-2.6882,-2.6882,-2.6882,-2.6882,-2.701,-2.7053,-2.703,-2.6973,-2.6851,-2.6625,-2.6558,-2.6268,-2.5659,-2.5155,-2.4876,-2.4799,-2.4891,-2.4816,-2.4522,-2.4428,-2.4129,-2.356,-2.3279,-2.2925,-2.2624,-2.2465,-2.2474,-2.2733,-2.2756,-2.2958,-2.3406,-2.3521,-2.3709,0.0,0.0,0.0,0.0,0.0,0.0,0.0,0.0,0.0,0.0,0.0,-2.8833,0.0,-3.064,0.0,-3.1974,-3.2861,-3.3656,-3.4279,-3.4957,-3.5574,-3.5946,-3.6507,-3.7126,-3.7761,-3.8011,-3.8304,-3.8738,-3.887,-3.9299,-4.0246,-4.0469,-4.0677,-4.1135,-4.1745,-4.2158,-4.2187,-4.2596,-4.3236,-4.4017,-4.4894,-4.552,-4.5644,-4.5714,-4.5595,-4.5321,-4.5247,-4.523,-4.4954,-4.4815,-4.4583,-4.4256,-4.3974,-4.3835,-4.3922,-4.361,-4.3275,-4.3337,-4.3227,-4.3036,-2.9715,-2.9715,-2.992,-3.0034,-3.0034,-2.9554,-2.9056,-2.8565,-2.8813,-2.8634,-2.8185,-2.8161,-2.8095,-2.8095,-2.8095,-2.8095,-2.8095,-2.8095,-2.8095,-2.8095,-2.8095,-2.8095,-2.8095,-2.8095,-2.8095,-2.8095,-2.816,-2.8226,-2.8226,-2.8398,-2.83,-2.7889,-2.8286,-2.8262,-2.7819,-2.6586,-2.5977,-2.6093,-2.6191,-2.6146,-2.5846,-2.5922,-2.5469,-2.4388,-2.4558,-2.4372,-2.3747,-2.3794,-2.3893,-2.3966,-2.3966,-2.4232,-2.4826,-2.485,-2.5285,0.0,-2.6323,0.0,0.0,0.0,0.0,0.0,0.0,0.0,0.0,-2.9656,-3.0671,-3.1877,-3.2647,-3.3281,-3.3863,-3.4455,-3.5041,-3.5625,-3.6239,-3.6721,-3.7189,-3.7846,-3.8352,-3.8567,-3.876,-3.887,-3.8907,-3.9112,-3.975,-4.085,-4.136,-4.159,-4.1903,-4.2385,-4.275,-4.2769,-4.3419,-4.412,-4.4877,-4.5669,-4.6106,-4.5956,-4.5895,-4.5821,-4.5595,-4.5549,-4.5458,-4.5276,-4.5155,-4.5,-4.4612,-4.4518,-4.4424,-4.4422,-4.4716,-4.4823,-4.457,-4.4492,-4.4349,-3.0736,-3.0759,-3.0759,-3.0804,-3.0804,-3.0691,-3.0238,-2.9602,-2.9465,-2.9082,-2.8656,-2.8252,-2.8095,-2.8095,-2.8095,-2.8095,-2.8095,-2.8095,-2.8095,-2.8095,-2.8095,-2.8095,-2.8095,-2.8095,-2.8095,-2.8116,-2.8464,-2.868,-2.8637,-2.9044,-2.9168,-2.9075,-2.9371,-2.9534,0.0,0.0,0.0,0.0,-2.7368,-2.7188,-2.7127,-2.6736,-2.6443,-2.6164,-2.5428,0.0,-2.4783,-2.4434,-2.4418,-2.4802,-2.4826,0.0,0.0,0.0,0.0,0.0,0.0,0.0,0.0,0.0,0.0,0.0,-3.1052,-3.1393,-3.0935,-3.2434,-3.3598,-3.4008,-3.4306,-3.4659,-3.5131,-3.5667,-3.6249,-3.6687,-3.727,-3.7794,-3.8169,-3.8517,-3.876,-3.8943,-3.9156,-3.9265,-3.9324,-3.9785,-4.0412,-4.1219,-4.1833,-4.2432,-4.2872,-4.3081,-4.317,-4.326,-4.4002,-4.4697,-4.4709,-4.5566,-4.6166,-4.6135,-4.6001,-4.5895,-4.585,-4.5821,-4.5821,-4.5759,-4.5549,-4.5413,-4.5276,-4.4954,-4.4686,-4.4471,-4.508,-4.5581,-4.5321,-4.5498,-4.5502,-3.1139,0.0,-3.1407,-3.1472,0.0,-3.1496,-3.1294,-3.0892,-3.0465,-3.0101,-2.9848,-2.964,-2.9525,-2.9525,-2.9525,-2.9525,-2.9525,-2.9525,-2.9525,-2.9525,-2.9525,-2.9525,-2.9525,-2.9525,-2.9525,-2.9525,-2.979,-2.9922,-3.0053,-3.0379,-3.0453,-3.0276,-3.0555,-3.0604,-3.0438,-3.0376,-2.9794,-2.8713,-2.8532,-2.8336,-2.8201,-2.7953,-2.7457,-2.6865,0.0,0.0,0.0,0.0,0.0,0.0,0.0,0.0,0.0,0.0,0.0,-2.8621,-2.8782,-2.9159,-2.9919,-3.0641,-3.1322,-3.2014,-3.3338,-3.3799,-3.304,-3.4083,-3.4817,-3.5041,-3.5508,-3.59,-3.6225,-3.6796,-3.7252,-3.7552,-3.7953,-3.8306,-3.8493,-3.876,-3.898,-3.9119,-3.9301,-3.9529,-3.9822,-4.0157,-4.0816,-4.1722,-4.2171,-4.2611,-4.314,-4.329,-4.329,-4.3319,-4.4056,-4.4668,-4.4874,-4.5516,-4.6167,-4.6314,-4.6343,-4.6209,-4.6046,-4.6046,-4.6001,-4.594,-4.5805,-4.564,-4.5504,-4.5276,-4.5046,-4.4929,-4.5523,-4.6084,-4.5879,-4.6062,-4.6112,-3.1496,-3.154,-3.1913,-3.2089,-3.2089,-3.2089,-3.2089,-3.2045,0.0,0.0,0.0,-3.1074,-3.1074,-3.105,-3.1118,-3.1118,-3.1118,-3.1118,-3.1118,-3.1118,-3.1118,-3.1118,-3.1118,-3.1163,-3.1118,-3.1118,-3.1139,-3.1273,-3.1427,-3.1717,-3.1695,-3.1455,-3.1669,-3.1568,-3.1091,-3.1208,-3.0817,-2.9806,-2.9656,-2.9435,-2.9063,-2.8938,-2.8399,-2.7354,-2.7398,-2.7147,-2.6547,-2.6731,-2.681,-2.687,-2.7449,-2.7834,-2.7962,-2.8539,-2.9211,-2.9865,-3.0103,-3.0719,-3.1876,-3.2467,-3.3078,-3.3823,-3.5234,-3.5739,-3.5002,-3.533,-3.5713,-3.5898,-3.6539,-3.704,-3.7255,-3.7725,-3.8118,-3.8277,-3.8427,-3.8538,-3.8612,-3.89,-3.9149,-3.9311,-3.951,-3.9858,-4.0487,-4.0726,-4.1115,-4.2141,-4.25,-4.2701,-4.314,-4.329,-4.329,-4.3349,-4.3917,-4.4474,-4.4858,-4.5535,-4.6073,-4.6372,-4.6491,-4.6491,-4.6358,-4.6269,-4.618,-4.6001,-4.5911,-4.5821,-4.564,-4.5504,-4.5458,-4.523,-4.595,-4.6591,-4.6433,-4.6505,-4.6687,-3.2245,-3.2269,-3.2288,-3.2332,-3.2332,-3.2356,-3.2356,-3.2288,-3.1584,-3.1273,-3.1273,-3.1273,-3.1273,-3.1273,-3.1472,-3.1629,-3.1584,-3.1584,-3.1584,0.0,-3.1629,-3.1584,-3.1629,-3.1629,-3.1584,-3.1629,-3.1781,-3.1869,-3.1957,-3.2157,-3.2264,-3.2234,-3.2426,-3.2368,-3.2014,-3.2006,-3.1746,-3.112,-3.0628,-3.0192,-2.9679,-2.9139,-2.8813,-2.8625,-2.8222,-2.7971,-2.7835,-2.799,-2.8134,-2.816,-2.8416,-2.8743,-2.923,-2.949,-3.0217,-3.1458,-3.1753,-3.2349,-3.3322,-3.3657,-3.435,-3.5617,-3.6578,-3.6816,-3.625,-3.6798,-3.7339,-3.7557,-3.7812,-3.8086,-3.8273,-3.8479,-3.8649,-3.8723,-3.876,-3.8833,-3.8943,-3.9112,-3.943,-4.0054,-4.024,-4.0516,-4.1145,-4.1722,-4.2081,-4.244,-4.2791,-4.321,-4.326,-4.329,-4.329,-4.3379,-4.3858,-4.4276,-4.4534,-4.5335,-4.5862,-4.6057,-4.6387,-4.6594,-4.6535,-4.6535,-4.6447,-4.6225,-4.6135,-4.6046,-4.5866,-4.564,-4.5549,-4.547,-4.6232,-4.6871,-4.688,-4.7355,-4.7643,-3.255,-3.2593,-3.2748,-3.2766,-3.2766,-3.2766,-3.2766,-3.2748,-3.2288,-3.2025,-3.1893,-3.1893,-3.1893,-3.1893,-3.2025,-3.2069,-3.2069,-3.2069,-3.2069,-3.2069,-3.2069,-3.2069,-3.2069,-3.2094,-3.2069,-3.2069,-3.2157,-3.2288,-3.2394,-3.2506,-3.2636,-3.2766,-3.2853,-3.2857,-3.2692,-3.2794,-3.26,-3.207,-3.1514,-3.0983,-3.0388,-3.0227,-2.9859,-2.925,-2.8971,-2.8692,-2.845,-2.8497,-2.8605,-2.8713,-2.9176,-2.9606,-2.9975,-3.0871,-3.1702,-3.2346,-3.297,-3.3707,-3.4612,-3.5366,-3.6133,-3.6978,-3.7415,-3.7625,-3.7564,-3.7794,-3.8014,-3.8194,-3.8389,-3.8575,-3.8649,-3.876,-3.8767,-3.8767,-3.8907,-3.898,-3.9149,-3.9556,-3.9957,-4.0367,-4.0726,-4.1175,-4.1871,-4.2231,-4.256,-4.2821,-4.317,-4.329,-4.329,-4.329,-4.329,-4.3319,-4.3559,-4.3888,-4.4216,-4.4713,-4.5347,-4.6003,-4.6304,-4.6502,-4.6681,-4.6756,-4.6668,-4.6447,-4.6314,-4.618,-4.6046,-4.5866,-4.573,-4.583,-4.6512,-4.7119,-4.731,-4.7926,-4.8195,-3.2896,-3.2939,-3.3154,-3.324,-3.324,-3.324,-3.324,-3.3197,-3.3025,-3.2853,-3.268,-3.2574,-3.2463,-3.2487,-3.2531,-3.2574,-3.2574,-3.2574,-3.2574,-3.2574,-3.255,-3.255,-3.2574,-3.2574,-3.255,-3.2574,-3.2574,-3.2636,-3.2766,-3.281,-3.2896,-3.3068,-3.3154,-3.3154,-3.3154,-3.3368,-3.331,-3.2918,-3.2567,-3.199,-3.1207,-3.1315,-3.0958,-3.0189,-3.0021,-2.9739,-2.9365,-2.9321,-2.9352,-2.9558,-3.0273,-3.0771,-3.1007,-3.2337,-3.3209,-3.3447,-3.4197,-3.5024,-3.5875,-3.688,-3.7586,-3.7853,-3.8005,-3.8156,-3.8456,-3.8427,-3.8427,-3.8575,-3.8723,-3.887,-3.887,-3.8907,-3.8943,-3.8943,-3.9201,-3.943,-3.946,-4.0144,-4.0696,-4.0846,-4.1294,-4.1901,-4.244,-4.262,-4.2761,-4.314,-4.329,-4.329,-4.329,-4.329,-4.329,-4.329,-4.329,-4.3469,-4.3977,-4.4216,-4.4814,-4.5933,-4.619,-4.6493,-4.681,-4.6975,-4.6887,-4.6712,-4.6491,-4.6358,-4.6225,-4.609,-4.5956,-4.5953,-4.6726,-4.7538,-4.7904,-4.8419,-4.8631,-3.3428,-3.3598,-3.3641,-3.3641,-3.3641,-3.3641,-3.3641,-3.3641,-3.3641,-3.3598,-3.3513,-3.2957,-3.2723,-3.2723,-3.2939,-3.3025,-3.3025,-3.305,-3.305,-3.3075,-3.3025,-3.305,-3.3101,-3.305,-3.305,-3.3075,-3.3075,-3.3075,-3.3119,-3.3068,-3.3093,-3.3111,-3.3283,-3.3368,-3.3411,-3.3598,-3.3784,-3.3969,-3.41,-3.3472,-3.2074,-3.1997,-3.1946,-3.1843,-3.1526,-3.1306,-3.1228,-3.1116,-3.1077,-3.1167,-3.2006,-3.2552,-3.268,-3.3587,-3.4465,-3.5179,-3.552,-3.6095,-3.7031,-3.7567,-3.7853,-3.7891,-3.8269,-3.8456,-3.853,-3.8826,-3.8943,-3.887,-3.898,-3.9053,-3.909,-3.9258,-3.9361,-3.942,-3.9905,-4.027,-4.033,-4.0905,-4.1504,-4.2171,-4.2231,-4.256,-4.306,-4.314,-4.32,-4.326,-4.329,-4.329,-4.329,-4.329,-4.329,-4.329,-4.329,-4.3319,-4.3499,-4.3917,-4.4526,-4.5274,-4.5933,-4.6429,-4.6864,-4.7163,-4.7149,-4.6931,-4.6844,-4.6668,-4.6358,-4.618,-4.609,-4.6085,-4.6865,-4.8006,-4.8807,-4.919,-4.8959,-3.3641,-3.37,-3.37,-3.381,-3.3937,-3.3937,-3.4021,-3.4105,-3.4105,-3.4105,-3.4105,-3.381,-3.3556,-3.33,-3.3386,-3.3471,-3.3496,-3.3852,-3.4005,-3.403,-3.4336,-3.4532,-3.4532,-3.4532,-3.4532,-3.4481,-3.4158,-3.4005,-3.3929,-3.3649,-3.3471,-3.3471,-3.3556,-3.3641,-3.3836,-3.4021,-3.4314,-3.4714,-3.4895,-3.4778,-3.4406,-3.3674,-3.3212,-3.3053,-3.2893,-3.28,-3.2812,-3.2867,-3.295,-3.3063,-3.3581,-3.3906,-3.4018,-3.4974,-3.5685,-3.6013,-3.6684,-3.7225,-3.7634,-3.8043,-3.824,-3.8269,-3.8501,-3.8723,-3.8863,-3.9046,-3.909,-3.9162,-3.9228,-3.9265,-3.9294,-3.9695,-4.0008,-4.0068,-4.0576,-4.0965,-4.0995,-4.1564,-4.2111,-4.2381,-4.2701,-4.3,-4.323,-4.329,-4.329,-4.329,-4.329,-4.329,-4.329,-4.329,-4.329,-4.329,-4.329,-4.329,-4.3319,-4.3469,-4.4018,-4.4616,-4.5274,-4.5933,-4.6591,-4.71,-4.7266,-4.7149,-4.7019,-4.6844,-4.6491,-4.6269,-4.6135,-4.6218,-4.6911,-4.8112,-4.9291,-4.9522,-4.9277,-3.4021,-3.4105,-3.4147,-3.4314,-3.4522,-3.4522,-3.4605,-3.4729,-3.4771,-3.485,-3.4982,-3.5009,-3.4921,-3.4757,-3.4373,-3.4178,-3.4452,-3.4839,-3.5089,-3.5158,-3.559,-3.5815,-3.5859,-3.5929,-3.5859,-3.5719,-3.5357,-3.5089,-3.4994,-3.4633,-3.4323,-3.4152,-3.4211,-3.4234,-3.4382,-3.4564,-3.4936,-3.5386,-3.5588,-3.5871,-3.6148,-3.5462,-3.479,-3.4434,-3.431,-3.4267,-3.4267,-3.4295,-3.4403,-3.4554,-3.4881,-3.518,-3.5358,-3.6222,-3.6788,-3.6968,-3.7633,-3.8081,-3.8127,-3.8389,-3.8575,-3.8642,-3.8907,-3.921,-3.9387,-3.9572,-3.9801,-3.9941,-3.9948,-3.9948,-3.9768,-4.0277,-4.0636,-4.0726,-4.1235,-4.1662,-4.1722,-4.2261,-4.2611,-4.2671,-4.303,-4.329,-4.329,-4.329,-4.329,-4.329,-4.329,-4.329,-4.329,-4.329,-4.329,-4.329,-4.329,-4.329,-4.329,-4.3349,-4.3589,-4.4137,-4.4796,-4.5334,-4.604,-4.677,-4.7219,-4.7073,-4.7003,-4.6931,-4.6712,-4.6491,-4.6297,-4.6392,-4.7027,-4.8101,-4.9069,-4.9465,-4.962,-3.4812,-3.5086,-3.5249,-3.5507,-3.5656,-3.5683,-3.5683,-3.5778,-3.571,-3.6022,-3.6482,-3.651,-3.6835,-3.728,-3.6008,-3.5564,-3.6035,-3.6114,-3.6271,-3.6462,-3.6515,-3.6645,-3.686,-3.686,-3.6758,-3.6664,-3.6515,-3.6305,-3.6114,-3.6088,-3.5783,-3.5276,-3.542,-3.5368,-3.5245,-3.5397,-3.5669,-3.6258,-3.6338,-3.6626,-3.7134,-3.6989,-3.6593,-3.6191,-3.5881,-3.568,-3.5662,-3.5349,-3.518,-3.518,-3.5892,-3.6325,-3.642,-3.7111,-3.7729,-3.8069,-3.8352,-3.8538,-3.8686,-3.8789,-3.8826,-3.8922,-3.9602,-4.004,-4.0107,-4.0674,-4.1085,-4.1272,-4.1175,-4.0995,-4.0576,-4.0965,-4.1362,-4.1422,-4.1961,-4.2321,-4.2381,-4.2821,-4.32,-4.32,-4.326,-4.329,-4.329,-4.329,-4.329,-4.329,-4.329,-4.329,-4.329,-4.329,-4.329,-4.329,-4.329,-4.329,-4.329,-4.329,-4.3589,-4.4018,-4.4336,-4.4825,-4.5622,-4.6369,-4.677,-4.71,-4.7176,-4.7135,-4.6931,-4.6786,-4.6636,-4.6745,-4.7218,-4.8101,-4.8856,-4.9349,-4.9562,-3.5723,-3.6348,-3.6811,-3.7222,-3.7551,-3.7551,-3.7632,-3.7754,-3.7754,-3.7866,-3.806,-3.806,-3.8422,-3.8963,-3.8448,-3.7791,-3.7171,-3.745,-3.7768,-3.7968,-3.8336,-3.8613,-3.8858,-3.8901,-3.8858,-3.8717,-3.819,-3.7666,-3.7128,-3.7102,-3.6994,-3.6807,-3.6838,-3.6914,-3.7084,-3.7154,-3.7316,-3.7545,-3.7569,-3.7675,-3.7844,-3.7787,-3.7758,-3.7843,-3.7139,-3.6785,-3.6747,-3.675,-3.6751,-3.6751,-3.713,-3.7433,-3.7584,-3.8057,-3.8427,-3.8546,-3.8649,-3.8723,-3.8826,-3.9328,-3.9639,-3.9699,-4.045,-4.092,-4.098,-4.1197,-4.1422,-4.1512,-4.1841,-4.1871,-4.1811,-4.1931,-4.2051,-4.2111,-4.2581,-4.297,-4.3,-4.314,-4.329,-4.329,-4.329,-4.329,-4.329,-4.329,-4.329,-4.329,-4.329,-4.329,-4.329,-4.329,-4.329,-4.329,-4.329,-4.329,-4.329,-4.329,-4.3439,-4.3648,-4.4007,-4.4646,-4.5394,-4.6052,-4.6471,-4.71,-4.7309,-4.7222,-4.6931,-4.6697,-4.6607,-4.6803,-4.7306,-4.8003,-4.8595,-4.9175,-4.9524,-3.711,-3.7729,-3.8145,-3.8518,-3.8846,-3.8915,-3.8968,-3.9118,-3.9118,-3.9231,-3.9401,-3.943,-3.9769,-4.0265,-4.0322,-3.9943,-3.9142,-3.9149,-3.9274,-3.9544,-4.0126,-4.0535,-4.0737,-4.0976,-4.0904,-4.0523,-3.9821,-3.9124,-3.8666,-3.8611,-3.8501,-3.8336,-3.8308,-3.8366,-3.8532,-3.8518,-3.8608,-3.874,-3.8882,-3.8841,-3.8647,-3.8672,-3.8706,-3.8679,-3.8165,-3.7787,-3.7787,-3.7901,-3.8005,-3.7976,-3.8118,-3.824,-3.8389,-3.8649,-3.8833,-3.8907,-3.8907,-3.9032,-3.9343,-3.9869,-4.0271,-4.0539,-4.1249,-4.1722,-4.1752,-4.1893,-4.2013,-4.2132,-4.2372,-4.271,-4.2671,-4.2671,-4.2671,-4.2701,-4.306,-4.329,-4.329,-4.329,-4.329,-4.329,-4.329,-4.329,-4.329,-4.329,-4.329,-4.329,-4.329,-4.329,-4.329,-4.329,-4.329,-4.329,-4.329,-4.329,-4.3319,-4.3319,-4.3349,-4.3529,-4.3678,-4.4347,-4.5125,-4.5723,-4.6352,-4.701,-4.7266,-4.7135,-4.6931,-4.6624,-4.6622,-4.6716,-4.734,-4.8039,-4.8603,-4.9117,-4.9514,-3.9009,-3.9199,-3.9228,-3.9463,-3.9693,-3.9734,-3.9608,-3.9705,-3.9705,-4.0089,-4.0547,-4.0535,-4.092,-4.1352,-4.1522,-4.1695,-4.1882,-4.1255,-4.0971,-4.1171,-4.1724,-4.2137,-4.2353,-4.2868,-4.2708,-4.2051,-4.1197,-4.0787,-4.0759,-4.0674,-4.0393,-3.9901,-3.983,-3.9702,-3.9297,-3.9479,-3.9527,-3.979,-4.0068,-3.9945,-3.9622,-3.9686,-3.9534,-3.904,-3.8907,-3.8878,-3.8819,-3.8789,-3.8686,-3.8694,-3.873,-3.8767,-3.8797,-3.8833,-3.8907,-3.9142,-3.9149,-3.9556,-4.0233,-4.0449,-4.0838,-4.1354,-4.2051,-4.241,-4.2432,-4.2851,-4.311,-4.308,-4.314,-4.323,-4.323,-4.326,-4.326,-4.326,-4.329,-4.329,-4.329,-4.329,-4.329,-4.329,-4.329,-4.329,-4.329,-4.329,-4.329,-4.329,-4.329,-4.3349,-4.3439,-4.3469,-4.3379,-4.3439,-4.3618,-4.3798,-4.3559,-4.3349,-4.3379,-4.3439,-4.3559,-4.3947,-4.4945,-4.5693,-4.6352,-4.698,-4.7279,-4.7222,-4.6975,-4.6712,-4.6698,-4.6916,-4.7558,-4.8197,-4.8705,-4.9241,-4.9659,-4.0179,-4.0562,-4.0965,-4.1343,-4.1668,-4.1708,-4.1737,-4.1708,-4.1708,-4.1825,-4.2,-4.203,-4.238,-4.2877,-4.2994,-4.3345,-4.3858,-4.3584,-4.3327,-4.3156,-4.3415,-4.3673,-4.3903,-4.4192,-4.4035,-4.3631,-4.3299,-4.3098,-4.284,-4.2481,-4.2178,-4.1935,-4.1504,-4.134,-4.1372,-4.1384,-4.136,-4.1123,-4.1184,-4.1048,-4.0651,-4.0668,-4.0626,-4.0599,-4.0606,-4.039,-3.9913,-3.918,-3.8833,-3.8833,-3.8767,-3.887,-3.901,-3.9156,-3.9437,-3.9898,-3.9994,-4.0293,-4.1025,-4.1474,-4.1811,-4.2171,-4.2671,-4.297,-4.303,-4.317,-4.3319,-4.3319,-4.329,-4.329,-4.3349,-4.3708,-4.3798,-4.3349,-4.329,-4.3379,-4.3409,-4.3379,-4.329,-4.329,-4.329,-4.329,-4.3319,-4.3349,-4.3409,-4.3409,-4.3379,-4.3499,-4.3858,-4.3947,-4.4227,-4.4556,-4.4586,-4.4496,-4.4377,-4.4287,-4.4287,-4.4197,-4.4067,-4.4246,-4.5095,-4.5723,-4.6352,-4.686,-4.716,-4.7222,-4.7019,-4.7006,-4.7022,-4.7302,-4.7962,-4.8505,-4.8958,-4.9391,-4.99,-4.1453,-4.1726,-4.2106,-4.2404,-4.2688,-4.2688,-4.2688,-4.2718,-4.2953,-4.3042,-4.3071,-4.3337,-4.3632,-4.4027,-4.4086,-4.444,-4.5001,-4.5145,-4.5135,-4.4995,-4.4832,-4.4902,-4.4988,-4.506,-4.4945,-4.4801,-4.4552,-4.4379,-4.4222,-4.3871,-4.3595,-4.3507,-4.2952,-4.2714,-4.2808,-4.2602,-4.2331,-4.2128,-4.2149,-4.1972,-4.1585,-4.1543,-4.1509,-4.1414,-4.1422,-4.1175,-4.0719,-4.0115,-3.9521,-3.9135,-3.9017,-3.9208,-3.9526,-3.9725,-4.0068,-4.0606,-4.0816,-4.1055,-4.1722,-4.2141,-4.253,-4.2731,-4.309,-4.329,-4.3319,-4.3439,-4.3648,-4.3648,-4.3917,-4.4037,-4.4137,-4.4407,-4.4466,-4.4137,-4.4107,-4.4037,-4.4037,-4.4077,-4.4077,-4.4097,-4.4137,-4.4037,-4.4077,-4.4077,-4.4077,-4.4077,-4.4077,-4.4137,-4.4556,-4.4676,-4.5005,-4.5185,-4.5095,-4.5095,-4.5214,-4.5214,-4.5214,-4.5035,-4.4855,-4.5125,-4.5663,-4.5992,-4.6429,-4.695,-4.7309,-4.7309,-4.7135,-4.7463,-4.7643,-4.8074,-4.8367,-4.8925,-4.9469,-4.9923,-5.0298,-4.2688,-4.2729,-4.2729,-4.2758,-4.2887,-4.2887,-4.2946,-4.3035,-4.3537,-4.3844,-4.3921,-4.4376,-4.4731,-4.4778,-4.4849,-4.5204,-4.5634,-4.5968,-4.6321,-4.6399,-4.6105,-4.5766,-4.5766,-4.5795,-4.5766,-4.5664,-4.5221,-4.4984,-4.503,-4.4896,-4.4765,-4.4676,-4.4128,-4.3744,-4.3567,-4.3123,-4.2828,-4.275,-4.2881,-4.2664,-4.2158,-4.2285,-4.2192,-4.1654,-4.1624,-4.1594,-4.1444,-4.1227,-4.0659,-3.9702,-3.9606,-3.9875,-4.0337,-4.0457,-4.0756,-4.1354,-4.1444,-4.1803,-4.2291,-4.25,-4.2761,-4.3329,-4.3379,-4.3379,-4.3618,-4.4107,-4.4377,-4.4407,-4.4825,-4.5155,-4.5155,-4.5304,-4.5334,-4.5436,-4.5185,-4.5125,-4.5244,-4.5185,-4.5065,-4.5125,-4.5244,-4.5244,-4.5095,-4.5095,-4.5125,-4.5125,-4.5095,-4.5125,-4.5304,-4.5364,-4.5394,-4.5544,-4.5783,-4.5843,-4.6022,-4.6022,-4.6052,-4.5992,-4.5753,-4.5873,-4.607,-4.6279,-4.6548,-4.704,-4.7309,-4.7309,-4.7385,-4.7714,-4.8059,-4.8373,-4.8862,-4.9482,-5.0028,-5.0455,-5.0632,-4.2809,-4.293,-4.29,-4.3278,-4.3856,-4.3886,-4.4154,-4.4601,-4.475,-4.487,-4.4929,-4.5049,-4.5424,-4.5811,-4.5871,-4.6241,-4.6688,-4.6881,-4.6983,-4.7163,-4.703,-4.6867,-4.6867,-4.6867,-4.6837,-4.6734,-4.6556,-4.6629,-4.6569,-4.6049,-4.5871,-4.5853,-4.5186,-4.4631,-4.4184,-4.3964,-4.3617,-4.319,-4.32,-4.318,-4.3031,-4.305,-4.2961,-4.2811,-4.2791,-4.2551,-4.2141,-4.1662,-4.1265,-4.0965,-4.0876,-4.0905,-4.1085,-4.1115,-4.1414,-4.2021,-4.2171,-4.2402,-4.291,-4.306,-4.3389,-4.3958,-4.4007,-4.4257,-4.4736,-4.4915,-4.5035,-4.5065,-4.5244,-4.5334,-4.5394,-4.5783,-4.6244,-4.6731,-4.6089,-4.5436,-4.5394,-4.5274,-4.5274,-4.5274,-4.5334,-4.5394,-4.5424,-4.5424,-4.5424,-4.5394,-4.5454,-4.5574,-4.5903,-4.6052,-4.6082,-4.6591,-4.686,-4.683,-4.686,-4.686,-4.686,-4.692,-4.6741,-4.6561,-4.6651,-4.6668,-4.695,-4.7279,-4.7309,-4.7309,-4.7519,-4.7818,-4.8178,-4.8761,-4.9477,-5.016,-5.0594,-5.1041,-5.1041,-4.301,-4.313,-4.3439,-4.3917,-4.4468,-4.4779,-4.518,-4.5593,-4.5894,-4.5973,-4.592,-4.619,-4.6436,-4.6711,-4.6741,-4.692,-4.7279,-4.7309,-4.7309,-4.7309,-4.7279,-4.7236,-4.7309,-4.7309,-4.7309,-4.7309,-4.7309,-4.7279,-4.7219,-4.689,-4.677,-4.6578,-4.6052,-4.5514,-4.5203,-4.4825,-4.4556,-4.4216,-4.4167,-4.4127,-4.4167,-4.3868,-4.3708,-4.3618,-4.3469,-4.312,-4.2731,-4.2402,-4.1983,-4.1534,-4.1384,-4.1504,-4.1811,-4.1841,-4.2102,-4.2701,-4.2761,-4.306,-4.3599,-4.3708,-4.4047,-4.4556,-4.4736,-4.4915,-4.5244,-4.5514,-4.5723,-4.5723,-4.5963,-4.6112,-4.6202,-4.6616,-4.7074,-4.7468,-4.6973,-4.6364,-4.6281,-4.6286,-4.6142,-4.6142,-4.6142,-4.6142,-4.6142,-4.6112,-4.6112,-4.6172,-4.6262,-4.6441,-4.6651,-4.6711,-4.68,-4.713,-4.7309,-4.716,-4.71,-4.71,-4.71,-4.7189,-4.7189,-4.707,-4.704,-4.701,-4.713,-4.7279,-4.7309,-4.7429,-4.7728,-4.8177,-4.885,-4.9508,-5.0166,-5.0614,-5.105,-5.1229,-5.1229,-4.3319,-4.3439,-4.4077,-4.4569,-4.5001,-4.5595,-4.6051,-4.6366,-4.6882,-4.7012,-4.6936,-4.7365,-4.7387,-4.7396,-4.7246,-4.7322,-4.7352,-4.7459,-4.7578,-4.7638,-4.7668,-4.7698,-4.7698,-4.7399,-4.7399,-4.7489,-4.7429,-4.7459,-4.7489,-4.7429,-4.7339,-4.713,-4.6651,-4.6339,-4.6052,-4.5633,-4.5394,-4.5155,-4.5065,-4.5035,-4.4975,-4.4646,-4.4436,-4.4347,-4.3808,-4.3529,-4.3379,-4.32,-4.2722,-4.1654,-4.1564,-4.1953,-4.2432,-4.25,-4.2701,-4.318,-4.3359,-4.3688,-4.4197,-4.4317,-4.4706,-4.5244,-4.5394,-4.5454,-4.5723,-4.6142,-4.6369,-4.6411,-4.698,-4.707,-4.7216,-4.7465,-4.7691,-4.7934,-4.7916,-4.7892,-4.7709,-4.7482,-4.7309,-4.7309,-4.7279,-4.7309,-4.7309,-4.7309,-4.7249,-4.677,-4.686,-4.692,-4.704,-4.704,-4.71,-4.7219,-4.7309,-4.7309,-4.7279,-4.7279,-4.7279,-4.7279,-4.7279,-4.7219,-4.7219,-4.7219,-4.7249,-4.7339,-4.7519,-4.7758,-4.8087,-4.8686,-4.9464,-5.0002,-5.0465,-5.09,-5.1229,-5.1229,-5.1229,-4.3589,-4.4107,-4.4489,-4.5232,-4.6199,-4.6731,-4.7272,-4.7801,-4.7954,-4.7985,-4.792,-4.7946,-4.788,-4.7837,-4.7624,-4.7538,-4.7645,-4.7979,-4.8371,-4.888,-4.8835,-4.888,-4.861,-4.7921,-4.7638,-4.7938,-4.8087,-4.8087,-4.8087,-4.7997,-4.7788,-4.7339,-4.716,-4.6787,-4.6339,-4.6232,-4.5813,-4.5424,-4.5334,-4.5424,-4.5424,-4.5244,-4.5065,-4.4975,-4.4436,-4.4097,-4.3947,-4.3559,-4.317,-4.2961,-4.2871,-4.2901,-4.303,-4.312,-4.321,-4.3449,-4.3868,-4.4197,-4.4377,-4.4855,-4.5364,-4.5992,-4.6112,-4.6322,-4.683,-4.692,-4.707,-4.71,-4.7219,-4.7412,-4.7718,-4.7812,-4.8128,-4.8358,-4.8351,-4.8248,-4.8091,-4.7752,-4.7495,-4.7396,-4.7352,-4.7309,-4.7309,-4.7309,-4.7309,-4.7309,-4.7309,-4.7309,-4.7309,-4.7309,-4.7309,-4.7309,-4.7309,-4.7309,-4.7309,-4.7309,-4.7309,-4.7309,-4.7309,-4.7489,-4.7489,-4.7459,-4.7519,-4.7638,-4.7818,-4.8147,-4.8626,-4.9254,-5.0032,-5.0375,-5.0704,-5.102,-5.1229,-5.1229,-5.1229,-4.4507,-4.4989,-4.5413,-4.6172,-4.7098,-4.767,-4.8255,-4.8697,-4.8769,-4.8718,-4.8593,-4.8385,-4.826,-4.8133,-4.7952,-4.7946,-4.8369,-4.8857,-4.9251,-4.9597,-4.9583,-4.9583,-4.9553,-4.8966,-4.8711,-4.8805,-4.8849,-4.8879,-4.873,-4.8446,-4.8087,-4.7758,-4.7489,-4.716,-4.683,-4.677,-4.6621,-4.6381,-4.6232,-4.6232,-4.6232,-4.5933,-4.5544,-4.5334,-4.4945,-4.4676,-4.4287,-4.4018,-4.3798,-4.3738,-4.3738,-4.3589,-4.3439,-4.3589,-4.3778,-4.3898,-4.4407,-4.4945,-4.5274,-4.5574,-4.6052,-4.6711,-4.677,-4.695,-4.7219,-4.7309,-4.7489,-4.7668,-4.7862,-4.8009,-4.8615,-4.8849,-4.9035,-4.9273,-4.9113,-4.8917,-4.8699,-4.8219,-4.7752,-4.7624,-4.7697,-4.7697,-4.7624,-4.7555,-4.7469,-4.7542,-4.7399,-4.7399,-4.7309,-4.7309,-4.7309,-4.7309,-4.7309,-4.7309,-4.7309,-4.7309,-4.7309,-4.7309,-4.7309,-4.7608,-4.7848,-4.7818,-4.7818,-4.8027,-4.8327,-4.8895,-4.9404,-5.0032,-5.0375,-5.078,-5.105,-5.1169,-5.1229,-5.1229,-5.1229,-4.5488,-4.5886,-4.6471,-4.7117,-4.7794,-4.8481,-4.8944,-4.9259,-4.934,-4.921,-4.9078,-4.88,-4.8646,-4.8469,-4.8454,-4.8755,-4.94,-4.9874,-5.0255,-5.0498,-5.0529,-5.0529,-5.0512,-5.0465,-5.0316,-4.9869,-4.9824,-4.9719,-4.9479,-4.8999,-4.8818,-4.8399,-4.7802,-4.7516,-4.7382,-4.7309,-4.7189,-4.71,-4.707,-4.71,-4.71,-4.6681,-4.6232,-4.5873,-4.5544,-4.5274,-4.4885,-4.4616,-4.4466,-4.4466,-4.4466,-4.4167,-4.3917,-4.4077,-4.4466,-4.4496,-4.5095,-4.5603,-4.598,-4.6352,-4.6711,-4.7279,-4.7279,-4.7279,-4.7309,-4.7489,-4.7788,-4.8087,-4.8371,-4.8803,-4.9775,-4.9772,-5.0066,-5.0309,-4.9977,-4.9627,-4.9273,-4.8602,-4.8152,-4.7964,-4.788,-4.7837,-4.7928,-4.7946,-4.7817,-4.7761,-4.7649,-4.7549,-4.7519,-4.7459,-4.7549,-4.7459,-4.7459,-4.7339,-4.7309,-4.7309,-4.7309,-4.7429,-4.7399,-4.7818,-4.8267,-4.8626,-4.8716,-4.8656,-4.8955,-4.9523,-4.9972,-5.0361,-5.075,-5.1109,-5.1229,-5.1229,-5.1229,-5.1229,-5.1229,-4.5728,-4.649,-4.6985,-4.7681,-4.8502,-4.9147,-4.9421,-4.9573,-4.9541,-4.9501,-4.9493,-4.9259,-4.9169,-4.9181,-4.9543,-5.0198,-5.0857,-5.1185,-5.1389,-5.1725,-5.1787,-5.1831,-5.186,-5.2052,-5.2175,-5.1907,-5.1347,-5.0863,-5.0728,-5.0577,-4.9866,-4.9078,-4.8571,-4.817,-4.7765,-4.7426,-4.7532,-4.7622,-4.7549,-4.7519,-4.7369,-4.716,-4.698,-4.6711,-4.6352,-4.601,-4.5771,-4.5394,-4.5125,-4.5125,-4.5155,-4.5065,-4.5035,-4.5125,-4.5226,-4.5274,-4.5783,-4.6262,-4.6441,-4.683,-4.713,-4.7309,-4.7412,-4.7442,-4.7532,-4.7862,-4.8325,-4.8595,-4.8984,-4.9374,-4.9583,-5.0092,-5.0191,-5.024,-5.0181,-4.9866,-4.9639,-4.9124,-4.86,-4.8523,-4.8274,-4.8183,-4.8408,-4.8536,-4.8559,-4.8598,-4.8635,-4.8549,-4.852,-4.8297,-4.8117,-4.7908,-4.7638,-4.7459,-4.7309,-4.7309,-4.7339,-4.7578,-4.7728,-4.8177,-4.8686,-4.9464,-4.9703,-4.9583,-4.9643,-5.0062,-5.0451,-5.072,-5.093,-5.1199,-5.1229,-5.1229,-5.1229,-5.1229,-5.1229,-4.6798,-4.7395,-4.7782,-4.8337,-4.8984,-4.9421,-4.9693,-4.9773,-4.9773,-4.9741,-4.9661,-4.9541,-4.9452,-4.9568,-4.9936,-5.0858,-5.1816,-5.2348,-5.2582,-5.286,-5.2891,-5.2935,-5.3024,-5.329,-5.329,-5.3108,-5.2639,-5.2086,-5.1651,-5.1271,-5.0739,-5.015,-4.9563,-4.9169,-4.887,-4.8665,-4.8517,-4.8473,-4.8355,-4.8117,-4.7788,-4.7549,-4.7339,-4.7219,-4.701,-4.6681,-4.6249,-4.604,-4.5843,-4.5813,-4.5813,-4.6022,-4.6244,-4.6346,-4.6299,-4.6065,-4.6526,-4.6929,-4.7001,-4.7417,-4.7787,-4.8149,-4.8136,-4.839,-4.8662,-4.9024,-4.9281,-4.9703,-5.0291,-5.0774,-5.1075,-5.1029,-5.1269,-5.14,-5.1054,-5.0728,-5.0586,-5.0148,-4.9755,-4.9309,-4.9055,-4.8993,-4.9124,-4.9243,-4.9334,-4.9378,-4.9521,-4.9524,-4.9494,-4.9075,-4.8745,-4.8267,-4.7967,-4.7758,-4.7608,-4.7638,-4.7698,-4.7878,-4.8177,-4.8626,-4.9134,-4.9867,-5.0285,-5.0451,-5.0601,-5.0584,-5.081,-5.102,-5.1139,-5.1229,-5.1229,-5.1229,-5.1229,-5.1229,-5.1259,-4.7752,-4.8049,-4.851,-4.8893,-4.9331,-4.9541,-4.9741,-4.986,-4.9892,-4.9892,-4.986,-4.9733,-4.9756,-5.0061,-5.0734,-5.1654,-5.2813,-5.3377,-5.3533,-5.3565,-5.3596,-5.3683,-5.3813,-5.3899,-5.3931,-5.3899,-5.3707,-5.3377,-5.2558,-5.2041,-5.1556,-5.107,-5.0523,-5.0117,-4.9951,-4.9593,-4.9716,-4.9613,-4.9479,-4.9044,-4.8491,-4.7878,-4.7489,-4.7459,-4.7369,-4.704,-4.6651,-4.6604,-4.6574,-4.6586,-4.6689,-4.6869,-4.7362,-4.7581,-4.74,-4.7074,-4.74,-4.7666,-4.792,-4.8049,-4.8498,-4.9044,-4.9148,-4.9496,-4.9799,-4.9998,-5.0512,-5.1212,-5.1637,-5.1942,-5.1911,-5.22,-5.2336,-5.2362,-5.2065,-5.1678,-5.1562,-5.1289,-5.092,-5.0474,-4.9957,-4.9916,-5.0204,-5.0395,-5.0506,-5.0476,-5.0545,-5.0442,-5.0321,-4.9748,-4.9314,-4.8686,-4.8297,-4.8057,-4.7997,-4.8087,-4.8237,-4.8476,-4.8865,-4.9284,-4.9763,-5.0285,-5.0614,-5.093,-5.099,-5.102,-5.1169,-5.1229,-5.1229,-5.1229,-5.1229,-5.1229,-5.1229,-5.1289,-5.1349,-4.7752,-4.8049,-4.8676,-4.9087,-4.934,-4.9661,-4.986,-4.99,-4.9931,-4.99,-4.9931,-4.9923,-5.0208,-5.1006,-5.2299,-5.3323,-5.3925,-5.4147,-5.42,-5.42,-5.4242,-5.4242,-5.437,-5.4571,-5.4571,-5.4528,-5.437,-5.3942,-5.3346,-5.2945,-5.2502,-5.1907,-5.1444,-5.0961,-5.0669,-5.0493,-4.9938,-4.9954,-4.9762,-4.9479,-4.9134,-4.855,-4.8237,-4.8071,-4.7772,-4.7472,-4.7426,-4.7525,-4.7538,-4.7551,-4.7734,-4.7819,-4.7922,-4.7922,-4.8298,-4.8347,-4.8347,-4.8207,-4.8723,-4.8931,-4.9278,-4.9826,-4.9978,-4.9921,-5.0432,-5.0961,-5.1495,-5.2047,-5.2261,-5.2261,-5.2291,-5.2291,-5.2442,-5.2513,-5.2427,-5.2262,-5.2206,-5.225,-5.1954,-5.1925,-5.1455,-5.1351,-5.1423,-5.1573,-5.1716,-5.1611,-5.1544,-5.1364,-5.0984,-5.0349,-4.9883,-4.9284,-4.8805,-4.8566,-4.8476,-4.8536,-4.8805,-4.9075,-4.9434,-4.9853,-5.0255,-5.0644,-5.0883,-5.1169,-5.1229,-5.1229,-5.1229,-5.1229,-5.1229,-5.1289,-5.1349,-5.1319,-5.1229,-5.1349,-5.1648,-4.788,-4.8049,-4.8841,-4.921,-4.934,-4.9701,-4.9971,-5.0089,-5.0129,-5.0129,-5.0129,-5.0129,-5.0731,-5.1882,-5.2972,-5.386,-5.4485,-5.4655,-5.4613,-5.4613,-5.4655,-5.4697,-5.479,-5.4906,-5.4948,-5.4948,-5.479,-5.4539,-5.4028,-5.364,-5.319,-5.2828,-5.256,-5.2454,-5.1827,-5.1819,-5.1703,-5.1344,-5.0743,-5.014,-4.987,-4.9359,-4.8925,-4.9028,-4.8727,-4.8651,-4.8752,-4.887,-4.8957,-4.9001,-4.9174,-4.9304,-4.939,-4.9549,-4.9873,-5.0039,-5.0074,-4.9916,-4.9787,-4.9934,-5.0302,-5.0818,-5.1076,-5.1405,-5.1801,-5.2167,-5.2533,-5.2874,-5.2802,-5.2698,-5.2608,-5.2698,-5.2788,-5.2843,-5.2847,-5.2916,-5.2934,-5.2989,-5.295,-5.2995,-5.2997,-5.2786,-5.2502,-5.2297,-5.2293,-5.2219,-5.197,-5.1607,-5.121,-5.0619,-5.0228,-4.9912,-4.9464,-4.9149,-4.909,-4.909,-4.9404,-4.9643,-4.9823,-5.0196,-5.069,-5.105,-5.1169,-5.1229,-5.1229,-5.1229,-5.1229,-5.1289,-5.1319,-5.1409,-5.1528,-5.1648,-5.1828,-5.2276,-5.2665,-4.8007,-4.8091,-4.8965,-4.9259,-4.934,-4.9781,-5.0129,-5.0317,-5.0324,-5.0395,-5.0522,-5.0777,-5.167,-5.269,-5.3528,-5.4323,-5.4864,-5.4938,-5.498,-5.498,-5.498,-5.5031,-5.5113,-5.5196,-5.5196,-5.5155,-5.5072,-5.4832,-5.4571,-5.4231,-5.3888,-5.354,-5.324,-5.3284,-5.3346,-5.3077,-5.2781,-5.2393,-5.1621,-5.1152,-5.0819,-5.0171,-4.9944,-4.9869,-4.9867,-4.9835,-5.0056,-5.0127,-5.0096,-5.0197,-5.0383,-5.0451,-5.0525,-5.0665,-5.1064,-5.1262,-5.1421,-5.1534,-5.137,-5.1376,-5.1518,-5.1945,-5.2324,-5.2654,-5.329,-5.3596,-5.3596,-5.3552,-5.3421,-5.3321,-5.3188,-5.3144,-5.3233,-5.3365,-5.3477,-5.3596,-5.3726,-5.371,-5.3787,-5.3851,-5.3872,-5.3957,-5.3618,-5.3044,-5.2854,-5.2798,-5.2427,-5.1926,-5.1391,-5.0783,-5.0647,-5.0421,-5.0301,-4.9972,-4.9942,-4.9942,-5.0152,-5.0182,-5.0315,-5.0524,-5.096,-5.1139,-5.1199,-5.1229,-5.1289,-5.1439,-5.1588,-5.1498,-5.1468,-5.1738,-5.2007,-5.2306,-5.2606,-5.3084,-5.3443,-4.8007,-4.8091,-4.8934,-4.9259,-4.9372,-5.001,-5.0246,-5.0356,-5.0512,-5.0621,-5.0845,-5.1861,-5.282,-5.3597,-5.4329,-5.4902,-5.5072,-5.5246,-5.5287,-5.5287,-5.5328,-5.5287,-5.5328,-5.5328,-5.5328,-5.5328,-5.5237,-5.5113,-5.4989,-5.4739,-5.4306,-5.3833,-5.3758,-5.364,-5.364,-5.3596,-5.329,-5.2966,-5.2469,-5.2153,-5.1774,-5.1228,-5.0939,-5.0788,-5.0407,-5.01,-5.0319,-5.0764,-5.0999,-5.1172,-5.146,-5.1619,-5.1724,-5.1809,-5.2124,-5.2533,-5.2701,-5.2932,-5.311,-5.2684,-5.2648,-5.3065,-5.3427,-5.3581,-5.3985,-5.4242,-5.42,-5.4028,-5.3931,-5.3758,-5.3509,-5.3421,-5.3627,-5.3758,-5.3931,-5.4146,-5.4274,-5.4444,-5.4507,-5.4655,-5.4613,-5.4454,-5.42,-5.3561,-5.3196,-5.3082,-5.2382,-5.1864,-5.1509,-5.102,-5.1079,-5.102,-5.105,-5.096,-5.099,-5.096,-5.078,-5.072,-5.084,-5.096,-5.1139,-5.1229,-5.1439,-5.1498,-5.1618,-5.1768,-5.2007,-5.2247,-5.2396,-5.2336,-5.2546,-5.3025,-5.3414,-5.3832,-5.4042,-4.8007,-4.8091,-4.8934,-4.9259,-4.9372,-5.001,-5.0395,-5.0512,-5.0705,-5.1038,-5.1488,-5.2717,-5.355,-5.409,-5.4718,-5.5196,-5.5246,-5.536,-5.5369,-5.5409,-5.5409,-5.5409,-5.5409,-5.5409,-5.5409,-5.5369,-5.5287,-5.5196,-5.5072,-5.5095,-5.4813,-5.4444,-5.4369,-5.4316,-5.4316,-5.4177,-5.3844,-5.3552,-5.3277,-5.2922,-5.2487,-5.2244,-5.2029,-5.1999,-5.2055,-5.1986,-5.2237,-5.2424,-5.2554,-5.2664,-5.2964,-5.3028,-5.3113,-5.3229,-5.3471,-5.3809,-5.3841,-5.4115,-5.4264,-5.3765,-5.342,-5.373,-5.4028,-5.4242,-5.4486,-5.4613,-5.4613,-5.4486,-5.4274,-5.406,-5.3931,-5.3813,-5.3899,-5.4146,-5.4359,-5.4571,-5.4771,-5.4854,-5.4896,-5.4864,-5.4697,-5.4497,-5.42,-5.3899,-5.3608,-5.329,-5.2518,-5.1864,-5.1463,-5.1229,-5.1229,-5.1229,-5.1229,-5.1229,-5.1229,-5.1229,-5.1229,-5.1229,-5.1259,-5.1349,-5.1439,-5.1768,-5.1917,-5.1917,-5.2097,-5.2426,-5.2785,-5.3174,-5.3234,-5.3025,-5.3354,-5.3922,-5.4281,-5.4521,-5.461,-4.8007,-4.8091,-4.8934,-4.9259,-4.9381,-5.0089,-5.0473,-5.0628,-5.0896,-5.152,-5.2391,-5.3423,-5.4139,-5.4551,-5.4947,-5.5246,-5.5369,-5.5409,-5.5409,-5.5409,-5.5409,-5.5409,-5.5409,-5.5409,-5.5409,-5.5409,-5.5409,-5.5287,-5.5237,-5.5389,-5.5467,-5.5439,-5.5503,-5.5557,-5.5207,-5.5059,-5.472,-5.422,-5.3899,-5.3465,-5.3069,-5.298,-5.2993,-5.2949,-5.2989,-5.3221,-5.3451,-5.3636,-5.3785,-5.3945,-5.419,-5.4391,-5.4507,-5.4655,-5.4813,-5.4896,-5.4896,-5.4896,-5.4781,-5.4486,-5.4146,-5.4316,-5.4528,-5.4697,-5.4822,-5.4906,-5.4948,-5.4822,-5.4571,-5.4359,-5.4316,-5.4316,-5.4401,-5.4571,-5.4697,-5.4906,-5.4989,-5.5072,-5.5072,-5.5031,-5.4822,-5.4571,-5.42,-5.3856,-5.329,-5.298,-5.2427,-5.1787,-5.1369,-5.1229,-5.1229,-5.1229,-5.1229,-5.1229,-5.1229,-5.1229,-5.1229,-5.1349,-5.1409,-5.1618,-5.1798,-5.2157,-5.2456,-5.2546,-5.2785,-5.3174,-5.3473,-5.3743,-5.3713,-5.3563,-5.4042,-5.4581,-5.47,-5.491,-5.4999,-4.8007,-4.8133,-4.8965,-4.9259,-4.9412,-5.0207,-5.0589,-5.0698,-5.1172,-5.2068,-5.3265,-5.4099,-5.4713,-5.5174,-5.5295,-5.5369,-5.5369,-5.5409,-5.5409,-5.5409,-5.5409,-5.5409,-5.5409,-5.5409,-5.5409,-5.5369,-5.5539,-5.5563,-5.5498,-5.6104,-5.6362,-5.6621,-5.687,-5.6892,-5.624,-5.6176,-5.5537,-5.4656,-5.4529,-5.4261,-5.3895,-5.384,-5.384,-5.364,-5.3726,-5.3942,-5.42,-5.4327,-5.4454,-5.4613,-5.4739,-5.4822,-5.4822,-5.4822,-5.4948,-5.5072,-5.5072,-5.5164,-5.5287,-5.4948,-5.4813,-5.4771,-5.4864,-5.5031,-5.5113,-5.5237,-5.5246,-5.5113,-5.4989,-5.4864,-5.4854,-5.4771,-5.4854,-5.4906,-5.4989,-5.5113,-5.5196,-5.5278,-5.5237,-5.5072,-5.4906,-5.4687,-5.4274,-5.377,-5.3024,-5.2518,-5.2155,-5.1741,-5.1323,-5.1229,-5.1229,-5.1229,-5.1229,-5.1229,-5.1229,-5.1229,-5.1259,-5.1379,-5.1588,-5.1858,-5.2306,-5.2815,-5.3025,-5.3144,-5.3473,-5.3892,-5.4072,-5.4221,-5.4192,-5.4251,-5.464,-5.5059,-5.5179,-5.5209,-5.5209,-4.8091,-4.8301,-4.8975,-4.9259,-4.9452,-5.0207,-5.0589,-5.0826,-5.1978,-5.3142,-5.4017,-5.4762,-5.515,-5.5377,-5.5409,-5.5409,-5.5409,-5.5409,-5.5409,-5.5409,-5.5409,-5.5409,-5.5409,-5.5442,-5.5442,-5.5571,-5.5766,-5.6122,-5.6187,-5.6867,-5.7158,-5.7385,-5.7871,-5.7796,-5.73,-5.7064,-5.6776,-5.636,-5.621,-5.5879,-5.5046,-5.4994,-5.4835,-5.4326,-5.4412,-5.4582,-5.4761,-5.4877,-5.497,-5.5021,-5.5072,-5.5155,-5.5155,-5.5155,-5.5164,-5.5287,-5.5319,-5.5287,-5.5369,-5.5237,-5.5155,-5.5146,-5.5155,-5.5278,-5.5287,-5.5328,-5.5328,-5.5246,-5.5164,-5.5072,-5.4989,-5.5021,-5.5031,-5.5072,-5.5155,-5.5278,-5.5328,-5.5328,-5.5287,-5.5113,-5.4938,-5.4518,-5.406,-5.3726,-5.3069,-5.2518,-5.2155,-5.1741,-5.1323,-5.1229,-5.1229,-5.1229,-5.1229,-5.1229,-5.1259,-5.1498,-5.1738,-5.1947,-5.2097,-5.2276,-5.2785,-5.3414,-5.3683,-5.3862,-5.4221,-5.461,-5.464,-5.47,-5.482,-5.4999,-5.5149,-5.5179,-5.5209,-5.5209,-5.5209,-4.8091,-4.8301,-4.9006,-4.9259,-4.9421,-5.0207,-5.0794,-5.1334,-5.2702,-5.3725,-5.4438,-5.5086,-5.5409,-5.5409,-5.5409,-5.5409,-5.5409,-5.5409,-5.5409,-5.5409,-5.5409,-5.5409,-5.5442,-5.5668,-5.5863,-5.5992,-5.6446,-5.6867,-5.6899,-5.7611,-5.8065,-5.8421,-5.8831,-5.8842,-5.8517,-5.829,-5.7826,-5.7462,-5.7161,-5.6969,-5.6424,-5.621,-5.6007,-5.5634,-5.5591,-5.5611,-5.5513,-5.5467,-5.5454,-5.5366,-5.5351,-5.5442,-5.5442,-5.5409,-5.5409,-5.5409,-5.5701,-5.5863,-5.6187,-5.6284,-5.6127,-5.573,-5.5554,-5.5401,-5.5409,-5.5409,-5.5409,-5.5328,-5.5278,-5.5237,-5.5228,-5.526,-5.5592,-5.5666,-5.5901,-5.6025,-5.6089,-5.6122,-5.5656,-5.5416,-5.4899,-5.4443,-5.4014,-5.3584,-5.3157,-5.2653,-5.22,-5.1802,-5.1413,-5.1366,-5.1349,-5.1349,-5.1498,-5.1678,-5.1828,-5.2037,-5.2276,-5.2486,-5.2725,-5.2935,-5.3443,-5.4072,-5.4341,-5.4551,-5.476,-5.494,-5.5059,-5.5149,-5.5209,-5.5128,-5.5048,-5.5078,-5.5179,-5.5239,-5.5248,-4.8007,-4.8133,-4.8934,-4.9259,-4.9452,-5.0302,-5.127,-5.2262,-5.3006,-5.3823,-5.4535,-5.5183,-5.5409,-5.5409,-5.5409,-5.5409,-5.5409,-5.5409,-5.5409,-5.5409,-5.5409,-5.5442,-5.5733,-5.6089,-5.6349,-5.6737,-5.7191,-5.7611,-5.7676,-5.8324,-5.8972,-5.948,-5.9675,-5.9729,-5.9545,-5.9337,-5.8805,-5.8502,-5.833,-5.803,-5.7601,-5.7366,-5.712,-5.6884,-5.6787,-5.6679,-5.6537,-5.6469,-5.6178,-5.5886,-5.5636,-5.5604,-5.5539,-5.5507,-5.5474,-5.5701,-5.6251,-5.677,-5.7158,-5.7223,-5.7029,-5.6501,-5.5983,-5.5668,-5.5409,-5.5409,-5.5409,-5.5474,-5.5489,-5.5498,-5.553,-5.6057,-5.6543,-5.6811,-5.7103,-5.7168,-5.7191,-5.6902,-5.6262,-5.5751,-5.5144,-5.4706,-5.4466,-5.3991,-5.3761,-5.3419,-5.3009,-5.2469,-5.2064,-5.1575,-5.1558,-5.1618,-5.1828,-5.2187,-5.2396,-5.2576,-5.2875,-5.3144,-5.3533,-5.3832,-5.4341,-5.461,-5.476,-5.494,-5.5119,-5.5299,-5.5478,-5.5508,-5.5508,-5.5406,-5.5462,-5.5155,-5.5236,-5.5347,-5.5436,-4.8091,-4.8301,-4.8975,-4.9259,-4.9515,-5.0755,-5.1945,-5.3006,-5.3758,-5.447,-5.515,-5.5312,-5.5409,-5.5409,-5.5409,-5.5409,-5.5409,-5.5409,-5.5409,-5.5409,-5.5507,-5.5766,-5.6122,-5.6478,-5.6802,-5.7352,-5.7903,-5.8356,-5.8486,-5.9025,-5.9556,-5.9914,-6.0337,-6.0359,-6.0357,-6.0266,-6.0027,-5.9746,-5.9647,-5.9118,-5.8763,-5.8495,-5.8183,-5.7871,-5.7688,-5.7547,-5.7395,-5.7255,-5.7029,-5.6931,-5.6899,-5.6931,-5.6964,-5.6964,-5.6964,-5.6964,-5.7233,-5.7427,-5.7557,-5.7621,-5.7557,-5.7352,-5.7029,-5.6284,-5.583,-5.5539,-5.5571,-5.5766,-5.6025,-5.6154,-5.6431,-5.6895,-5.7368,-5.7669,-5.793,-5.8008,-5.7923,-5.7441,-5.6863,-5.6155,-5.5545,-5.5372,-5.5096,-5.488,-5.4646,-5.4313,-5.3852,-5.3247,-5.27,-5.224,-5.1977,-5.2007,-5.2396,-5.2845,-5.2935,-5.3084,-5.3443,-5.3803,-5.4162,-5.4491,-5.476,-5.497,-5.5149,-5.5359,-5.5598,-5.5777,-5.5978,-5.5987,-5.6034,-5.6206,-5.6228,-5.5686,-5.5321,-5.547,-5.57,-4.8049,-4.8301,-4.8975,-4.9493,-5.005,-5.1494,-5.2602,-5.3395,-5.4082,-5.4794,-5.5377,-5.5409,-5.5409,-5.5409,-5.5409,-5.5409,-5.5409,-5.5409,-5.5409,-5.5474,-5.5701,-5.6057,-5.6446,-5.7061,-5.7611,-5.8162,-5.8615,-5.9069,-5.9263,-5.988,-6.0467,-6.0978,-6.1088,-6.1229,-6.1468,-6.1706,-6.1716,-6.1334,-6.0877,-6.0299,-5.9876,-5.9628,-5.9174,-5.8785,-5.857,-5.843,-5.8128,-5.8085,-5.7871,-5.7644,-5.7621,-5.7589,-5.7589,-5.7589,-5.7806,-5.7806,-5.7968,-5.8227,-5.8486,-5.8518,-5.8292,-5.8065,-5.7968,-5.7385,-5.6834,-5.6478,-5.6446,-5.651,-5.677,-5.7006,-5.7391,-5.7734,-5.8121,-5.8465,-5.8619,-5.8763,-5.8377,-5.7915,-5.7311,-5.6706,-5.6359,-5.6183,-5.5947,-5.5757,-5.5376,-5.4946,-5.439,-5.3797,-5.3356,-5.2966,-5.2702,-5.2636,-5.3114,-5.3593,-5.3623,-5.3713,-5.4102,-5.4431,-5.461,-5.491,-5.5179,-5.5299,-5.5388,-5.5718,-5.6137,-5.6346,-5.6555,-5.6579,-5.6653,-5.6793,-5.6669,-5.6008,-5.5706,-5.5788,-5.61,-4.8007,-4.8133,-4.8975,-4.9875,-5.0806,-5.2298,-5.314,-5.3459,-5.4244,-5.4826,-5.5345,-5.5409,-5.5409,-5.5409,-5.5409,-5.5409,-5.5409,-5.5409,-5.5539,-5.5539,-5.6057,-5.6543,-5.7223,-5.786,-5.8313,-5.8799,-5.9219,-5.9587,-5.9987,-6.0639,-6.1466,-6.224,-6.2464,-6.2552,-6.2573,-6.2779,-6.2756,-6.2547,-6.1824,-6.1113,-6.083,-6.0604,-6.0443,-6.0237,-6.001,-5.975,-5.9176,-5.8787,-5.8421,-5.8,-5.7806,-5.7871,-5.7935,-5.7968,-5.8292,-5.8486,-5.8713,-5.8939,-5.9231,-5.9328,-5.9134,-5.8863,-5.8637,-5.8356,-5.7968,-5.7255,-5.7093,-5.7158,-5.7352,-5.7738,-5.805,-5.8675,-5.9128,-5.9385,-5.9549,-5.9628,-5.9424,-5.8755,-5.7916,-5.7382,-5.7095,-5.6884,-5.6703,-5.6478,-5.614,-5.5581,-5.5099,-5.4496,-5.4068,-5.3717,-5.347,-5.3324,-5.3803,-5.4251,-5.4341,-5.4491,-5.482,-5.5089,-5.5119,-5.5299,-5.5508,-5.5568,-5.5598,-5.6137,-5.6735,-5.7004,-5.7244,-5.7272,-5.7292,-5.7108,-5.6839,-5.628,-5.6079,-5.6241,-5.6378,-4.8091,-4.8343,-4.93,-5.0375,-5.1421,-5.2523,-5.343,-5.4179,-5.4891,-5.5215,-5.5377,-5.5409,-5.5409,-5.5409,-5.5409,-5.5409,-5.5409,-5.5571,-5.5766,-5.6089,-5.6543,-5.7255,-5.7903,-5.841,-5.8896,-5.936,-5.9716,-6.0105,-6.0733,-6.1508,-6.2089,-6.2561,-6.2925,-6.3199,-6.3374,-6.3504,-6.3471,-6.3504,-6.3064,-6.223,-6.1706,-6.1465,-6.1248,-6.0758,-6.04,-6.038,-6.0,-5.9838,-5.9567,-5.9274,-5.9198,-5.9231,-5.9198,-5.9166,-5.9231,-5.9425,-5.936,-5.9522,-5.9587,-5.9673,-5.9511,-5.9478,-5.9349,-5.936,-5.8939,-5.8097,-5.7751,-5.7838,-5.8085,-5.8398,-5.886,-5.952,-6.0083,-6.0309,-6.0417,-6.0355,-6.0292,-5.9446,-5.8544,-5.8178,-5.7811,-5.7597,-5.7413,-5.7121,-5.6855,-5.646,-5.5962,-5.5474,-5.5137,-5.472,-5.4261,-5.4192,-5.4551,-5.491,-5.494,-5.494,-5.5119,-5.5239,-5.5239,-5.5508,-5.5867,-5.6256,-5.6585,-5.6915,-5.7334,-5.7663,-5.7969,-5.8143,-5.8045,-5.7651,-5.7265,-5.679,-5.677,-5.6884,-5.6877,-4.8133,-4.8396,-4.9541,-5.0628,-5.1684,-5.2699,-5.3607,-5.4438,-5.5118,-5.5409,-5.5409,-5.5409,-5.5409,-5.5409,-5.5409,-5.5442,-5.5507,-5.5798,-5.6089,-5.6478,-5.7223,-5.7903,-5.8443,-5.8896,-5.9295,-5.9716,-6.0137,-6.0656,-6.1575,-6.2321,-6.2872,-6.3359,-6.3681,-6.3903,-6.4123,-6.42,-6.4133,-6.4233,-6.4133,-6.3649,-6.2858,-6.256,-6.2329,-6.1772,-6.1544,-6.1414,-6.1317,-6.1186,-6.0966,-6.0627,-6.0453,-5.9878,-5.9716,-5.9587,-5.9652,-5.9684,-5.964,-5.9673,-5.9705,-5.9673,-5.9673,-5.9673,-5.9673,-5.9555,-5.9555,-5.881,-5.8777,-5.8874,-5.908,-5.9404,-5.9651,-6.0224,-6.0501,-6.0694,-6.0567,-6.043,-6.012,-5.9487,-5.8902,-5.8645,-5.8355,-5.8082,-5.782,-5.7449,-5.7135,-5.6611,-5.6262,-5.594,-5.5691,-5.5651,-5.517,-5.497,-5.5299,-5.5239,-5.5089,-5.5089,-5.5149,-5.5269,-5.5508,-5.5957,-5.6496,-5.7124,-5.7603,-5.7723,-5.7992,-5.8381,-5.8662,-5.8624,-5.8466,-5.7985,-5.7713,-5.7355,-5.736,-5.7303,-5.7183,-4.8175,-4.8593,-4.9741,-5.0849,-5.1852,-5.2849,-5.3751,-5.4567,-5.515,-5.5409,-5.5409,-5.5409,-5.5409,-5.5409,-5.5409,-5.5474,-5.5701,-5.6089,-5.6413,-5.7191,-5.8,-5.8475,-5.8928,-5.9393,-5.9684,-6.0235,-6.0818,-6.166,-6.2645,-6.3231,-6.3819,-6.4571,-6.493,-6.5156,-6.5336,-6.5392,-6.5194,-6.5127,-6.5028,-6.4929,-6.4399,-6.3846,-6.3405,-6.3186,-6.3099,-6.2968,-6.276,-6.2551,-6.2285,-6.1833,-6.1308,-6.083,-6.0429,-6.0299,-6.0235,-6.0267,-6.0073,-6.004,-5.9911,-5.9814,-5.9749,-5.9673,-5.9673,-5.9781,-5.9781,-5.9846,-5.9814,-6.0075,-6.0283,-6.0424,-6.064,-6.0919,-6.1165,-6.1291,-6.1047,-6.0877,-6.0402,-5.9919,-5.9608,-5.9383,-5.9015,-5.8741,-5.8215,-5.784,-5.7273,-5.6792,-5.6445,-5.6111,-5.5913,-5.6041,-5.5948,-5.5777,-5.5897,-5.5748,-5.5448,-5.5568,-5.5718,-5.5867,-5.6196,-5.6615,-5.7124,-5.7782,-5.8201,-5.8321,-5.862,-5.883,-5.8787,-5.8659,-5.847,-5.8195,-5.7918,-5.7528,-5.736,-5.7303,-5.7303,-4.8427,-4.921,-5.0129,-5.1261,-5.2461,-5.3075,-5.3977,-5.5077,-5.5312,-5.5409,-5.5409,-5.5409,-5.5409,-5.5409,-5.5409,-5.5604,-5.6154,-5.651,-5.7385,-5.8249,-5.8508,-5.8961,-5.9425,-5.9716,-6.0073,-6.0818,-6.1692,-6.2534,-6.3163,-6.3738,-6.423,-6.4623,-6.4918,-6.5144,-6.5336,-6.5381,-6.5381,-6.5381,-6.5381,-6.526,-6.5094,-6.4498,-6.3868,-6.357,-6.3272,-6.3099,-6.2892,-6.2804,-6.254,-6.2207,-6.1828,-6.1543,-6.1271,-6.1141,-6.1109,-6.0947,-6.0785,-6.0623,-6.0494,-6.0235,-6.017,-6.004,-6.0105,-6.0235,-6.0332,-6.0591,-6.081,-6.141,-6.1588,-6.1633,-6.1808,-6.2113,-6.2395,-6.2438,-6.2352,-6.2266,-6.1961,-6.1443,-6.1038,-6.0527,-6.0,-5.941,-5.8624,-5.8069,-5.7369,-5.7021,-5.6768,-5.6506,-5.6552,-5.6629,-5.6615,-5.6585,-5.6526,-5.6346,-5.6137,-5.6406,-5.6585,-5.6705,-5.6855,-5.7274,-5.7812,-5.8471,-5.88,-5.874,-5.883,-5.9009,-5.8936,-5.8773,-5.85,-5.828,-5.8003,-5.7725,-5.7445,-5.7303,-5.7303]},{"header":{"parameterUnit":"m.s-1","parameterCategory":1,"la1":31.0,"la2":29.5877,"lo1":-88.7671,"lo2":-86.6584,"dx":0.0162,"dy":0.0185,"nx":115,"ny":88,"refTime":"2023-01-28T18:00:00:Z","depth":0,"parameterNumber":3,"parameterNumberName":"V-component_of_WINDS"},"data":[0.0,0.0,0.0,0.0,0.0,0.0,0.0,0.0,0.0,0.0,0.0,0.0,0.0,0.0,0.0,0.0,0.0,0.0,0.0,0.0,0.0,0.0,0.0,0.0,0.0,0.0,0.0,0.0,0.0,0.0,0.0,0.0,0.0,0.0,0.0,0.0,0.0,0.0,0.0,0.0,0.0,0.0,0.0,0.0,0.0,0.0,0.0,0.0,0.0,0.0,0.0,0.0,0.0,0.0,0.0,0.0,0.0,0.0,0.0,0.0,0.0,0.0,0.0,0.0,0.0,0.0,0.0,0.0,0.0,0.0,0.0,0.0,0.0,0.0,0.0,0.0,0.0,0.0,0.0,0.0,0.0,0.0,0.0,0.0,0.0,0.0,0.0,0.0,0.0,0.0,0.0,0.0,0.0,0.0,0.0,0.0,0.0,0.0,0.0,0.0,0.0,0.0,0.0,0.0,0.0,0.0,0.0,0.0,0.0,0.0,0.0,0.0,0.0,0.0,0.0,0.0,0.0,0.0,0.0,0.0,0.0,0.0,0.0,0.0,0.0,0.0,0.0,0.0,0.0,0.0,0.0,0.0,0.0,0.0,0.0,0.0,0.0,0.0,0.0,0.0,0.0,0.0,0.0,0.0,0.0,0.0,0.0,0.0,0.0,0.0,0.0,0.0,0.0,0.0,0.0,0.0,0.0,0.0,0.0,0.0,0.0,0.0,0.0,0.0,0.0,0.0,0.0,0.0,0.0,0.0,0.0,0.0,0.0,0.0,0.0,0.0,0.0,0.0,0.0,0.0,0.0,0.0,0.0,0.0,0.0,0.0,0.0,0.0,0.0,0.0,0.0,0.0,0.0,0.0,0.0,0.0,0.0,0.0,0.0,0.0,0.0,0.0,0.0,0.0,0.0,0.0,0.0,0.0,0.0,0.0,0.0,0.0,0.0,0.0,0.0,0.0,0.0,0.0,0.0,0.0,0.0,0.0,0.0,0.0,0.0,0.0,0.0,0.0,0.0,0.0,0.0,0.0,0.0,0.0,0.0,0.0,0.0,0.0,0.0,0.0,0.0,0.0,0.0,0.0,0.0,0.0,0.0,0.0,0.0,0.0,0.0,0.0,0.0,0.0,0.0,0.0,0.0,0.0,0.0,0.0,0.0,0.0,0.0,0.0,0.0,0.0,0.0,0.0,0.0,0.0,0.0,0.0,0.0,0.0,0.0,0.0,0.0,0.0,0.0,0.0,0.0,0.0,0.0,0.0,0.0,0.0,0.0,0.0,0.0,0.0,0.0,0.0,0.0,0.0,0.0,0.0,0.0,0.0,0.0,0.0,0.0,0.0,0.0,0.0,0.0,0.0,0.0,0.0,0.0,0.0,0.0,0.0,0.0,0.0,0.0,0.0,0.0,0.0,0.0,0.0,0.0,0.0,0.0,0.0,0.0,0.0,0.0,0.0,0.0,0.0,0.0,0.0,0.0,0.0,0.0,0.0,0.0,0.0,0.0,0.0,0.0,0.0,0.0,0.0,0.0,0.0,0.0,0.0,0.0,0.0,0.0,0.0,0.0,0.0,0.0,0.0,0.0,0.0,0.0,0.0,0.0,0.0,0.0,0.0,0.0,0.0,0.0,0.0,0.0,0.0,0.0,0.0,0.0,0.0,0.0,0.0,0.0,0.0,0.0,0.0,0.0,0.0,0.0,0.0,0.0,0.0,0.0,0.0,0.0,0.0,0.0,0.0,0.0,0.0,0.0,0.0,0.0,0.0,0.0,0.0,0.0,0.0,0.0,0.0,0.0,0.0,0.0,0.0,0.0,0.0,0.0,0.0,0.0,0.0,0.0,0.0,0.0,0.0,0.0,0.0,0.0,0.0,0.0,0.0,0.0,0.0,0.0,0.0,0.0,0.0,0.0,0.0,0.0,0.0,0.0,0.0,0.0,0.0,0.0,0.0,0.0,0.0,0.0,0.0,0.0,0.0,0.0,0.0,0.0,0.0,0.0,0.0,0.0,0.0,0.0,0.0,0.0,0.0,0.0,0.0,0.0,0.0,0.0,0.0,0.0,0.0,0.0,0.0,0.0,0.0,0.0,0.0,0.0,0.0,0.0,0.0,0.0,0.0,0.0,0.0,0.0,0.0,0.0,0.0,0.0,0.0,0.0,0.0,0.0,0.0,0.0,0.0,0.0,0.0,0.0,0.0,0.0,0.0,0.0,0.0,0.0,0.0,0.0,0.0,0.0,0.0,0.0,0.0,0.0,0.0,0.0,0.0,0.0,0.0,0.0,0.0,0.0,0.0,0.0,0.0,0.0,0.0,0.0,0.0,0.0,0.0,0.0,0.0,0.0,0.0,0.0,0.0,0.0,0.0,0.0,0.0,0.0,0.0,0.0,0.0,0.0,0.0,0.0,0.0,0.0,0.0,0.0,0.0,0.0,0.0,0.0,0.0,0.0,0.0,0.0,0.0,0.0,0.0,0.0,0.0,0.0,0.0,0.0,0.0,0.0,0.0,0.0,0.0,0.0,0.0,0.0,0.0,0.0,0.0,0.0,0.0,0.0,0.0,0.0,0.0,0.0,0.0,0.0,0.0,0.0,0.0,0.0,0.0,0.0,0.0,0.0,0.0,0.0,0.0,0.0,0.0,0.0,0.0,0.0,0.0,0.0,0.0,0.0,0.0,0.0,0.0,0.0,0.0,0.0,0.0,0.0,0.0,0.0,0.0,0.0,0.0,0.0,0.0,0.0,0.0,0.0,0.0,0.0,0.0,0.0,0.0,0.0,0.0,0.0,0.0,0.0,0.0,0.0,0.0,0.0,0.0,0.0,0.0,0.0,0.0,0.0,0.0,0.0,0.0,0.0,0.0,0.0,0.0,0.0,0.0,0.0,0.0,0.0,0.0,0.0,0.0,0.0,0.0,0.0,0.0,0.0,0.0,0.0,0.0,0.0,0.0,0.0,0.0,0.0,0.0,0.0,0.0,0.0,0.0,0.0,0.0,0.0,0.0,0.0,0.0,0.0,0.0,0.0,0.0,0.0,0.0,0.0,0.0,0.0,0.0,0.0,0.0,0.0,0.0,0.0,0.0,0.0,0.0,0.0,0.0,0.0,0.0,0.0,0.0,0.0,0.0,0.0,0.0,0.0,0.0,0.0,0.0,0.0,0.0,0.0,0.0,0.0,0.0,0.0,0.0,0.0,0.0,0.0,0.0,0.0,0.0,0.0,0.0,0.0,0.0,0.0,0.0,0.0,0.0,0.0,0.0,0.0,0.0,0.0,0.0,0.0,0.0,0.0,0.0,0.0,0.0,0.0,0.0,0.0,0.0,0.0,0.0,0.0,0.0,0.0,0.0,0.0,0.0,0.0,0.0,0.0,0.0,0.0,0.0,0.0,0.0,0.0,0.0,0.0,0.0,0.0,0.0,0.0,0.0,0.0,0.0,0.0,0.0,0.0,0.0,0.0,0.0,0.0,0.0,0.0,0.0,0.0,0.0,0.0,0.0,0.0,0.0,0.0,0.0,0.0,0.0,0.0,0.0,0.0,0.0,0.0,0.0,0.0,0.0,0.0,0.0,0.0,0.0,0.0,0.0,0.0,0.0,0.0,0.0,0.0,0.0,0.0,0.0,0.0,0.0,0.0,0.0,0.0,0.0,0.0,0.0,0.0,0.0,0.0,0.0,0.0,0.0,0.0,0.0,0.0,0.0,0.0,0.0,0.0,0.0,0.0,0.0,0.0,0.0,0.0,0.0,0.0,0.0,0.0,0.0,0.0,0.0,0.0,0.0,0.0,0.0,0.0,0.0,0.0,0.0,0.0,0.0,0.0,0.0,0.0,0.0,0.0,0.0,0.0,0.0,0.0,0.0,0.0,0.0,0.0,0.0,0.0,0.0,0.0,0.0,0.0,0.0,0.0,0.0,0.0,0.0,0.0,0.0,0.0,0.0,0.0,0.0,0.0,0.0,0.0,0.0,0.0,0.0,0.0,0.0,0.0,0.0,0.0,0.0,0.0,0.0,0.0,0.0,0.0,0.0,0.0,0.0,0.0,0.0,0.0,0.0,0.0,0.0,0.0,0.0,0.0,0.0,0.0,0.0,0.0,0.0,0.0,0.0,0.0,0.0,0.0,0.0,0.0,0.0,0.0,0.0,0.0,0.0,0.0,0.0,0.0,0.0,0.0,0.0,0.0,0.0,0.0,0.0,0.0,0.0,0.0,0.0,0.0,0.0,0.0,0.0,0.0,0.0,0.0,0.0,0.0,0.0,0.0,0.0,0.0,0.0,2.3551,0.0,0.0,0.0,0.0,0.0,0.0,0.0,0.0,0.0,0.0,0.0,0.0,0.0,0.0,0.0,0.0,0.0,0.0,0.0,0.0,0.0,0.0,0.0,0.0,0.0,0.0,0.0,0.0,0.0,0.0,0.0,0.0,0.0,0.0,0.0,0.0,0.0,0.0,0.0,0.0,0.0,0.0,0.0,0.0,0.0,0.0,0.0,0.0,0.0,0.0,0.0,0.0,0.0,0.0,0.0,0.0,0.0,0.0,0.0,0.0,0.0,0.0,0.0,0.0,0.0,0.0,0.0,0.0,0.0,0.0,0.0,0.0,0.0,0.0,0.0,0.0,0.0,0.0,0.0,0.0,0.0,0.0,0.0,0.0,0.0,0.0,0.0,0.0,0.0,0.0,0.0,0.0,0.0,0.0,0.0,0.0,0.0,0.0,0.0,0.0,0.0,0.0,0.0,0.0,0.0,0.0,0.0,0.0,0.0,0.0,2.4376,2.4275,2.4134,2.4066,2.3969,0.0,0.0,0.0,0.0,0.0,0.0,0.0,0.0,0.0,0.0,0.0,0.0,0.0,0.0,0.0,0.0,0.0,0.0,0.0,0.0,0.0,0.0,0.0,0.0,0.0,0.0,0.0,0.0,0.0,0.0,0.0,0.0,0.0,0.0,0.0,0.0,0.0,0.0,0.0,0.0,0.0,0.0,0.0,0.0,0.0,0.0,0.0,0.0,0.0,0.0,0.0,0.0,0.0,0.0,0.0,0.0,0.0,0.0,0.0,0.0,0.0,0.0,0.0,0.0,0.0,0.0,0.0,0.0,0.0,0.0,0.0,0.0,0.0,0.0,0.0,0.0,0.0,0.0,0.0,0.0,0.0,0.0,0.0,0.0,0.0,0.0,0.0,0.0,0.0,0.0,0.0,0.0,0.0,0.0,0.0,0.0,0.0,0.0,0.0,0.0,0.0,0.0,0.0,0.0,0.0,0.0,0.0,0.0,0.0,0.0,0.0,0.0,2.4247,2.417,2.4066,0.0,0.0,0.0,0.0,0.0,0.0,0.0,0.0,0.0,0.0,0.0,0.0,0.0,0.0,0.0,0.0,0.0,0.0,0.0,0.0,0.0,0.0,0.0,0.0,0.0,0.0,0.0,0.0,0.0,0.0,0.0,0.0,0.0,0.0,0.0,0.0,0.0,0.0,0.0,0.0,0.0,0.0,0.0,0.0,0.0,0.0,0.0,0.0,0.0,0.0,0.0,0.0,0.0,0.0,0.0,0.0,0.0,0.0,0.0,0.0,0.0,0.0,0.0,0.0,0.0,0.0,0.0,0.0,0.0,0.0,0.0,0.0,0.0,0.0,0.0,0.0,0.0,0.0,0.0,0.0,0.0,0.0,0.0,0.0,0.0,0.0,0.0,0.0,0.0,0.0,0.0,0.0,0.0,0.0,0.0,0.0,0.0,0.0,0.0,0.0,0.0,0.0,0.0,0.0,0.0,0.0,0.0,0.0,0.0,0.0,2.441,2.4294,2.4237,0.0,2.3979,0.0,0.0,0.0,0.0,0.0,0.0,0.0,0.0,0.0,0.0,0.0,0.0,0.0,0.0,0.0,0.0,0.0,0.0,0.0,0.0,0.0,0.0,0.0,0.0,0.0,0.0,0.0,0.0,0.0,0.0,0.0,0.0,0.0,0.0,0.0,0.0,0.0,0.0,0.0,0.0,0.0,0.0,0.0,0.0,0.0,0.0,0.0,0.0,0.0,0.0,0.0,0.0,0.0,0.0,0.0,0.0,0.0,0.0,0.0,0.0,0.0,0.0,0.0,0.0,0.0,0.0,0.0,0.0,0.0,0.0,0.0,0.0,0.0,0.0,0.0,0.0,0.0,0.0,0.0,0.0,0.0,0.0,0.0,0.0,0.0,0.0,0.0,0.0,0.0,0.0,0.0,0.0,0.0,0.0,0.0,0.0,0.0,0.0,0.0,0.0,0.0,0.0,0.0,0.0,0.0,0.0,0.0,0.0,0.0,0.0,2.4471,2.4376,2.4238,2.4163,0.0,0.0,0.0,0.0,0.0,0.0,0.0,0.0,0.0,0.0,0.0,0.0,0.0,0.0,0.0,0.0,0.0,0.0,0.0,0.0,0.0,0.0,0.0,0.0,0.0,0.0,0.0,0.0,0.0,0.0,0.0,0.0,0.0,0.0,0.0,0.0,0.0,0.0,0.0,0.0,0.0,0.0,0.0,0.0,0.0,0.0,0.0,0.0,0.0,0.0,0.0,0.0,0.0,0.0,0.0,0.0,0.0,0.0,0.0,0.0,0.0,0.0,0.0,0.0,0.0,0.0,0.0,0.0,0.0,0.0,0.0,0.0,0.0,0.0,0.0,0.0,0.0,0.0,0.0,0.0,0.0,0.0,0.0,0.0,0.0,0.0,0.0,0.0,0.0,0.0,0.0,0.0,0.0,0.0,0.0,0.0,0.0,0.0,0.0,0.0,0.0,0.0,0.0,0.0,0.0,0.0,0.0,0.0,0.0,0.0,2.458,2.4513,2.4412,2.4284,2.4229,2.4228,0.0,0.0,0.0,0.0,0.0,0.0,0.0,0.0,0.0,0.0,0.0,0.0,0.0,0.0,0.0,0.0,0.0,0.0,0.0,0.0,0.0,0.0,0.0,0.0,0.0,0.0,0.0,0.0,0.0,0.0,0.0,0.0,0.0,0.0,0.0,0.0,0.0,0.0,0.0,0.0,0.0,0.0,0.0,0.0,0.0,0.0,0.0,0.0,0.0,0.0,0.0,0.0,0.0,0.0,0.0,0.0,0.0,0.0,0.0,0.0,0.0,0.0,0.0,0.0,0.0,0.0,0.0,0.0,0.0,0.0,0.0,0.0,0.0,0.0,0.0,0.0,0.0,0.0,0.0,0.0,0.0,0.0,0.0,0.0,0.0,0.0,0.0,0.0,0.0,0.0,0.0,0.0,0.0,0.0,0.0,0.0,0.0,0.0,0.0,0.0,0.0,0.0,0.0,0.0,0.0,0.0,0.0,0.0,2.4588,2.458,2.4522,2.4403,2.4321,2.4294,0.0,0.0,0.0,0.0,0.0,0.0,0.0,0.0,0.0,0.0,0.0,0.0,0.0,0.0,0.0,0.0,0.0,0.0,0.0,0.0,0.0,0.0,0.0,0.0,0.0,0.0,0.0,0.0,0.0,0.0,0.0,0.0,0.0,0.0,0.0,0.0,0.0,0.0,0.0,0.0,0.0,0.0,0.0,0.0,0.0,0.0,0.0,0.0,0.0,0.0,0.0,0.0,0.0,0.0,0.0,0.0,0.0,0.0,0.0,0.0,0.0,0.0,0.0,0.0,0.0,0.0,0.0,0.0,0.0,0.0,0.0,0.0,0.0,0.0,0.0,0.0,0.0,0.0,0.0,0.0,0.0,0.0,0.0,0.0,0.0,0.0,0.0,0.0,0.0,0.0,0.0,0.0,0.0,0.0,0.0,0.0,0.0,0.0,0.0,0.0,0.0,0.0,0.0,0.0,0.0,0.0,0.0,0.0,0.0,2.4547,2.4522,2.45,2.4403,2.4385,2.4376,0.0,0.0,0.0,0.0,0.0,0.0,0.0,0.0,0.0,0.0,0.0,0.0,0.0,0.0,0.0,0.0,0.0,0.0,0.0,0.0,0.0,0.0,0.0,0.0,0.0,0.0,0.0,0.0,0.0,0.0,0.0,0.0,0.0,0.0,0.0,0.0,0.0,0.0,0.0,0.0,0.0,0.0,0.0,0.0,0.0,0.0,0.0,0.0,0.0,0.0,0.0,0.0,0.0,0.0,0.0,0.0,0.0,0.0,0.0,0.0,0.0,0.0,0.0,0.0,0.0,0.0,0.0,0.0,0.0,0.0,0.0,0.0,0.0,0.0,0.0,0.0,0.0,0.0,0.0,0.0,0.0,0.0,0.0,0.0,0.0,0.0,0.0,0.0,0.0,0.0,0.0,0.0,0.0,0.0,0.0,0.0,0.0,0.0,0.0,0.0,0.0,0.0,0.0,0.0,0.0,0.0,0.0,0.0,0.0,2.4522,0.0,2.4474,2.4438,2.443,2.4438,0.0,0.0,0.0,0.0,0.0,0.0,0.0,0.0,0.0,0.0,0.0,0.0,0.0,0.0,0.0,0.0,0.0,0.0,0.0,0.0,0.0,0.0,0.0,0.0,0.0,0.0,0.0,0.0,0.0,0.0,0.0,0.0,0.0,0.0,0.0,0.0,0.0,0.0,0.0,0.0,0.0,0.0,0.0,0.0,0.0,0.0,0.0,0.0,0.0,0.0,0.0,0.0,0.0,0.0,0.0,0.0,0.0,0.0,0.0,0.0,0.0,0.0,0.0,0.0,0.0,0.0,0.0,0.0,0.0,0.0,0.0,0.0,0.0,0.0,0.0,0.0,0.0,0.0,0.0,0.0,0.0,0.0,0.0,0.0,0.0,0.0,0.0,0.0,0.0,0.0,0.0,0.0,0.0,0.0,0.0,0.0,0.0,0.0,0.0,0.0,0.0,0.0,0.0,0.0,0.0,0.0,0.0,0.0,2.4513,2.4513,2.4525,2.4565,2.4537,2.4565,2.4537,0.0,0.0,0.0,0.0,0.0,0.0,0.0,0.0,0.0,0.0,0.0,0.0,0.0,0.0,0.0,0.0,0.0,0.0,0.0,0.0,0.0,0.0,0.0,0.0,0.0,0.0,0.0,0.0,0.0,0.0,0.0,0.0,0.0,0.0,0.0,0.0,0.0,0.0,0.0,0.0,0.0,0.0,0.0,0.0,0.0,0.0,0.0,0.0,0.0,0.0,0.0,0.0,0.0,0.0,0.0,0.0,0.0,0.0,0.0,0.0,0.0,0.0,0.0,0.0,0.0,0.0,0.0,0.0,0.0,0.0,0.0,0.0,0.0,0.0,0.0,0.0,0.0,0.0,0.0,0.0,0.0,0.0,0.0,0.0,0.0,0.0,0.0,0.0,0.0,0.0,0.0,0.0,0.0,0.0,0.0,0.0,0.0,0.0,0.0,0.0,0.0,0.0,0.0,0.0,0.0,0.0,0.0,0.0,0.0,2.4508,2.4976,2.5245,2.5245,2.5291,2.5317,0.0,0.0,0.0,0.0,0.0,0.0,0.0,0.0,0.0,0.0,0.0,0.0,0.0,0.0,0.0,0.0,0.0,0.0,0.0,0.0,0.0,0.0,0.0,0.0,0.0,0.0,0.0,0.0,0.0,0.0,0.0,0.0,0.0,0.0,0.0,0.0,0.0,0.0,0.0,0.0,0.0,0.0,0.0,0.0,0.0,0.0,0.0,0.0,0.0,0.0,0.0,0.0,0.0,0.0,0.0,0.0,0.0,0.0,0.0,0.0,0.0,0.0,0.0,0.0,0.0,0.0,0.0,0.0,0.0,0.0,0.0,0.0,0.0,0.0,0.0,0.0,0.0,0.0,0.0,0.0,0.0,0.0,0.0,0.0,0.0,0.0,0.0,0.0,0.0,0.0,0.0,0.0,0.0,0.0,0.0,0.0,0.0,0.0,0.0,0.0,0.0,0.0,0.0,0.0,0.0,0.0,0.0,0.0,0.0,2.563,2.5844,2.5965,2.5965,2.6088,2.5987,2.5653,0.0,0.0,0.0,0.0,0.0,0.0,0.0,0.0,0.0,0.0,0.0,0.0,0.0,0.0,0.0,0.0,0.0,0.0,0.0,0.0,0.0,0.0,0.0,0.0,0.0,0.0,0.0,0.0,0.0,0.0,0.0,0.0,0.0,0.0,0.0,0.0,0.0,0.0,0.0,0.0,0.0,0.0,0.0,0.0,0.0,0.0,0.0,0.0,0.0,0.0,0.0,0.0,0.0,0.0,0.0,0.0,0.0,0.0,0.0,0.0,0.0,0.0,0.0,0.0,0.0,0.0,0.0,0.0,0.0,0.0,0.0,0.0,0.0,0.0,0.0,0.0,0.0,0.0,0.0,0.0,0.0,0.0,0.0,0.0,0.0,0.0,0.0,0.0,0.0,0.0,0.0,0.0,0.0,0.0,0.0,0.0,0.0,0.0,0.0,0.0,0.0,0.0,0.0,0.0,0.0,0.0,0.0,0.0,2.7621,2.7098,2.6828,2.6738,2.6878,2.6541,0.0,0.0,0.0,0.0,0.0,0.0,0.0,0.0,0.0,0.0,0.0,0.0,0.0,0.0,0.0,0.0,0.0,0.0,0.0,0.0,0.0,0.0,0.0,0.0,0.0,0.0,0.0,0.0,0.0,0.0,0.0,0.0,0.0,0.0,0.0,0.0,0.0,0.0,0.0,0.0,0.0,0.0,0.0,0.0,0.0,0.0,0.0,0.0,0.0,0.0,0.0,0.0,0.0,0.0,0.0,0.0,0.0,0.0,0.0,0.0,0.0,0.0,0.0,0.0,0.0,0.0,0.0,0.0,0.0,0.0,0.0,0.0,0.0,0.0,0.0,0.0,0.0,0.0,0.0,0.0,0.0,0.0,0.0,0.0,0.0,0.0,0.0,0.0,0.0,0.0,0.0,0.0,0.0,0.0,0.0,0.0,0.0,0.0,0.0,0.0,0.0,0.0,0.0,0.0,0.0,0.0,0.0,0.0,0.0,2.9181,2.9619,2.9356,2.8368,2.8419,2.816,0.0,0.0,0.0,0.0,0.0,0.0,0.0,0.0,0.0,0.0,0.0,0.0,0.0,0.0,0.0,0.0,0.0,0.0,0.0,0.0,0.0,0.0,0.0,0.0,0.0,0.0,0.0,0.0,0.0,0.0,0.0,0.0,0.0,0.0,0.0,0.0,0.0,0.0,0.0,0.0,0.0,0.0,0.0,0.0,0.0,0.0,0.0,0.0,0.0,0.0,0.0,0.0,0.0,0.0,0.0,0.0,0.0,0.0,0.0,0.0,0.0,0.0,0.0,0.0,0.0,0.0,0.0,0.0,0.0,0.0,0.0,0.0,0.0,0.0,0.0,0.0,0.0,0.0,0.0,0.0,0.0,0.0,0.0,0.0,0.0,0.0,0.0,0.0,0.0,0.0,0.0,0.0,0.0,0.0,0.0,0.0,0.0,0.0,0.0,0.0,0.0,0.0,0.0,0.0,0.0,0.0,0.0,0.0,2.9479,3.0206,3.1014,3.1061,3.0327,2.9819,2.9214,0.0,0.0,0.0,0.0,0.0,0.0,0.0,0.0,0.0,0.0,0.0,0.0,0.0,0.0,0.0,0.0,0.0,0.0,0.0,0.0,0.0,0.0,0.0,0.0,0.0,0.0,0.0,0.0,0.0,0.0,0.0,0.0,0.0,0.0,0.0,0.0,0.0,0.0,0.0,0.0,0.0,0.0,0.0,0.0,0.0,0.0,0.0,0.0,0.0,0.0,0.0,0.0,0.0,0.0,0.0,0.0,0.0,0.0,0.0,0.0,0.0,0.0,0.0,0.0,0.0,0.0,0.0,0.0,0.0,0.0,0.0,0.0,0.0,0.0,0.0,0.0,0.0,0.0,0.0,0.0,0.0,0.0,0.0,0.0,0.0,0.0,0.0,0.0,0.0,0.0,0.0,0.0,0.0,0.0,0.0,0.0,0.0,0.0,0.0,0.0,0.0,0.0,0.0,0.0,0.0,0.0,0.0,0.0,3.0129,3.0815,3.1657,3.2162,3.2256,3.111,3.0075,0.0,0.0,0.0,0.0,0.0,0.0,0.0,0.0,0.0,0.0,0.0,0.0,0.0,0.0,0.0,0.0,0.0,0.0,0.0,0.0,0.0,0.0,0.0,0.0,0.0,0.0,0.0,0.0,0.0,0.0,0.0,0.0,0.0,0.0,0.0,0.0,0.0,0.0,0.0,0.0,0.0,0.0,0.0,0.0,0.0,0.0,0.0,0.0,0.0,0.0,0.0,0.0,0.0,0.0,0.0,0.0,0.0,0.0,0.0,0.0,0.0,0.0,0.0,0.0,0.0,0.0,0.0,0.0,0.0,0.0,0.0,0.0,0.0,0.0,0.0,0.0,0.0,0.0,0.0,0.0,0.0,0.0,0.0,0.0,0.0,0.0,0.0,0.0,0.0,0.0,0.0,0.0,0.0,0.0,0.0,0.0,0.0,0.0,0.0,0.0,0.0,0.0,0.0,0.0,0.0,0.0,0.0,0.0,3.0678,3.0801,3.2131,3.291,3.3087,3.2379,3.1445,0.0,0.0,0.0,0.0,0.0,0.0,0.0,0.0,0.0,0.0,0.0,0.0,0.0,0.0,0.0,0.0,0.0,0.0,0.0,0.0,0.0,0.0,0.0,0.0,0.0,0.0,0.0,0.0,0.0,0.0,0.0,0.0,0.0,0.0,0.0,0.0,0.0,0.0,0.0,0.0,0.0,0.0,0.0,0.0,0.0,0.0,0.0,0.0,2.9893,0.0,0.0,0.0,0.0,0.0,0.0,0.0,0.0,0.0,0.0,0.0,0.0,0.0,0.0,0.0,0.0,0.0,0.0,0.0,0.0,0.0,0.0,0.0,0.0,0.0,0.0,0.0,0.0,0.0,0.0,0.0,0.0,0.0,0.0,0.0,0.0,0.0,0.0,0.0,0.0,0.0,0.0,0.0,0.0,0.0,0.0,0.0,0.0,0.0,0.0,0.0,0.0,0.0,0.0,0.0,0.0,0.0,0.0,0.0,3.0995,3.1282,3.2475,3.3198,3.3298,3.278,3.2007,0.0,0.0,0.0,0.0,0.0,0.0,0.0,0.0,0.0,0.0,0.0,0.0,0.0,0.0,0.0,0.0,0.0,0.0,0.0,0.0,0.0,0.0,0.0,0.0,0.0,0.0,0.0,0.0,0.0,0.0,0.0,0.0,0.0,0.0,0.0,0.0,0.0,0.0,0.0,0.0,0.0,0.0,0.0,0.0,0.0,0.0,0.0,0.0,0.0,0.0,0.0,0.0,0.0,0.0,0.0,0.0,0.0,0.0,0.0,0.0,0.0,0.0,0.0,0.0,0.0,0.0,0.0,0.0,0.0,0.0,0.0,0.0,0.0,0.0,0.0,0.0,0.0,0.0,0.0,0.0,0.0,0.0,0.0,0.0,0.0,0.0,0.0,0.0,0.0,0.0,0.0,0.0,0.0,0.0,0.0,0.0,0.0,0.0,0.0,0.0,0.0,0.0,0.0,0.0,0.0,0.0,0.0,3.0476,3.1117,3.1795,3.266,3.3214,3.3378,3.2794,3.2177,3.1532,0.0,0.0,0.0,0.0,0.0,0.0,0.0,0.0,0.0,0.0,0.0,0.0,0.0,0.0,0.0,0.0,0.0,0.0,0.0,0.0,0.0,0.0,0.0,0.0,0.0,0.0,0.0,0.0,0.0,0.0,0.0,0.0,0.0,0.0,0.0,0.0,0.0,0.0,2.7147,2.9232,0.0,0.0,0.0,0.0,0.0,0.0,0.0,0.0,3.0556,0.0,0.0,0.0,0.0,0.0,0.0,0.0,0.0,0.0,0.0,0.0,0.0,0.0,0.0,0.0,0.0,0.0,0.0,0.0,0.0,0.0,0.0,0.0,0.0,0.0,0.0,0.0,0.0,0.0,0.0,0.0,0.0,0.0,0.0,0.0,0.0,0.0,0.0,0.0,0.0,0.0,0.0,0.0,0.0,0.0,0.0,0.0,0.0,0.0,0.0,0.0,0.0,0.0,0.0,0.0,0.0,2.9781,3.0476,3.1131,3.1795,3.266,3.3183,3.3289,3.2766,3.2177,3.1544,0.0,0.0,0.0,0.0,0.0,0.0,0.0,0.0,0.0,0.0,0.0,0.0,0.0,0.0,0.0,0.0,0.0,0.0,0.0,0.0,0.0,0.0,0.0,0.0,0.0,0.0,0.0,0.0,0.0,0.0,0.0,0.0,0.0,0.0,0.0,0.0,0.0,0.0,0.0,3.0294,3.1088,0.0,0.0,0.0,0.0,0.0,0.0,0.0,0.0,3.1679,0.0,0.0,0.0,0.0,0.0,0.0,0.0,0.0,0.0,0.0,0.0,0.0,0.0,0.0,0.0,0.0,0.0,0.0,0.0,0.0,0.0,0.0,0.0,0.0,0.0,0.0,0.0,0.0,0.0,0.0,0.0,0.0,0.0,0.0,0.0,0.0,0.0,0.0,0.0,0.0,0.0,0.0,0.0,0.0,0.0,0.0,0.0,0.0,0.0,0.0,0.0,0.0,0.0,0.0,0.0,3.0196,3.0593,3.1273,3.2322,3.2813,3.2921,3.2697,3.2078,3.1464,0.0,0.0,0.0,0.0,0.0,0.0,0.0,0.0,0.0,0.0,0.0,0.0,0.0,0.0,0.0,0.0,0.0,0.0,0.0,0.0,0.0,0.0,0.0,0.0,0.0,0.0,0.0,0.0,0.0,0.0,0.0,0.0,0.0,0.0,0.0,0.0,0.0,0.0,0.0,0.0,3.0944,3.1383,3.1902,0.0,0.0,0.0,0.0,0.0,0.0,3.1836,3.1693,0.0,0.0,0.0,0.0,0.0,0.0,0.0,0.0,0.0,0.0,0.0,0.0,0.0,0.0,0.0,0.0,0.0,0.0,0.0,0.0,0.0,0.0,0.0,0.0,0.0,0.0,0.0,0.0,0.0,0.0,0.0,0.0,0.0,0.0,0.0,0.0,0.0,0.0,0.0,0.0,0.0,0.0,0.0,0.0,0.0,0.0,0.0,0.0,0.0,0.0,0.0,0.0,0.0,0.0,0.0,3.0599,3.0641,3.1362,3.2795,3.2965,3.2665,3.2061,3.1423,3.08,0.0,0.0,0.0,0.0,0.0,0.0,0.0,0.0,0.0,0.0,0.0,0.0,0.0,0.0,0.0,0.0,0.0,0.0,0.0,0.0,0.0,0.0,0.0,0.0,0.0,0.0,0.0,0.0,0.0,0.0,0.0,0.0,0.0,0.0,0.0,0.0,0.0,0.0,0.0,0.0,0.0,3.1984,3.2737,3.3027,0.0,0.0,0.0,0.0,3.2799,3.2424,0.0,0.0,0.0,0.0,0.0,0.0,0.0,0.0,0.0,0.0,0.0,0.0,0.0,0.0,0.0,0.0,0.0,0.0,0.0,0.0,0.0,0.0,0.0,0.0,0.0,0.0,0.0,0.0,0.0,0.0,0.0,0.0,0.0,0.0,0.0,0.0,0.0,0.0,0.0,0.0,0.0,0.0,0.0,0.0,0.0,0.0,0.0,0.0,0.0,0.0,0.0,0.0,0.0,0.0,0.0,0.0,3.044,3.0472,3.1189,3.2734,3.2886,3.2552,3.1841,3.1289,3.0708,0.0,0.0,0.0,0.0,0.0,0.0,0.0,0.0,0.0,0.0,0.0,0.0,0.0,0.0,0.0,0.0,0.0,0.0,0.0,0.0,0.0,0.0,0.0,0.0,0.0,0.0,0.0,0.0,0.0,0.0,0.0,0.0,0.0,0.0,0.0,0.0,0.0,0.0,0.0,0.0,0.0,3.3216,3.3405,3.3569,3.3706,0.0,0.0,0.0,3.4393,3.4615,0.0,0.0,0.0,0.0,0.0,0.0,0.0,0.0,0.0,0.0,0.0,0.0,0.0,0.0,0.0,0.0,0.0,0.0,0.0,0.0,0.0,0.0,0.0,0.0,0.0,0.0,0.0,0.0,0.0,0.0,0.0,0.0,0.0,0.0,0.0,0.0,0.0,0.0,0.0,0.0,0.0,0.0,0.0,0.0,0.0,0.0,0.0,0.0,0.0,0.0,0.0,0.0,0.0,0.0,0.0,2.8891,3.0305,3.0381,3.1095,3.2601,3.2705,3.2181,3.1091,3.0866,3.0265,0.0,0.0,0.0,0.0,0.0,0.0,0.0,0.0,0.0,0.0,0.0,0.0,0.0,0.0,0.0,0.0,0.0,0.0,0.0,0.0,0.0,0.0,0.0,0.0,0.0,0.0,0.0,0.0,0.0,0.0,0.0,0.0,0.0,0.0,0.0,0.0,0.0,0.0,0.0,0.0,0.0,0.0,3.3193,3.3593,0.0,0.0,0.0,3.4716,3.5015,0.0,0.0,0.0,0.0,0.0,0.0,0.0,0.0,0.0,0.0,0.0,0.0,0.0,0.0,0.0,0.0,0.0,0.0,0.0,0.0,0.0,0.0,0.0,0.0,0.0,0.0,0.0,0.0,0.0,0.0,0.0,0.0,0.0,0.0,0.0,0.0,0.0,0.0,0.0,0.0,0.0,0.0,0.0,0.0,0.0,0.0,0.0,0.0,0.0,0.0,0.0,0.0,0.0,0.0,0.0,0.0,0.0,3.0176,3.0372,3.1097,3.2435,3.2506,3.1846,3.0477,3.0496,0.0,0.0,0.0,0.0,0.0,0.0,0.0,0.0,0.0,0.0,0.0,0.0,0.0,0.0,0.0,0.0,0.0,0.0,0.0,0.0,0.0,0.0,0.0,0.0,0.0,0.0,0.0,2.6875,0.0,0.0,0.0,0.0,0.0,0.0,0.0,0.0,0.0,0.0,0.0,0.0,0.0,0.0,3.2927,3.3291,3.368,3.4104,0.0,0.0,3.5005,3.5352,3.527,3.527,0.0,0.0,0.0,0.0,0.0,0.0,0.0,0.0,0.0,0.0,0.0,0.0,0.0,0.0,0.0,0.0,0.0,0.0,0.0,0.0,0.0,0.0,0.0,0.0,0.0,0.0,0.0,0.0,0.0,0.0,0.0,0.0,0.0,0.0,0.0,0.0,0.0,0.0,0.0,0.0,0.0,0.0,0.0,0.0,0.0,0.0,0.0,0.0,0.0,0.0,0.0,0.0,0.0,0.0,0.0,2.9922,3.0522,3.1289,3.2162,3.2249,3.1583,3.0266,3.0335,2.9754,0.0,0.0,0.0,0.0,0.0,0.0,0.0,0.0,0.0,0.0,0.0,0.0,0.0,0.0,0.0,0.0,0.0,0.0,0.0,0.0,0.0,0.0,0.0,0.0,0.0,0.0,0.0,0.0,0.0,0.0,0.0,0.0,0.0,0.0,0.0,0.0,0.0,0.0,0.0,0.0,0.0,3.346,3.4135,3.4198,3.4286,0.0,0.0,3.5276,3.5712,3.6046,3.6478,3.7002,0.0,0.0,0.0,0.0,0.0,0.0,0.0,0.0,0.0,0.0,0.0,0.0,0.0,0.0,0.0,0.0,0.0,0.0,0.0,0.0,0.0,0.0,0.0,0.0,0.0,0.0,0.0,0.0,0.0,0.0,0.0,0.0,0.0,0.0,0.0,0.0,0.0,0.0,0.0,0.0,0.0,0.0,0.0,0.0,0.0,0.0,0.0,0.0,0.0,0.0,0.0,0.0,0.0,2.9255,3.0438,3.063,3.1114,3.193,3.1984,3.1551,3.0658,3.0347,2.9728,0.0,0.0,0.0,0.0,0.0,0.0,0.0,0.0,0.0,0.0,0.0,0.0,0.0,0.0,0.0,0.0,0.0,0.0,0.0,0.0,0.0,0.0,0.0,0.0,0.0,0.0,0.0,0.0,2.8971,2.9437,3.0123,0.0,0.0,0.0,0.0,0.0,0.0,0.0,0.0,0.0,0.0,3.353,3.4152,3.4596,0.0,0.0,3.6241,3.6593,3.6971,3.6714,3.6645,3.7206,3.7085,0.0,0.0,0.0,0.0,0.0,0.0,0.0,0.0,0.0,0.0,0.0,0.0,0.0,0.0,0.0,0.0,0.0,0.0,0.0,0.0,0.0,0.0,0.0,0.0,0.0,0.0,0.0,0.0,0.0,0.0,0.0,0.0,0.0,0.0,0.0,0.0,0.0,0.0,0.0,0.0,0.0,0.0,0.0,0.0,0.0,0.0,0.0,0.0,0.0,0.0,0.0,0.0,2.961,3.0644,3.0797,3.1139,3.1707,3.1747,3.1475,3.0803,3.0402,2.9833,0.0,0.0,0.0,0.0,0.0,0.0,0.0,0.0,0.0,0.0,0.0,0.0,0.0,0.0,0.0,0.0,0.0,0.0,0.0,0.0,0.0,0.0,0.0,0.0,0.0,0.0,0.0,0.0,2.9461,2.9989,3.1162,0.0,0.0,0.0,0.0,0.0,0.0,0.0,0.0,0.0,0.0,3.3407,3.4037,3.466,3.5375,3.627,3.6641,3.6926,3.7375,3.6965,3.6811,3.7343,0.0,0.0,0.0,0.0,0.0,0.0,0.0,0.0,0.0,0.0,0.0,0.0,0.0,0.0,0.0,0.0,0.0,0.0,0.0,0.0,0.0,0.0,0.0,0.0,0.0,0.0,0.0,0.0,0.0,0.0,0.0,0.0,0.0,0.0,0.0,0.0,0.0,0.0,0.0,0.0,0.0,0.0,0.0,0.0,0.0,0.0,0.0,0.0,0.0,0.0,0.0,0.0,0.0,3.043,3.0441,3.1124,3.1481,3.1515,3.15,3.1196,3.0553,3.061,3.0023,2.8644,0.0,0.0,0.0,0.0,0.0,0.0,0.0,0.0,0.0,0.0,0.0,0.0,0.0,0.0,0.0,0.0,0.0,0.0,0.0,0.0,0.0,0.0,0.0,0.0,0.0,0.0,2.8657,2.9522,3.062,0.0,0.0,0.0,0.0,0.0,0.0,0.0,0.0,0.0,0.0,3.2882,3.3147,3.3832,3.4261,3.4854,3.5622,3.576,3.5949,3.6493,3.6821,3.7109,0.0,0.0,0.0,0.0,0.0,0.0,0.0,0.0,0.0,0.0,0.0,0.0,0.0,0.0,0.0,0.0,0.0,0.0,0.0,0.0,0.0,0.0,0.0,0.0,0.0,0.0,0.0,2.7151,2.701,0.0,0.0,0.0,0.0,0.0,0.0,0.0,0.0,0.0,0.0,0.0,3.1483,3.1574,0.0,0.0,0.0,0.0,0.0,0.0,0.0,0.0,0.0,0.0,0.0,0.0,3.05,3.0915,3.1108,3.1151,3.1112,3.1151,3.1094,3.0953,3.063,2.9816,2.8601,0.0,0.0,0.0,0.0,0.0,0.0,0.0,0.0,0.0,0.0,0.0,0.0,0.0,0.0,0.0,0.0,0.0,0.0,0.0,0.0,0.0,0.0,0.0,0.0,0.0,3.0453,0.0,0.0,0.0,0.0,0.0,0.0,0.0,0.0,0.0,0.0,0.0,3.2539,3.2465,3.2636,3.3078,3.3966,3.4446,3.4952,0.0,0.0,0.0,0.0,0.0,0.0,0.0,0.0,0.0,0.0,0.0,0.0,0.0,0.0,4.0053,4.0188,4.0329,4.0552,4.0899,0.0,0.0,0.0,0.0,0.0,0.0,0.0,0.0,0.0,0.0,0.0,0.0,0.0,0.0,0.0,0.0,2.8801,0.0,0.0,0.0,0.0,0.0,0.0,0.0,0.0,3.1946,3.2641,3.3149,3.3416,3.3606,0.0,3.355,3.2517,0.0,0.0,0.0,0.0,0.0,0.0,0.0,0.0,3.0779,3.1463,3.1382,3.1435,3.1629,3.1435,3.1416,3.1463,3.062,2.9822,2.9111,2.8869,2.8797,0.0,0.0,0.0,0.0,0.0,0.0,0.0,0.0,0.0,0.0,0.0,0.0,0.0,0.0,0.0,0.0,0.0,0.0,0.0,0.0,0.0,0.0,0.0,3.1182,0.0,0.0,0.0,0.0,0.0,0.0,0.0,0.0,0.0,3.2609,3.2665,3.2672,3.2372,3.2756,3.3366,3.402,0.0,0.0,0.0,0.0,0.0,0.0,0.0,3.7794,3.8019,3.838,3.8928,3.9589,4.021,4.0808,4.1395,0.0,0.0,4.1113,4.1184,4.1398,4.1686,4.2174,4.2727,4.3279,4.3675,4.4036,0.0,0.0,0.0,0.0,0.0,0.0,0.0,0.0,3.0674,3.0708,0.0,3.0424,0.0,0.0,0.0,0.0,0.0,0.0,0.0,0.0,3.313,3.357,3.3754,3.4355,3.4724,3.4811,3.4267,3.3935,3.371,3.2715,0.0,0.0,0.0,0.0,0.0,0.0,3.1327,3.1976,3.201,3.2323,3.2904,3.2357,3.201,3.1943,3.065,2.9993,3.0149,2.9403,2.9104,2.9298,2.9315,0.0,0.0,0.0,0.0,0.0,0.0,0.0,0.0,0.0,0.0,0.0,0.0,0.0,0.0,0.0,0.0,0.0,0.0,0.0,0.0,3.1087,0.0,0.0,0.0,0.0,0.0,0.0,0.0,0.0,0.0,0.0,3.2557,3.2941,3.3078,3.2539,0.0,0.0,0.0,0.0,3.516,3.6136,3.6285,3.6668,3.7588,3.7949,3.82,3.8464,0.0,0.0,4.0449,4.1299,4.2005,4.2688,4.275,4.2521,4.1572,4.1478,4.1704,4.2471,4.2593,4.2962,4.4271,4.4618,4.48,3.373,0.0,0.0,0.0,0.0,3.3306,3.3468,3.3745,3.3397,3.3003,3.2544,3.2326,0.0,0.0,0.0,0.0,0.0,0.0,3.3216,3.3762,3.4587,3.5225,3.5742,3.5931,3.6055,3.608,3.5934,3.581,3.5694,3.4436,3.3369,3.2584,0.0,0.0,0.0,0.0,3.2503,3.2617,3.265,3.2673,3.2774,3.2608,3.2275,3.1722,3.0813,3.0089,2.9649,2.9474,2.9398,2.9508,2.9566,0.0,0.0,0.0,0.0,0.0,0.0,0.0,0.0,0.0,0.0,0.0,0.0,0.0,0.0,0.0,0.0,0.0,0.0,0.0,3.1866,3.2578,3.2964,0.0,0.0,0.0,0.0,0.0,0.0,0.0,0.0,0.0,3.3067,3.2815,3.2856,0.0,0.0,3.3799,3.4192,3.491,3.5484,3.577,0.0,0.0,0.0,3.7973,3.8688,3.8759,3.9925,4.1046,4.1539,4.2044,4.2464,4.2984,4.307,4.3108,4.3153,4.3111,4.3166,4.3431,4.4018,4.4668,4.5146,4.5572,4.5974,3.6229,3.5111,3.5006,3.5067,3.5267,3.5413,3.5489,3.5506,3.5306,3.4901,3.436,3.436,3.3971,3.3259,3.3259,0.0,0.0,0.0,3.4655,3.5136,3.5903,3.6482,3.6873,3.7193,3.7324,3.7291,3.7084,3.6894,3.6873,3.5778,3.4923,3.4197,0.0,0.0,3.2707,3.2707,3.2851,3.3082,3.3115,3.3201,3.3419,3.3077,3.2406,3.1429,3.0893,3.0314,2.958,2.9588,2.9663,2.9758,2.9819,2.9939,0.0,0.0,0.0,0.0,0.0,0.0,0.0,0.0,0.0,0.0,0.0,3.0762,0.0,0.0,0.0,0.0,3.2017,3.2152,3.2403,3.3096,0.0,0.0,0.0,0.0,0.0,0.0,0.0,3.3321,3.3298,3.338,3.3515,3.3041,3.2975,3.3685,3.4061,3.4397,3.4711,0.0,3.5877,3.6087,3.677,3.7352,3.7679,3.861,3.9314,3.9432,4.0553,4.1567,4.1993,4.2417,4.286,4.3364,4.35,4.3681,4.4174,4.4266,4.4324,4.4363,4.5251,4.6092,4.6364,4.7054,4.7562,3.8907,3.8869,3.8486,3.7985,3.7382,3.7807,3.7603,3.7026,3.6761,3.6562,3.6465,3.6497,3.6044,3.5292,3.5292,0.0,0.0,3.6044,3.6367,3.64,3.7053,3.7376,3.7409,3.8084,3.8408,3.8375,3.7838,3.7486,3.7344,3.674,3.6442,3.6371,3.386,3.2593,3.2639,3.2616,3.291,3.3532,3.3532,3.3826,3.4391,3.3583,3.2503,3.1268,3.0969,3.0513,2.9879,2.976,2.9804,2.9989,3.0011,3.0336,3.0985,0.0,0.0,0.0,0.0,0.0,0.0,0.0,0.0,0.0,0.0,0.0,0.0,0.0,0.0,0.0,3.3359,0.0,3.2985,3.2981,0.0,0.0,0.0,3.3585,3.3205,3.391,3.4251,3.3885,0.0,0.0,0.0,0.0,3.3379,3.3636,3.4591,3.5269,3.5322,3.5748,3.6314,3.6765,3.7462,3.8129,3.8707,3.9459,4.0029,4.0372,4.0872,4.1459,4.1944,4.2391,4.306,4.3681,4.3879,4.404,4.4583,4.472,4.5058,4.5126,4.6079,4.7095,4.7674,4.8447,4.888,3.979,3.9909,4.0353,4.0091,3.9396,3.9512,3.9691,3.9874,3.9707,3.8979,3.7922,3.7922,3.7209,3.6044,3.6044,3.6044,3.6076,3.6756,3.7053,3.7112,3.7825,3.8149,3.8149,3.8311,3.8408,3.8375,3.8161,3.8036,3.7947,3.7154,3.6805,3.6741,3.5551,3.5098,3.5382,3.5305,3.5033,3.4542,3.4542,3.433,3.3899,3.3015,3.2428,3.2109,3.0903,3.0219,3.0029,2.9552,2.952,3.0044,3.0076,3.0417,3.1166,3.115,0.0,0.0,0.0,0.0,0.0,0.0,0.0,0.0,0.0,3.2329,3.1893,0.0,3.3544,0.0,3.3476,3.3469,3.2947,3.3715,0.0,0.0,3.3999,3.4149,3.3738,3.3576,3.3539,3.3581,3.3392,3.3357,3.3695,3.3646,3.3784,3.4307,3.4616,3.4925,3.5293,3.5903,3.629,3.6541,3.7169,3.7852,3.8569,3.9525,4.0503,4.1271,4.1505,4.1683,4.2026,4.2181,4.2435,4.2776,4.3018,4.3287,4.3622,4.3974,4.4537,4.5184,4.6264,4.7313,4.7959,4.8407,4.8725,4.0989,4.1083,4.1405,4.1304,4.0899,4.1048,4.1111,4.1054,4.0936,4.0234,3.9114,3.9114,3.8695,3.7987,3.7955,3.7955,3.7987,3.8312,3.8534,3.8505,3.8921,3.9114,3.9114,3.9114,3.9114,3.9114,3.9026,3.8996,3.8964,3.8432,3.7993,3.7674,3.7147,3.6826,3.673,3.6176,3.5609,3.509,3.4977,3.4551,3.3751,3.3239,3.2683,3.2132,3.1174,3.056,3.0297,2.988,2.9824,3.0167,3.0198,3.0535,3.1273,3.1285,3.1534,0.0,0.0,0.0,0.0,0.0,0.0,0.0,0.0,0.0,0.0,0.0,3.3834,0.0,3.3806,0.0,3.3255,3.4028,3.4399,3.3833,3.4203,3.4353,3.3963,3.3821,3.3723,3.3777,3.3555,3.3518,3.3674,3.3641,3.3862,3.4678,3.4717,3.4895,3.568,3.6288,3.6647,3.6673,3.7273,3.8084,3.9029,3.9982,4.0807,4.1369,4.1524,4.1597,4.1895,4.1918,4.1993,4.2289,4.2435,4.2679,4.3018,4.3307,4.3835,4.4793,4.5855,4.6918,4.8025,4.8752,4.9181,4.1948,4.1948,4.185,4.1816,4.1816,4.2109,4.1885,4.1369,4.1245,4.0798,4.0159,4.0032,4.0031,4.0031,4.0031,4.0031,4.0031,4.0031,4.0031,4.0031,4.0031,4.0031,4.0031,4.0031,4.0031,4.0031,3.9938,3.9939,3.9939,3.9721,3.9311,3.874,3.8402,3.7934,3.7339,3.6258,3.5591,3.5263,3.4995,3.454,3.3836,3.363,3.3042,3.2,3.1574,3.1124,3.067,3.0386,3.0308,3.04,3.04,3.0738,3.1562,3.1593,3.2146,0.0,3.3466,0.0,0.0,0.0,0.0,0.0,0.0,0.0,0.0,3.3742,3.3989,3.3886,3.4179,3.4164,3.3643,3.4156,3.4285,3.3733,3.4165,3.4393,3.4003,3.4151,3.423,3.4047,3.3768,3.3641,3.3598,3.3479,3.3875,3.4812,3.4936,3.5209,3.6106,3.6683,3.6917,3.7015,3.7577,3.8438,3.953,4.0404,4.0971,4.1198,4.1324,4.1348,4.1597,4.1647,4.1746,4.1944,4.2016,4.2239,4.2706,4.2803,4.3182,4.4132,4.5108,4.6315,4.7795,4.8982,4.9688,4.1254,4.1286,4.1286,4.1252,4.1252,4.1288,4.1524,4.1789,4.1885,4.1533,4.083,4.0255,4.0031,4.0031,4.0031,4.0031,4.0031,4.0031,4.0031,4.0031,4.0031,4.0031,4.0031,4.0031,4.0031,3.9968,3.9721,3.9566,3.9597,3.9251,3.9061,3.8936,3.8713,3.849,0.0,0.0,0.0,0.0,3.4483,3.4027,3.3875,3.3387,3.3022,3.2745,3.1683,0.0,3.0948,3.0377,3.0289,3.0833,3.0864,0.0,0.0,0.0,0.0,0.0,0.0,0.0,0.0,0.0,0.0,0.0,3.4486,3.4335,3.3907,3.4328,3.4565,3.4381,3.4306,3.406,3.363,3.4143,3.4324,3.3913,3.4377,3.4556,3.4142,3.3927,3.3768,3.3556,3.3368,3.324,3.329,3.3532,3.406,3.474,3.5102,3.5604,3.6294,3.6471,3.6546,3.6622,3.7498,3.8428,3.8951,4.0048,4.0844,4.0997,4.1147,4.1324,4.1374,4.1348,4.1348,4.1474,4.1647,4.1796,4.1944,4.2289,4.2685,4.3133,4.43,4.568,4.7137,4.8155,4.8902,4.095,0.0,4.0746,4.0646,0.0,4.0677,4.0783,4.1088,4.1454,4.143,4.1083,4.0703,4.0545,4.0545,4.0545,4.0545,4.0545,4.0545,4.0545,4.0545,4.0545,4.0545,4.0545,4.0545,4.0545,4.0545,4.0351,4.0253,4.0155,3.986,3.9508,3.9102,3.8934,3.8647,3.818,3.7679,3.6793,3.5457,3.5,3.4605,3.4211,3.3909,3.3457,3.2881,0.0,0.0,0.0,0.0,0.0,0.0,0.0,0.0,0.0,0.0,0.0,3.3809,3.3774,3.3915,3.4342,3.433,3.4558,3.5091,3.4978,3.4696,3.4289,3.4307,3.4289,3.4061,3.414,3.4068,3.378,3.4313,3.4511,3.4185,3.4323,3.434,3.4131,3.3768,3.3513,3.3411,3.3197,3.3169,3.3488,3.3696,3.4248,3.4931,3.5307,3.5755,3.6279,3.6405,3.6405,3.643,3.7132,3.7982,3.8581,3.9392,4.031,4.0617,4.0821,4.0972,4.1097,4.1097,4.1147,4.1274,4.1424,4.1547,4.1696,4.1944,4.219,4.2543,4.3674,4.4893,4.5879,4.7181,4.838,4.0677,4.0643,4.0301,4.0161,4.0161,4.0161,4.0161,4.0196,0.0,0.0,0.0,4.1049,4.1049,4.1018,4.1016,4.1016,4.1016,4.1016,4.1016,4.1016,4.1016,4.1016,4.1016,4.0982,4.1016,4.1016,4.095,4.0848,4.0681,4.0505,4.0025,3.9367,3.9195,3.8724,3.8054,3.7858,3.7218,3.6077,3.5896,3.5471,3.4713,3.4563,3.3995,3.3036,3.2796,3.2496,3.2132,3.1928,3.181,3.1811,3.2139,3.2375,3.2523,3.2902,3.3456,3.413,3.4025,3.4418,3.5479,3.5046,3.5009,3.5487,3.5311,3.4967,3.4547,3.4267,3.4039,3.3843,3.4073,3.4165,3.3989,3.4342,3.4548,3.4314,3.4147,3.4021,3.3937,3.3666,3.3436,3.3427,3.3374,3.3445,3.3972,3.4173,3.45,3.5282,3.5583,3.583,3.6279,3.6405,3.6405,3.6455,3.6933,3.7484,3.8059,3.8891,3.9524,4.0134,4.0414,4.0593,4.0744,4.0846,4.0946,4.1147,4.1248,4.1348,4.1547,4.1696,4.1746,4.1993,4.3225,4.431,4.4644,4.6302,4.7717,4.0086,4.0117,4.0051,4.0016,4.0016,4.0046,4.0046,4.0051,4.0608,4.0848,4.0848,4.0848,4.0848,4.0848,4.0646,4.0574,4.0608,4.0608,4.0608,0.0,4.0574,4.0608,4.0574,4.0574,4.0608,4.0574,4.0405,4.0335,4.0266,4.0156,4.0021,3.9894,3.9688,3.9179,3.8407,3.8312,3.7918,3.7169,3.6663,3.6061,3.537,3.4803,3.4414,3.4265,3.3634,3.3335,3.3246,3.3063,3.2941,3.2971,3.2905,3.3138,3.3699,3.3627,3.408,3.5014,3.4958,3.4995,3.5423,3.5159,3.5031,3.4924,3.5169,3.509,3.4551,3.4768,3.4819,3.4641,3.4421,3.4293,3.4085,3.3969,3.3894,3.381,3.3768,3.3683,3.3556,3.3479,3.3528,3.3758,3.384,3.3997,3.4525,3.4931,3.5232,3.5533,3.5906,3.6257,3.638,3.6405,3.6405,3.648,3.6883,3.7235,3.7535,3.8463,3.917,3.9423,4.0058,4.0415,4.0542,4.0542,4.0643,4.0896,4.0997,4.1097,4.1298,4.1547,4.1647,4.1849,4.2924,4.3899,4.4004,4.5432,4.6818,3.9839,3.9803,3.9727,3.9661,3.9661,3.9661,3.9661,3.9727,4.0051,4.0261,4.0366,4.0366,4.0366,4.0366,4.0261,4.0226,4.0226,4.0226,4.0226,4.0226,4.0226,4.0226,4.0226,4.0257,4.0226,4.0226,4.0156,4.0051,3.9915,3.9874,3.9768,3.9661,3.9589,3.9331,3.896,3.8823,3.8424,3.7799,3.7143,3.6518,3.5896,3.5469,3.4961,3.4248,3.3921,3.3594,3.3237,3.3145,3.3051,3.2958,3.3123,3.3317,3.3511,3.3912,3.437,3.4838,3.4896,3.5057,3.5376,3.5289,3.5123,3.4861,3.4967,3.4856,3.4345,3.4556,3.4605,3.4465,3.4189,3.3979,3.3894,3.3768,3.37,3.37,3.3598,3.3513,3.3436,3.3561,3.3752,3.3872,3.4173,3.455,3.5056,3.5357,3.5633,3.5931,3.6304,3.6405,3.6405,3.6405,3.6405,3.643,3.6631,3.6908,3.7184,3.7686,3.8389,3.8944,3.9373,3.9804,4.0135,4.0287,4.0389,4.0643,4.0795,4.0946,4.1097,4.1298,4.1448,4.1629,4.262,4.3461,4.3829,4.4887,4.6137,3.9553,3.9517,3.9337,3.9265,3.9265,3.9265,3.9265,3.9301,3.9445,3.9589,3.9732,3.9869,3.991,3.994,3.9905,3.9869,3.9869,3.9869,3.9869,3.9869,3.9839,3.9839,3.9869,3.9869,3.9839,3.9869,3.9869,3.9768,3.9661,3.9625,3.9553,3.9409,3.9337,3.9337,3.9337,3.9156,3.8743,3.8204,3.763,3.7044,3.6378,3.6182,3.5613,3.4728,3.446,3.4136,3.3633,3.336,3.3176,3.3045,3.3401,3.3581,3.347,3.415,3.4615,3.4711,3.4799,3.5024,3.5331,3.5305,3.5127,3.4839,3.4673,3.4507,3.4173,3.4147,3.4147,3.3979,3.381,3.3641,3.3641,3.3598,3.3556,3.3556,3.3555,3.3528,3.3553,3.3834,3.4148,3.4274,3.465,3.5082,3.5533,3.5683,3.5881,3.6279,3.6405,3.6405,3.6405,3.6405,3.6405,3.6405,3.6405,3.6556,3.6983,3.7184,3.7687,3.8542,3.8844,3.9272,3.9803,4.0032,4.0134,4.0338,4.0593,4.0744,4.0896,4.1047,4.1198,4.1376,4.2443,4.3466,4.3992,4.4758,4.5848,3.9053,3.8907,3.887,3.887,3.887,3.887,3.887,3.887,3.887,3.8907,3.898,3.9451,3.9696,3.9696,3.9517,3.9445,3.9445,3.9475,3.9475,3.9505,3.9445,3.9475,3.9535,3.9475,3.9475,3.9505,3.9505,3.9505,3.9469,3.9409,3.9439,3.9373,3.9228,3.9156,3.9119,3.8907,3.8694,3.8479,3.8206,3.7667,3.6816,3.6728,3.6669,3.6551,3.579,3.5463,3.5219,3.4482,3.3989,3.4013,3.4247,3.4377,3.4363,3.4629,3.4919,3.5256,3.5134,3.5162,3.5373,3.5032,3.4839,3.4797,3.4382,3.4173,3.4089,3.3751,3.3556,3.3641,3.3513,3.3428,3.3386,3.3308,3.3248,3.3298,3.3633,3.3866,3.3916,3.4324,3.4826,3.5307,3.5357,3.5633,3.6132,3.6279,3.6329,3.638,3.6405,3.6405,3.6405,3.6405,3.6405,3.6405,3.6405,3.643,3.6581,3.6933,3.7362,3.799,3.8542,3.9045,3.9498,3.975,3.9826,4.0083,4.0185,4.0389,4.0744,4.0946,4.1047,4.1404,4.229,4.3415,4.4625,4.5074,4.5555,3.887,3.8767,3.8767,3.8723,3.8612,3.8612,3.8538,3.8464,3.8464,3.8464,3.8464,3.8723,3.8943,3.9162,3.909,3.9017,3.9046,3.9461,3.9639,3.9669,4.0025,4.0165,4.0165,4.0165,4.0165,4.0106,3.9817,3.9639,3.955,3.9224,3.9017,3.9017,3.8943,3.887,3.8752,3.8538,3.8277,3.7967,3.7749,3.7377,3.6816,3.6749,3.6483,3.5993,3.5662,3.5483,3.5418,3.4939,3.4646,3.4538,3.4472,3.4427,3.4316,3.4519,3.4687,3.4854,3.4888,3.4941,3.5018,3.4632,3.4356,3.4382,3.4063,3.381,3.3709,3.3496,3.3386,3.33,3.3283,3.324,3.3265,3.3456,3.3571,3.3621,3.4048,3.4374,3.4399,3.4876,3.5257,3.5483,3.583,3.6081,3.6355,3.6405,3.6405,3.6405,3.6405,3.6405,3.6405,3.6405,3.6405,3.6405,3.6405,3.6405,3.643,3.6556,3.6935,3.7437,3.799,3.8542,3.9094,3.9521,3.9749,3.9826,3.9981,4.0185,4.0593,4.0846,4.0997,4.1432,4.2239,4.3415,4.4674,4.4884,4.5154,3.8538,3.8464,3.8427,3.8277,3.8089,3.8089,3.8014,3.7901,3.7863,3.7949,3.8093,3.8122,3.8361,3.8772,3.8852,3.8972,3.9199,3.9639,3.9836,3.9827,4.0227,4.0393,4.0354,4.0344,4.0354,4.0373,3.9964,3.9836,3.9815,3.9404,3.9052,3.8943,3.8839,3.861,3.8269,3.8052,3.7711,3.7289,3.7095,3.6822,3.6385,3.6403,3.6183,3.5658,3.5452,3.533,3.533,3.4975,3.4705,3.4554,3.4503,3.4421,3.4294,3.4524,3.4607,3.4473,3.4559,3.459,3.4481,3.4189,3.3979,3.3962,3.3896,3.3785,3.3639,3.3723,3.3694,3.3589,3.352,3.352,3.337,3.3796,3.4098,3.4173,3.46,3.4881,3.4931,3.5382,3.5755,3.5805,3.6107,3.6405,3.6405,3.6405,3.6405,3.6405,3.6405,3.6405,3.6405,3.6405,3.6405,3.6405,3.6405,3.6405,3.6405,3.6455,3.6656,3.7036,3.7588,3.804,3.8718,3.9245,3.9622,3.9674,3.9879,4.0083,4.0338,4.0593,4.105,4.1589,4.2343,4.331,4.4279,4.4539,4.4776,3.7825,3.7625,3.7471,3.7335,3.7084,3.7113,3.7113,3.713,3.7141,3.7383,3.7861,3.7889,3.8227,3.8774,3.8953,3.9412,3.9934,4.0021,3.9931,3.9704,3.9762,3.9642,3.9441,3.9441,3.959,3.9837,3.9762,3.9794,4.0021,3.9992,3.9741,3.9093,3.8909,3.8428,3.7796,3.7546,3.7017,3.6496,3.6417,3.6071,3.5548,3.5642,3.5882,3.5955,3.5492,3.5139,3.5045,3.436,3.3973,3.3973,3.4359,3.4471,3.4485,3.4834,3.48,3.4428,3.423,3.4021,3.3852,3.3793,3.3751,3.376,3.4048,3.4197,3.4179,3.4357,3.4474,3.4555,3.455,3.4399,3.4048,3.4374,3.463,3.468,3.5132,3.5433,3.5483,3.5931,3.6329,3.6329,3.638,3.6405,3.6405,3.6405,3.6405,3.6405,3.6405,3.6405,3.6405,3.6405,3.6405,3.6405,3.6405,3.6405,3.6405,3.6405,3.6656,3.6935,3.7285,3.7613,3.8366,3.8994,3.9245,3.9521,3.9673,3.9903,4.0083,4.0492,4.1079,4.1722,4.2423,4.331,4.399,4.4434,4.4724,3.7399,3.7557,3.787,3.7795,3.7469,3.7469,3.7387,3.7263,3.7263,3.7373,3.7565,3.7565,3.7922,3.8541,3.8616,3.8878,3.9256,3.9637,3.9713,3.9576,3.9872,3.9985,3.9802,3.9759,3.9802,3.983,3.9633,3.9432,3.9297,3.9268,3.9155,3.8956,3.8819,3.8476,3.7985,3.7808,3.7316,3.6416,3.628,3.583,3.4906,3.4853,3.4827,3.4677,3.509,3.5291,3.5331,3.4875,3.4647,3.4647,3.47,3.4603,3.4439,3.4267,3.4147,3.3953,3.3894,3.381,3.3751,3.3887,3.4005,3.4056,3.4319,3.4488,3.4539,3.4645,3.468,3.4756,3.5031,3.5056,3.5006,3.5107,3.5207,3.5257,3.573,3.6056,3.6081,3.6279,3.6405,3.6405,3.6405,3.6405,3.6405,3.6405,3.6405,3.6405,3.6405,3.6405,3.6405,3.6405,3.6405,3.6405,3.6405,3.6405,3.6405,3.6405,3.6531,3.6707,3.7008,3.7462,3.809,3.8642,3.8994,3.9521,3.9697,3.98,4.0083,4.0415,4.1053,4.1774,4.2501,4.3127,4.3755,4.4278,4.4591,3.7191,3.7401,3.7813,3.7769,3.7431,3.7416,3.7304,3.7203,3.7203,3.7311,3.7472,3.7499,3.7822,3.8378,3.8431,3.8657,3.8971,3.9406,3.9446,3.9286,3.9865,4.0007,3.9857,4.0004,4.0021,3.9908,3.9562,3.921,3.9005,3.8949,3.8838,3.8672,3.8644,3.8366,3.7865,3.7769,3.7284,3.6523,3.6258,3.5669,3.4721,3.4517,3.4244,3.392,3.4439,3.4853,3.4853,3.4729,3.4673,3.4647,3.4548,3.4356,3.4189,3.3894,3.3683,3.3598,3.3598,3.3632,3.3751,3.3976,3.4167,3.4395,3.4765,3.4931,3.4956,3.5152,3.5253,3.5353,3.5554,3.5759,3.5805,3.5805,3.5805,3.583,3.6132,3.6405,3.6405,3.6405,3.6405,3.6405,3.6405,3.6405,3.6405,3.6405,3.6405,3.6405,3.6405,3.6405,3.6405,3.6405,3.6405,3.6405,3.6405,3.6405,3.643,3.643,3.6455,3.6606,3.6732,3.7211,3.7864,3.8366,3.8894,3.9446,3.9749,3.9903,4.0083,4.044,4.0977,4.1696,4.2345,4.297,4.357,4.4225,4.4485,3.7261,3.7118,3.7144,3.7123,3.6934,3.689,3.6854,3.6864,3.6864,3.7139,3.7564,3.7635,3.7909,3.8477,3.8466,3.8796,3.9226,3.9321,3.9222,3.9069,3.9508,3.9639,3.9408,3.9887,4.0001,3.9731,3.9438,3.9301,3.9274,3.9193,3.8922,3.8532,3.838,3.8006,3.7128,3.722,3.694,3.6541,3.6236,3.5731,3.4977,3.4727,3.4366,3.3862,3.3896,3.387,3.3819,3.3793,3.3852,3.3784,3.3742,3.37,3.3725,3.3683,3.3598,3.3504,3.3436,3.3561,3.3909,3.4016,3.4343,3.47,3.5207,3.5508,3.5604,3.5956,3.6254,3.6229,3.6279,3.6355,3.6355,3.638,3.638,3.638,3.6405,3.6405,3.6405,3.6405,3.6405,3.6405,3.6405,3.6405,3.6405,3.6405,3.6405,3.6405,3.6405,3.6455,3.6531,3.6556,3.648,3.6531,3.6681,3.6832,3.6631,3.6455,3.648,3.6531,3.6631,3.6958,3.7713,3.8341,3.8894,3.9421,3.9672,3.98,4.0032,4.0338,4.0594,4.1234,4.1983,4.2735,4.328,4.3853,4.4323,3.7386,3.7087,3.7456,3.7389,3.7027,3.6981,3.7007,3.6981,3.6981,3.7085,3.724,3.7266,3.7577,3.8018,3.8122,3.8433,3.8973,3.8986,3.9097,3.9286,3.9349,3.9238,3.9099,3.9184,3.9303,3.9285,3.9244,3.9233,3.9342,3.9097,3.8734,3.8595,3.8198,3.7798,3.7415,3.7344,3.7078,3.6463,3.6277,3.584,3.5105,3.4965,3.4775,3.4445,3.4376,3.4268,3.3864,3.376,3.3683,3.3683,3.37,3.3641,3.3539,3.3368,3.346,3.3701,3.3708,3.396,3.4424,3.4801,3.5006,3.5307,3.5805,3.6056,3.6107,3.6304,3.643,3.643,3.6405,3.6405,3.6455,3.6757,3.6832,3.6455,3.6405,3.648,3.6505,3.648,3.6405,3.6405,3.6405,3.6405,3.643,3.6455,3.6505,3.6505,3.648,3.6581,3.6883,3.6958,3.7111,3.7387,3.7412,3.7337,3.7236,3.7161,3.7161,3.7086,3.7059,3.7209,3.7839,3.8366,3.8894,3.932,3.9572,3.98,3.9981,4.0236,4.0517,4.1029,4.1877,4.2444,4.2935,4.3506,4.4051,3.7325,3.7079,3.7416,3.7433,3.7108,3.7108,3.7108,3.7134,3.7339,3.7416,3.7441,3.7672,3.7928,3.8188,3.8239,3.8546,3.9032,3.8985,3.9235,3.9633,3.9404,3.9205,3.9107,3.9084,3.9156,3.9203,3.9071,3.9091,3.921,3.8899,3.8739,3.8661,3.8168,3.779,3.7624,3.7444,3.7042,3.6621,3.6478,3.6085,3.5517,3.5325,3.5062,3.4751,3.468,3.455,3.4243,3.411,3.3903,3.3573,3.3471,3.3487,3.3536,3.3481,3.3621,3.4073,3.4248,3.4449,3.4931,3.5282,3.5608,3.5855,3.6157,3.6405,3.643,3.6531,3.6707,3.6707,3.6933,3.7033,3.7036,3.7262,3.7312,3.7036,3.701,3.7033,3.7033,3.6985,3.6985,3.7084,3.7036,3.7033,3.6985,3.6985,3.6985,3.6985,3.6985,3.7036,3.7387,3.7487,3.7764,3.7914,3.7839,3.7839,3.7939,3.7939,3.7939,3.7789,3.7638,3.7864,3.8316,3.8592,3.9045,3.9396,3.9697,3.9697,3.9903,4.0181,4.0512,4.115,4.1768,4.2437,4.3003,4.3493,4.4013,3.7108,3.7062,3.7062,3.7087,3.7117,3.7117,3.7168,3.7245,3.768,3.7862,3.8012,3.8321,3.8628,3.8753,3.873,3.9036,3.9495,3.9347,3.9474,3.9804,3.9726,3.9521,3.9521,3.9547,3.9521,3.952,3.9137,3.8932,3.9058,3.8856,3.8828,3.8751,3.8191,3.7859,3.7705,3.7322,3.7066,3.6917,3.6705,3.6358,3.5927,3.5718,3.5403,3.4951,3.4926,3.4901,3.4776,3.467,3.4192,3.3388,3.3381,3.3607,3.3847,3.3947,3.4198,3.47,3.4776,3.5077,3.5408,3.5583,3.5881,3.6358,3.648,3.648,3.6681,3.701,3.7236,3.7262,3.7613,3.7889,3.7889,3.8015,3.804,3.8041,3.7914,3.7864,3.7965,3.7914,3.7814,3.7864,3.7965,3.7965,3.7839,3.7839,3.7864,3.7864,3.7839,3.7864,3.8015,3.8065,3.809,3.8216,3.8417,3.8467,3.8617,3.8617,3.8642,3.8592,3.8391,3.8492,3.8743,3.8919,3.9145,3.9471,3.9697,3.9697,3.9849,4.0126,4.0505,4.1041,4.1732,4.2449,4.3012,4.3475,4.3628,3.6968,3.6828,3.6803,3.6963,3.7127,3.7152,3.7379,3.7758,3.7884,3.7985,3.8035,3.8136,3.8539,3.8868,3.8918,3.9146,3.9525,3.96,3.9599,3.975,3.9726,3.9676,3.9676,3.9676,3.9651,3.9651,3.95,3.9474,3.9424,3.907,3.8918,3.8818,3.8337,3.7783,3.7404,3.7301,3.6925,3.6644,3.6572,3.6474,3.6348,3.6204,3.6128,3.6003,3.5906,3.5705,3.5282,3.4881,3.4625,3.4374,3.4299,3.4324,3.4474,3.45,3.4751,3.5182,3.5307,3.5579,3.6006,3.6132,3.6408,3.6885,3.7008,3.7136,3.7538,3.7688,3.7789,3.7814,3.7965,3.804,3.809,3.8417,3.8718,3.8866,3.8417,3.8041,3.809,3.799,3.799,3.799,3.804,3.809,3.8115,3.8115,3.8115,3.809,3.814,3.8241,3.8517,3.8642,3.8668,3.9094,3.932,3.9295,3.932,3.932,3.932,3.9371,3.922,3.9069,3.9145,3.9246,3.9396,3.9672,3.9697,3.9697,3.9873,4.0124,4.0606,4.1188,4.1793,4.2557,4.2831,4.3209,4.3209,3.6734,3.6593,3.6773,3.6933,3.7066,3.7242,3.7493,3.7668,3.7917,3.8066,3.8191,3.8416,3.8792,3.9195,3.922,3.9371,3.9672,3.9697,3.9697,3.9697,3.9672,3.9724,3.9697,3.9697,3.9697,3.9697,3.9697,3.9672,3.9622,3.9346,3.9245,3.917,3.8642,3.8191,3.8014,3.7613,3.7387,3.7184,3.7061,3.7109,3.7061,3.681,3.6757,3.6681,3.6556,3.6182,3.5855,3.5579,3.5228,3.4851,3.4726,3.4826,3.5006,3.5031,3.5328,3.583,3.5881,3.6132,3.6584,3.6757,3.696,3.7387,3.7538,3.7688,3.7965,3.8191,3.8366,3.8366,3.8567,3.8693,3.8768,3.8943,3.9064,3.8956,3.8635,3.839,3.8491,3.8667,3.8718,3.8718,3.8718,3.8718,3.8718,3.8693,3.8693,3.8743,3.8818,3.8969,3.9145,3.9195,3.927,3.9546,3.9697,3.9572,3.9521,3.9521,3.9521,3.9597,3.9597,3.9496,3.9471,3.9446,3.9546,3.9672,3.9697,3.9798,4.0049,4.0425,4.1081,4.1634,4.2187,4.2564,4.2836,4.2986,4.2986,3.643,3.6531,3.6985,3.7067,3.7096,3.7419,3.7541,3.7463,3.788,3.8155,3.8434,3.8958,3.9237,3.9594,3.9469,3.962,3.9645,3.9823,3.9923,3.9973,3.9998,4.0023,4.0023,3.9772,3.9772,3.9848,3.9798,3.9823,3.9848,3.9798,3.9722,3.9546,3.9145,3.8969,3.8642,3.8291,3.809,3.7889,3.7814,3.7789,3.7739,3.7462,3.7287,3.7211,3.6759,3.6606,3.648,3.6329,3.5927,3.4951,3.4876,3.5203,3.5604,3.5583,3.583,3.6232,3.6383,3.6659,3.7086,3.7186,3.7513,3.7965,3.809,3.814,3.8366,3.8718,3.8994,3.8944,3.9421,3.9496,3.9443,3.9389,3.9052,3.8816,3.8715,3.8868,3.9154,3.949,3.9697,3.9697,3.9672,3.9697,3.9697,3.9697,3.9647,3.9245,3.932,3.9371,3.9471,3.9471,3.9521,3.9622,3.9697,3.9697,3.9672,3.9672,3.9672,3.9672,3.9672,3.9622,3.9622,3.9622,3.9647,3.9722,3.9873,4.0074,4.035,4.0852,4.1505,4.1957,4.2439,4.271,4.2986,4.2986,4.2986,3.6656,3.701,3.6919,3.7369,3.7915,3.7757,3.777,3.8108,3.823,3.8254,3.846,3.8739,3.8945,3.8998,3.9258,3.9362,3.9538,3.9992,4.0498,4.0924,4.0978,4.0924,4.0699,4.0122,3.9973,4.0224,4.035,4.035,4.035,4.0275,4.0099,3.9722,3.9572,3.9346,3.8969,3.8793,3.8442,3.8115,3.804,3.8115,3.8115,3.7965,3.7814,3.7739,3.7287,3.7084,3.6958,3.6631,3.6304,3.6128,3.6053,3.6078,3.6107,3.6182,3.6257,3.6458,3.681,3.7086,3.7236,3.7638,3.8065,3.8592,3.8693,3.8868,3.9295,3.9371,3.9496,3.9521,3.9622,3.9696,3.9511,3.9151,3.8887,3.8725,3.8546,3.855,3.8684,3.9102,3.9413,3.9594,3.9645,3.9697,3.9697,3.9697,3.9697,3.9697,3.9697,3.9697,3.9697,3.9697,3.9697,3.9697,3.9697,3.9697,3.9697,3.9697,3.9697,3.9697,3.9697,3.9848,3.9848,3.9823,3.9873,3.9973,4.0124,4.04,4.0802,4.1329,4.1982,4.2363,4.264,4.2811,4.2986,4.2986,4.2986,3.7263,3.7417,3.7518,3.764,3.78,3.7834,3.7786,3.7791,3.7761,3.7892,3.8051,3.8315,3.8473,3.8631,3.8918,3.9173,3.9519,4.0096,4.06,4.0794,4.0873,4.0873,4.0848,4.0454,4.0333,4.0771,4.0718,4.0743,4.0799,4.0651,4.035,4.0074,3.9848,3.9572,3.9295,3.9245,3.912,3.8919,3.8793,3.8793,3.8793,3.8542,3.8216,3.804,3.7713,3.7487,3.7161,3.6935,3.6832,3.6782,3.6782,3.6656,3.6531,3.6656,3.6734,3.6835,3.7262,3.7713,3.799,3.8241,3.8642,3.9195,3.9245,3.9396,3.9622,3.9697,3.9848,3.9998,4.0072,4.0017,3.9897,3.9734,3.9443,3.9019,3.8717,3.865,3.8737,3.896,3.9102,3.9258,3.9231,3.9231,3.9258,3.9463,3.9567,3.954,3.9772,3.9772,3.9697,3.9697,3.9697,3.9697,3.9697,3.9697,3.9697,3.9697,3.9697,3.9697,3.9697,3.9948,4.0149,4.0124,4.0124,4.03,4.0551,4.1028,4.1455,4.1982,4.2363,4.261,4.2836,4.2936,4.2986,4.2986,4.2986,3.7916,3.7742,3.8138,3.79,3.7425,3.7623,3.7471,3.712,3.7012,3.7251,3.7489,3.7785,3.7921,3.821,3.8542,3.9043,3.9736,4.0207,4.0605,4.0802,4.0826,4.0826,4.0722,4.0593,4.0654,4.1201,4.1072,4.1076,4.106,4.0843,4.0511,4.0342,4.0022,3.9694,3.9671,3.9697,3.9597,3.9521,3.9496,3.9521,3.9521,3.917,3.8793,3.8492,3.8216,3.799,3.7663,3.7437,3.7312,3.7312,3.7312,3.7061,3.6933,3.6985,3.7312,3.7337,3.7839,3.8266,3.8668,3.8894,3.9195,3.9672,3.9672,3.9672,3.9697,3.9848,4.0099,4.035,4.0498,4.0589,4.0577,4.0395,4.0092,3.9661,3.9135,3.8948,3.9019,3.892,3.8733,3.8841,3.8945,3.8998,3.9072,3.9173,3.933,3.9459,3.9717,3.9898,3.9873,3.9823,3.9898,3.9823,3.9823,3.9722,3.9697,3.9697,3.9697,3.9798,3.9772,4.0124,4.0501,4.0802,4.0877,4.0827,4.1078,4.1555,4.1932,4.2258,4.2585,4.2886,4.2986,4.2986,4.2986,4.2986,4.2986,3.8116,3.8238,3.7878,3.7758,3.7724,3.7203,3.6904,3.6766,3.6742,3.6796,3.6874,3.712,3.7304,3.7483,3.8102,3.9043,3.9913,4.0442,4.0877,4.1144,4.1193,4.1136,4.0975,4.0667,4.0763,4.1104,4.1118,4.1096,4.1262,4.1139,4.0651,4.0009,3.995,3.9885,3.9638,3.9619,3.9796,3.9871,3.9898,3.9873,3.9747,3.9572,3.9421,3.9195,3.8894,3.8693,3.8492,3.809,3.7864,3.7864,3.7889,3.7814,3.7789,3.7864,3.7865,3.799,3.8417,3.8818,3.8969,3.9295,3.9546,3.9697,3.9696,3.9721,3.9796,4.0072,4.037,4.0595,4.0921,4.1064,4.0873,4.0745,4.0373,3.9874,3.9382,3.896,3.887,3.864,3.8485,3.877,3.8831,3.8757,3.8851,3.9128,3.941,3.9795,4.0181,4.0467,4.0623,4.0526,4.0375,4.0199,3.9973,3.9823,3.9697,3.9697,3.9722,3.9923,4.0049,4.0425,4.0852,4.1505,4.1706,4.1605,4.1656,4.2007,4.2333,4.2559,4.2735,4.2961,4.2986,4.2986,4.2986,4.2986,4.2986,3.8663,3.8551,3.8007,3.7681,3.7418,3.6904,3.6603,3.6495,3.6495,3.6472,3.658,3.6742,3.6928,3.7099,3.7715,3.8761,3.976,4.035,4.0622,4.0836,4.086,4.0803,4.0687,4.0339,4.0339,4.0384,4.0483,4.0877,4.1362,4.1149,4.0814,4.0611,4.0404,4.0084,4.0017,4.0205,4.0262,4.0315,4.0395,4.0375,4.0099,3.9898,3.9722,3.9622,3.9446,3.917,3.8894,3.8718,3.8467,3.8442,3.8442,3.8617,3.8718,3.8717,3.8592,3.8567,3.8867,3.9117,3.9091,3.9262,3.9305,3.9603,3.968,3.9801,4.0025,4.0323,4.0624,4.0972,4.1365,4.1577,4.1268,4.1139,4.0964,4.0611,3.9977,3.9633,3.9434,3.8916,3.8785,3.8785,3.8412,3.8364,3.864,3.8994,3.9506,4.0075,4.0641,4.1006,4.1347,4.1178,4.0902,4.0501,4.0249,4.0074,3.9948,3.9973,4.0023,4.0174,4.0425,4.0802,4.1229,4.1936,4.2288,4.2333,4.2459,4.2539,4.2635,4.2811,4.2911,4.2986,4.2986,4.2986,4.2986,4.2986,4.3011,3.9102,3.8736,3.8157,3.7601,3.7089,3.6742,3.6472,3.6309,3.6332,3.6332,3.6309,3.6549,3.665,3.6959,3.7627,3.8484,3.9348,3.9768,3.9884,3.9908,3.9931,3.9814,3.9638,3.9521,3.9544,3.9521,3.965,4.0223,4.0971,4.0934,4.0918,4.0714,4.0459,4.0403,4.036,4.0429,4.071,4.0898,4.106,4.0971,4.0598,4.0174,3.9848,3.9823,3.9747,3.9471,3.9145,3.9019,3.8993,3.8918,3.8917,3.9067,3.939,3.931,3.9161,3.9064,3.9161,3.9206,3.9327,3.917,3.9361,3.9804,3.98,3.9991,4.0237,4.0488,4.0722,4.1286,4.1629,4.1874,4.1663,4.1615,4.1444,4.1094,4.0586,4.0194,3.9833,3.9355,3.8808,3.8556,3.8074,3.8129,3.8523,3.9108,3.9726,4.033,4.093,4.1489,4.1758,4.1652,4.1379,4.0852,4.0526,4.0325,4.0275,4.035,4.0475,4.0676,4.1003,4.1354,4.1756,4.2288,4.2564,4.2735,4.2785,4.2811,4.2936,4.2986,4.2986,4.2986,4.2986,4.2986,4.2986,4.3037,4.3087,3.9102,3.8736,3.7945,3.7411,3.7012,3.658,3.6309,3.6254,3.6277,3.6254,3.6277,3.6355,3.6562,3.7058,3.7737,3.8387,3.8821,3.898,3.9108,3.9108,3.9049,3.9049,3.8871,3.8656,3.8656,3.8716,3.8871,3.9462,4.0199,4.0534,4.0469,4.0281,4.0555,4.0536,4.0214,4.0434,4.0439,4.0542,4.0839,4.106,4.1046,4.0648,4.0475,4.0247,3.9997,3.9746,3.9619,3.9438,3.9362,3.9285,3.9,3.8896,3.8893,3.8893,3.9111,3.9238,3.9238,3.9037,3.9455,3.9447,3.9638,4.0079,4.0202,4.0335,4.0385,4.0536,4.0869,4.1493,4.1663,4.1663,4.1688,4.1688,4.1435,4.1028,4.0502,4.0012,3.9699,3.9642,3.9061,3.8774,3.8424,3.8433,3.8662,3.9306,3.9953,4.0596,4.1184,4.178,4.2121,4.1968,4.1856,4.1354,4.0953,4.0752,4.0676,4.0727,4.0953,4.1178,4.148,4.1831,4.2263,4.259,4.2791,4.2936,4.2986,4.2986,4.2986,4.2986,4.2986,4.3037,4.3087,4.3062,4.2986,4.3087,4.3338,3.8945,3.8736,3.7732,3.7251,3.7012,3.6526,3.6223,3.6059,3.6004,3.6004,3.6004,3.6004,3.6437,3.7178,3.7871,3.8241,3.8506,3.8537,3.8596,3.8596,3.8537,3.8477,3.8276,3.8178,3.8118,3.8118,3.8276,3.8633,3.9344,3.9873,4.0082,4.0172,4.033,4.034,4.0129,4.0394,4.0668,4.0933,4.1182,4.1425,4.1384,4.1143,4.0871,4.0686,4.0436,4.0283,4.0099,4.0017,3.9911,3.9857,3.9643,3.9482,3.9374,3.9237,3.9141,3.9183,3.8947,3.9086,3.9691,3.9631,3.9922,4.0151,4.0265,4.0162,4.029,4.0392,4.0493,4.0755,4.0976,4.1172,4.1287,4.1172,4.1057,4.0731,4.0277,4.0056,3.9708,3.9569,3.936,3.9036,3.877,3.8793,3.8849,3.9319,4.0036,4.0706,4.1339,4.1977,4.2215,4.2193,4.2053,4.1882,4.1505,4.115,4.11,4.11,4.1455,4.1656,4.1806,4.2213,4.2534,4.2836,4.2936,4.2986,4.2986,4.2986,4.2986,4.3037,4.3062,4.3137,4.3237,4.3338,4.3489,4.3865,4.4192,3.8788,3.8684,3.7572,3.712,3.7012,3.6417,3.6004,3.5808,3.573,3.5698,3.5788,3.5969,3.6601,3.7324,3.783,3.8126,3.8238,3.8201,3.8141,3.8141,3.8141,3.7998,3.7878,3.7758,3.7758,3.7818,3.7938,3.8216,3.8656,3.9131,3.9603,4.0071,4.021,4.0152,4.0199,4.0361,4.0683,4.1118,4.1338,4.1607,4.1706,4.1449,4.1171,4.1017,4.0834,4.0627,4.0354,4.0141,4.0117,3.9928,3.963,3.9417,3.9386,3.9141,3.9006,3.9069,3.8925,3.9099,3.9507,3.969,3.989,4.004,4.0059,3.9949,3.9884,3.9931,3.9931,3.9989,4.0165,4.0363,4.0537,4.0595,4.0479,4.0305,4.0024,3.9931,3.9755,3.9382,3.9078,3.8857,3.8693,3.8843,3.9045,3.943,4.0009,4.0789,4.1516,4.2142,4.2364,4.2424,4.2404,4.2308,4.2208,4.1932,4.1907,4.1907,4.2082,4.2108,4.2313,4.2489,4.276,4.2911,4.2961,4.2986,4.3037,4.3162,4.3288,4.3212,4.3187,4.3413,4.3639,4.389,4.4141,4.4543,4.4844,3.8788,3.8684,3.7548,3.712,3.7036,3.6168,3.584,3.5753,3.5533,3.5445,3.5602,3.6398,3.7071,3.7529,3.7777,3.791,3.7938,3.7616,3.7555,3.7555,3.7495,3.7555,3.7495,3.7495,3.7495,3.7495,3.7698,3.7878,3.8058,3.8418,3.9094,3.9743,3.9779,3.9873,3.9873,3.9931,4.0339,4.0826,4.1085,4.1485,4.1646,4.1576,4.125,4.1127,4.0728,4.03,4.0026,3.984,3.9666,3.9443,3.9131,3.8986,3.8977,3.8864,3.8834,3.8873,3.8908,3.8989,3.921,3.952,3.9763,3.9988,3.9896,3.9558,3.9403,3.9049,3.9108,3.9344,3.9544,3.9779,4.0048,4.0165,3.9954,3.9779,3.9544,3.9249,3.9072,3.8834,3.8611,3.8537,3.8596,3.8752,3.9108,3.9453,3.9814,4.0548,4.1573,4.228,4.265,4.2811,4.2861,4.2811,4.2836,4.276,4.2785,4.276,4.261,4.2559,4.266,4.276,4.2911,4.2986,4.3162,4.3212,4.3313,4.3438,4.3639,4.384,4.3966,4.3915,4.4091,4.4493,4.4819,4.5171,4.5347,3.8788,3.8684,3.7548,3.712,3.7036,3.6168,3.5698,3.5533,3.5257,3.5324,3.5635,3.6742,3.7322,3.7436,3.7695,3.7758,3.7616,3.7517,3.7435,3.7374,3.7374,3.7374,3.7374,3.7374,3.7374,3.7435,3.7555,3.7758,3.7938,3.8043,3.838,3.8834,3.914,3.9012,3.9012,3.9272,3.9661,3.9989,4.0421,4.0884,4.1378,4.1371,4.1201,4.1177,4.0853,4.0434,4.0173,3.9864,3.9692,3.9416,3.9013,3.8793,3.8677,3.8584,3.8582,3.8648,3.8671,3.8689,3.8885,3.9242,3.9709,3.9487,3.9344,3.9049,3.8775,3.8596,3.8596,3.8775,3.9072,3.9367,3.9544,3.9638,3.9521,3.9249,3.8953,3.8656,3.844,3.832,3.8261,3.8238,3.8477,3.8693,3.9108,3.9521,3.9849,4.0339,4.1402,4.228,4.2706,4.2986,4.2986,4.2986,4.2986,4.2986,4.2986,4.2986,4.2986,4.2986,4.3011,4.3087,4.3162,4.3438,4.3564,4.3564,4.3714,4.3991,4.4292,4.4618,4.4669,4.4493,4.4769,4.5246,4.5547,4.5748,4.5824,3.8788,3.8684,3.7548,3.712,3.6958,3.6059,3.5588,3.5368,3.498,3.5244,3.5839,3.6889,3.7296,3.7317,3.75,3.7616,3.7435,3.7374,3.7374,3.7374,3.7374,3.7374,3.7374,3.7374,3.7374,3.7374,3.7374,3.7555,3.7698,3.789,3.8122,3.837,3.8414,3.8541,3.8567,3.8642,3.8851,3.9213,3.9521,4.0106,4.0629,4.0745,4.0663,4.0721,4.0476,4.0105,3.9733,3.9417,3.9347,3.9193,3.8921,3.8707,3.8611,3.8537,3.838,3.8261,3.8261,3.8261,3.8358,3.8775,3.9249,3.9012,3.8716,3.8477,3.8298,3.8178,3.8118,3.8298,3.8656,3.8953,3.9012,3.9012,3.8894,3.8656,3.8477,3.8178,3.8058,3.7938,3.7938,3.7998,3.8298,3.8656,3.9108,3.9579,4.0339,4.0745,4.1516,4.2312,4.2818,4.2986,4.2986,4.2986,4.2986,4.2986,4.2986,4.2986,4.2986,4.3087,4.3137,4.3313,4.3463,4.3765,4.4016,4.4091,4.4292,4.4618,4.4869,4.5095,4.507,4.4945,4.5347,4.5799,4.5899,4.6075,4.615,3.8788,3.8631,3.7572,3.712,3.6982,3.5895,3.5423,3.5335,3.4923,3.5203,3.6012,3.6662,3.7079,3.7303,3.7473,3.7435,3.7435,3.7374,3.7374,3.7374,3.7374,3.7374,3.7374,3.7374,3.7374,3.7435,3.7461,3.7566,3.7522,3.8021,3.8196,3.8371,3.8631,3.8737,3.8653,3.8608,3.8707,3.8806,3.8985,3.9423,3.979,3.993,3.993,3.9873,3.9755,3.9462,3.9108,3.893,3.8752,3.8596,3.8418,3.8298,3.8298,3.8298,3.8118,3.7938,3.7938,3.7736,3.7555,3.8118,3.838,3.844,3.8238,3.7998,3.7878,3.7698,3.7616,3.7878,3.8058,3.8238,3.832,3.844,3.832,3.8178,3.8058,3.7878,3.7758,3.7637,3.7698,3.7938,3.8178,3.8559,3.9072,3.9697,4.0687,4.1402,4.1859,4.2369,4.2874,4.2986,4.2986,4.2986,4.2986,4.2986,4.2986,4.2986,4.3011,4.3112,4.3288,4.3514,4.389,4.4317,4.4493,4.4593,4.4869,4.5221,4.5372,4.5497,4.5472,4.5522,4.5849,4.62,4.6301,4.6326,4.6326,3.8684,3.8421,3.7495,3.712,3.6928,3.5895,3.5423,3.5424,3.5474,3.5845,3.6435,3.6937,3.7199,3.7352,3.7374,3.7374,3.7374,3.7374,3.7374,3.7374,3.7374,3.7374,3.7374,3.7396,3.7396,3.7483,3.7614,3.7855,3.7898,3.8357,3.8554,3.8707,3.9034,3.9075,3.8832,3.8762,3.8839,3.9098,3.9176,3.9309,3.9536,3.9408,3.9294,3.9199,3.9081,3.8843,3.8522,3.8425,3.8223,3.8081,3.7938,3.7818,3.7818,3.7818,3.7736,3.7555,3.7577,3.7555,3.7435,3.7698,3.7818,3.79,3.7818,3.7637,3.7555,3.7495,3.7495,3.7616,3.7736,3.7938,3.8058,3.8081,3.7998,3.7938,3.7818,3.7637,3.7495,3.7495,3.7555,3.7878,3.8201,3.8798,3.9367,3.9755,4.0629,4.1402,4.1859,4.2369,4.2874,4.2986,4.2986,4.2986,4.2986,4.2986,4.3011,4.3212,4.3413,4.3589,4.3714,4.3865,4.4292,4.4819,4.5045,4.5196,4.5497,4.5824,4.5849,4.5899,4.5999,4.615,4.6276,4.6301,4.6326,4.6326,4.6326,3.8684,3.8421,3.7518,3.712,3.6904,3.5895,3.5402,3.5446,3.5799,3.6238,3.6719,3.7156,3.7374,3.7374,3.7374,3.7374,3.7374,3.7374,3.7374,3.7374,3.7374,3.7374,3.7396,3.7549,3.768,3.7767,3.8073,3.8357,3.8379,3.8859,3.9165,3.9406,3.9496,3.941,3.9192,3.904,3.8821,3.8941,3.8828,3.8971,3.9143,3.9176,3.9126,3.9046,3.8835,3.8669,3.8331,3.8122,3.7934,3.7786,3.7599,3.7396,3.7396,3.7374,3.7374,3.7374,3.7571,3.768,3.7898,3.7964,3.8126,3.7945,3.7648,3.7456,3.7374,3.7374,3.7374,3.7495,3.7637,3.7698,3.778,3.7802,3.794,3.7901,3.7972,3.7789,3.7833,3.7855,3.7984,3.8265,3.853,3.9104,3.9695,4.0013,4.0513,4.123,4.1802,4.2418,4.295,4.3006,4.3087,4.3087,4.3212,4.3363,4.3489,4.3664,4.3865,4.4041,4.4242,4.4418,4.4844,4.5372,4.5598,4.5773,4.5949,4.61,4.62,4.6276,4.6326,4.6361,4.6396,4.6421,4.6301,4.6351,4.6461,3.8788,3.8631,3.7548,3.712,3.6928,3.5963,3.5402,3.5334,3.5837,3.6304,3.6784,3.7221,3.7374,3.7374,3.7374,3.7374,3.7374,3.7374,3.7374,3.7374,3.7374,3.7396,3.7593,3.7833,3.8008,3.827,3.8575,3.8859,3.8903,3.934,3.9777,3.9931,3.978,3.9628,3.9412,3.9088,3.883,3.8722,3.8699,3.8866,3.8944,3.9151,3.9166,3.9095,3.9029,3.8773,3.8495,3.8178,3.7981,3.7785,3.7527,3.7505,3.7461,3.744,3.7418,3.7571,3.7942,3.8292,3.8554,3.8597,3.8466,3.82,3.785,3.7549,3.7374,3.7374,3.7374,3.7418,3.7604,3.7522,3.7544,3.7811,3.8139,3.823,3.8426,3.8469,3.8575,3.8653,3.8758,3.8947,3.9062,3.9474,3.9936,4.0317,4.0881,4.1455,4.2166,4.2774,4.3205,4.3181,4.3263,4.3313,4.3489,4.379,4.3966,4.4116,4.4367,4.4593,4.492,4.5171,4.5598,4.5824,4.5949,4.61,4.625,4.6401,4.6552,4.6577,4.6577,4.6698,4.7056,4.6692,4.6657,4.6648,4.6723,3.8684,3.8421,3.7495,3.712,3.6975,3.6203,3.5868,3.5837,3.626,3.6741,3.7199,3.7309,3.7374,3.7374,3.7374,3.7374,3.7374,3.7374,3.7374,3.7374,3.744,3.7614,3.7855,3.8095,3.8313,3.8685,3.9056,3.9362,3.9449,3.9907,3.9888,3.9844,3.9842,3.9667,3.9384,3.8951,3.8889,3.8892,3.8828,3.8852,3.8894,3.9085,3.906,3.9034,3.9095,3.8816,3.8622,3.8619,3.8466,3.8401,3.8379,3.8401,3.8423,3.8423,3.8423,3.8423,3.8513,3.8644,3.8731,3.8775,3.8731,3.8685,3.8466,3.7964,3.7658,3.7461,3.7483,3.7614,3.7789,3.7876,3.7885,3.8106,3.8241,3.8352,3.8525,3.876,3.8886,3.911,3.9264,3.9595,3.9712,3.9954,4.0398,4.0888,4.146,4.1959,4.2549,4.3118,4.3539,4.3544,4.3614,4.3639,4.3966,4.4342,4.4418,4.4543,4.4844,4.5146,4.5447,4.5723,4.5949,4.6125,4.6276,4.6451,4.6652,4.6803,4.6867,4.6979,4.7227,4.7688,4.8024,4.7455,4.704,4.7167,4.7258,3.8736,3.8421,3.7495,3.6874,3.6447,3.6308,3.6153,3.61,3.6479,3.6959,3.7352,3.7374,3.7374,3.7374,3.7374,3.7374,3.7374,3.7374,3.7374,3.7418,3.7571,3.7811,3.8073,3.8488,3.8859,3.9231,3.9537,3.9842,3.9973,4.0105,4.0212,4.036,4.0051,3.9763,3.9538,3.9311,3.9223,3.9168,3.9157,3.8972,3.8977,3.9001,3.8981,3.9001,3.9043,3.9042,3.8932,3.8995,3.9034,3.8881,3.8775,3.8753,3.8753,3.8753,3.8991,3.8991,3.91,3.9274,3.9449,3.9471,3.9318,3.9165,3.91,3.8707,3.8335,3.8095,3.8073,3.8117,3.8292,3.836,3.8347,3.8395,3.8378,3.8423,3.8616,3.8894,3.9191,3.9525,3.9851,4.0169,4.0387,4.0632,4.1022,4.1541,4.1919,4.2161,4.2686,4.337,4.3788,4.3954,4.4026,4.4166,4.4568,4.497,4.4995,4.507,4.5397,4.5673,4.5824,4.6075,4.6301,4.6401,4.6476,4.6753,4.7104,4.728,4.7456,4.7792,4.8067,4.8506,4.8829,4.8579,4.8212,4.8176,4.8233,3.8788,3.8631,3.7495,3.6487,3.5657,3.6112,3.6266,3.6144,3.6588,3.6981,3.733,3.7374,3.7374,3.7374,3.7374,3.7374,3.7374,3.7374,3.7461,3.7461,3.7811,3.8139,3.8597,3.9119,3.9425,3.9754,4.0038,4.0192,4.0367,4.0517,4.0684,4.1001,4.0371,3.9946,3.9767,3.9515,3.9405,3.9369,3.9197,3.8933,3.894,3.9075,3.9252,3.9212,3.9344,3.9454,3.9261,3.928,3.9406,3.9122,3.8991,3.9034,3.9078,3.91,3.9318,3.9449,3.9602,3.9755,3.9952,4.0017,3.9886,3.9797,3.9644,3.9362,3.91,3.8619,3.851,3.8554,3.8685,3.8671,3.8696,3.8744,3.8766,3.8657,3.8764,3.9001,3.9239,3.9818,4.0554,4.0836,4.1103,4.1329,4.1576,4.2078,4.2593,4.2553,4.3048,4.3934,4.4274,4.4577,4.4569,4.4744,4.5146,4.5522,4.5598,4.5723,4.5999,4.6225,4.625,4.6401,4.6577,4.6627,4.6652,4.7104,4.7606,4.7832,4.8033,4.8484,4.8824,4.9099,4.9409,4.9574,4.9506,4.9322,4.9225,3.8684,3.8368,3.7066,3.6264,3.6005,3.6267,3.6465,3.6544,3.7025,3.7243,3.7352,3.7374,3.7374,3.7374,3.7374,3.7374,3.7374,3.7483,3.7614,3.7833,3.8139,3.8619,3.9056,3.9491,3.9819,4.0039,4.0279,4.0541,4.0868,4.0904,4.0804,4.0725,4.0378,4.0165,3.9889,3.9682,3.9661,3.9682,3.9502,3.9359,3.9311,3.9252,3.9302,3.9269,3.9318,3.9493,3.9431,3.9606,3.9801,3.9887,3.993,3.9952,3.993,3.9908,3.9952,4.0083,4.0039,4.0148,4.0192,4.0344,4.0235,4.0213,4.0126,4.0039,3.9755,3.9187,3.8862,3.9012,3.8995,3.902,3.8959,3.9023,3.9018,3.8885,3.8861,3.9101,3.9341,4.0191,4.1088,4.1402,4.1714,4.1942,4.2193,4.2654,4.3136,4.3716,4.4415,4.5022,4.525,4.551,4.5329,4.5472,4.5773,4.6075,4.61,4.61,4.625,4.6351,4.6351,4.6577,4.6878,4.7205,4.7481,4.7757,4.8109,4.8385,4.8749,4.933,4.9685,4.9785,5.011,5.0354,5.0669,5.0659,5.0431,3.8631,3.8238,3.6742,3.6112,3.6106,3.6219,3.6414,3.6719,3.7178,3.7374,3.7374,3.7374,3.7374,3.7374,3.7374,3.7396,3.744,3.7636,3.7833,3.8095,3.8597,3.9056,3.9513,3.9819,3.9995,4.0279,4.0563,4.0913,4.1435,4.1445,4.1319,4.1146,4.0863,4.0515,4.0166,4.0116,4.0075,4.0137,4.0075,3.9966,3.9756,3.9568,3.9422,3.9353,3.9492,3.9693,3.9915,4.0115,4.0448,4.0605,4.0584,4.0388,4.0279,4.0192,4.0236,4.0257,4.0323,4.0344,4.0366,4.0344,4.0344,4.0344,4.0344,4.017,4.017,3.9668,3.9646,3.9711,3.9476,3.9412,3.9109,3.9016,3.8729,3.8573,3.8772,3.9057,3.9604,4.0409,4.1052,4.1351,4.1625,4.2006,4.2299,4.2802,4.3349,4.4031,4.4853,4.5502,4.5806,4.6284,4.619,4.6125,4.6401,4.6351,4.6225,4.6225,4.6276,4.6376,4.6577,4.6954,4.7405,4.7933,4.8335,4.8435,4.8661,4.8987,4.9442,4.9849,5.0155,5.0294,5.0724,5.1304,5.1534,5.1596,5.1262,3.8579,3.8051,3.6472,3.5936,3.6139,3.6068,3.6341,3.6806,3.7199,3.7374,3.7374,3.7374,3.7374,3.7374,3.7374,3.7418,3.7571,3.7833,3.8051,3.8575,3.9122,3.9535,3.9841,4.0061,4.0257,4.0629,4.1022,4.159,4.2155,4.2051,4.1941,4.1933,4.1664,4.131,4.1025,4.0862,4.0737,4.0696,4.0634,4.0572,4.0241,3.9798,3.962,3.9675,3.9813,4.0019,4.0272,4.0524,4.0933,4.1121,4.1062,4.0934,4.076,4.0672,4.0629,4.0651,4.052,4.0498,4.041,4.0345,4.0301,4.0344,4.0344,4.0323,4.0323,4.0367,4.0345,4.0236,3.9995,3.971,3.938,3.9091,3.8779,3.8578,3.8891,3.9157,3.9885,4.0607,4.1063,4.1388,4.1708,4.2093,4.2685,4.3191,4.3749,4.4371,4.4999,4.5539,4.6091,4.6609,4.6842,4.6803,4.6903,4.6778,4.6527,4.6627,4.6753,4.6878,4.7154,4.7506,4.7933,4.8485,4.8837,4.8937,4.9188,4.9364,4.9657,4.9989,5.027,5.0588,5.0905,5.1346,5.1534,5.1596,5.1596,3.8262,3.7251,3.6004,3.5893,3.6563,3.6222,3.6494,3.7238,3.7309,3.7374,3.7374,3.7374,3.7374,3.7374,3.7374,3.7505,3.7876,3.8117,3.8707,3.9382,3.9557,3.9863,4.0083,4.0279,4.052,4.1022,4.1612,4.218,4.2504,4.2488,4.2312,4.2067,4.1756,4.1402,4.1025,4.0954,4.0954,4.0954,4.0954,4.0779,4.0675,4.0303,3.9909,3.9723,3.9537,3.9813,4.0067,4.0204,4.0614,4.0979,4.141,4.1414,4.1328,4.124,4.1219,4.1109,4.1,4.0891,4.0804,4.0629,4.0585,4.0498,4.0541,4.0629,4.0694,4.0869,4.0824,4.0839,4.0571,4.0216,3.9947,3.9761,3.9464,3.9396,3.9532,3.9668,4.0142,4.0861,4.1462,4.1794,4.2208,4.2769,4.3578,4.4057,4.452,4.5154,4.597,4.6476,4.7034,4.7307,4.7506,4.7481,4.7431,4.728,4.7104,4.733,4.7481,4.7581,4.7707,4.8058,4.851,4.9063,4.9339,4.9289,4.9364,4.9515,4.9783,4.9976,5.0295,5.055,5.0867,5.1183,5.1497,5.1596,5.1596]}]]